[[{"header":{"parameterUnit":"m.s-1","parameterCategory":1,"la1":31.0,"la2":29.5877,"lo1":-88.7671,"lo2":-86.6584,"dy":0.0162,"dx":0.0185,"nx":115,"ny":88,"refTime":"2023-11-07T18:00:00:Z","depth":0,"parameterNumber":2,"parameterNumberName":"U-component_of_WINDS"},"data":[0.0,0.0,0.0,0.0,0.0,0.0,0.0,0.0,0.0,0.0,0.0,0.0,0.0,0.0,0.0,0.0,0.0,0.0,0.0,0.0,0.0,0.0,0.0,0.0,0.0,0.0,0.0,0.0,0.0,0.0,0.0,0.0,0.0,0.0,0.0,0.0,0.0,0.0,0.0,0.0,0.0,0.0,0.0,0.0,0.0,0.0,0.0,0.0,0.0,0.0,0.0,0.0,0.0,0.0,0.0,0.0,0.0,0.0,0.0,0.0,0.0,0.0,0.0,0.0,0.0,0.0,0.0,0.0,0.0,0.0,0.0,0.0,0.0,0.0,0.0,0.0,0.0,0.0,0.0,0.0,0.0,0.0,0.0,0.0,0.0,0.0,0.0,0.0,0.0,0.0,0.0,0.0,0.0,0.0,0.0,0.0,0.0,0.0,0.0,0.0,0.0,0.0,0.0,0.0,0.0,0.0,0.0,0.0,0.0,0.0,0.0,0.0,0.0,0.0,0.0,0.0,0.0,0.0,0.0,0.0,0.0,0.0,0.0,0.0,0.0,0.0,0.0,0.0,0.0,0.0,0.0,0.0,0.0,0.0,0.0,0.0,0.0,0.0,0.0,0.0,0.0,0.0,0.0,0.0,0.0,0.0,0.0,0.0,0.0,0.0,0.0,0.0,0.0,0.0,0.0,0.0,0.0,0.0,0.0,0.0,0.0,0.0,0.0,0.0,0.0,0.0,0.0,0.0,0.0,0.0,0.0,0.0,0.0,0.0,0.0,0.0,0.0,0.0,0.0,0.0,0.0,0.0,0.0,0.0,0.0,0.0,0.0,0.0,0.0,0.0,0.0,0.0,0.0,0.0,0.0,0.0,0.0,0.0,0.0,0.0,0.0,0.0,0.0,0.0,0.0,0.0,0.0,0.0,0.0,0.0,0.0,0.0,0.0,0.0,0.0,0.0,0.0,0.0,0.0,0.0,0.0,0.0,0.0,0.0,0.0,0.0,0.0,0.0,0.0,0.0,0.0,0.0,0.0,0.0,0.0,0.0,0.0,0.0,0.0,0.0,0.0,0.0,0.0,0.0,0.0,0.0,0.0,0.0,0.0,0.0,0.0,0.0,0.0,0.0,0.0,0.0,0.0,0.0,0.0,0.0,0.0,0.0,0.0,0.0,0.0,0.0,0.0,0.0,0.0,0.0,0.0,0.0,0.0,0.0,0.0,0.0,0.0,0.0,0.0,0.0,0.0,0.0,0.0,0.0,0.0,0.0,0.0,0.0,0.0,0.0,0.0,0.0,0.0,0.0,0.0,0.0,0.0,0.0,0.0,0.0,0.0,0.0,0.0,0.0,0.0,0.0,0.0,0.0,0.0,0.0,0.0,0.0,0.0,0.0,0.0,0.0,0.0,0.0,0.0,0.0,0.0,0.0,0.0,0.0,0.0,0.0,0.0,0.0,0.0,0.0,0.0,0.0,0.0,0.0,0.0,0.0,0.0,0.0,0.0,0.0,0.0,0.0,0.0,0.0,0.0,0.0,0.0,0.0,0.0,0.0,0.0,0.0,0.0,0.0,0.0,0.0,0.0,0.0,0.0,0.0,0.0,0.0,0.0,0.0,0.0,0.0,0.0,0.0,0.0,0.0,0.0,0.0,0.0,0.0,0.0,0.0,0.0,0.0,0.0,0.0,0.0,0.0,0.0,0.0,0.0,0.0,0.0,0.0,0.0,0.0,0.0,0.0,0.0,0.0,0.0,0.0,0.0,0.0,0.0,0.0,0.0,0.0,0.0,0.0,0.0,0.0,0.0,0.0,0.0,0.0,0.0,0.0,0.0,0.0,0.0,0.0,0.0,0.0,0.0,0.0,0.0,0.0,0.0,0.0,0.0,0.0,0.0,0.0,0.0,0.0,0.0,0.0,0.0,0.0,0.0,0.0,0.0,0.0,0.0,0.0,0.0,0.0,0.0,0.0,0.0,0.0,0.0,0.0,0.0,0.0,0.0,0.0,0.0,0.0,0.0,0.0,0.0,0.0,0.0,0.0,0.0,0.0,0.0,0.0,0.0,0.0,0.0,0.0,0.0,0.0,0.0,0.0,0.0,0.0,0.0,0.0,0.0,0.0,0.0,0.0,0.0,0.0,0.0,0.0,0.0,0.0,0.0,0.0,0.0,0.0,0.0,0.0,0.0,0.0,0.0,0.0,0.0,0.0,0.0,0.0,0.0,0.0,0.0,0.0,0.0,0.0,0.0,0.0,0.0,0.0,0.0,0.0,0.0,0.0,0.0,0.0,0.0,0.0,0.0,0.0,0.0,0.0,0.0,0.0,0.0,0.0,0.0,0.0,0.0,0.0,0.0,0.0,0.0,0.0,0.0,0.0,0.0,0.0,0.0,0.0,0.0,0.0,0.0,0.0,0.0,0.0,0.0,0.0,0.0,0.0,0.0,0.0,0.0,0.0,0.0,0.0,0.0,0.0,0.0,0.0,0.0,0.0,0.0,0.0,0.0,0.0,0.0,0.0,0.0,0.0,0.0,0.0,0.0,0.0,0.0,0.0,0.0,0.0,0.0,0.0,0.0,0.0,0.0,0.0,0.0,0.0,0.0,0.0,0.0,0.0,0.0,0.0,0.0,0.0,0.0,0.0,0.0,0.0,0.0,0.0,0.0,0.0,0.0,0.0,0.0,0.0,0.0,0.0,0.0,0.0,0.0,0.0,0.0,0.0,0.0,0.0,0.0,0.0,0.0,0.0,0.0,0.0,0.0,0.0,0.0,0.0,0.0,0.0,0.0,0.0,0.0,0.0,0.0,0.0,0.0,0.0,0.0,0.0,0.0,0.0,0.0,0.0,0.0,0.0,0.0,0.0,0.0,0.0,0.0,0.0,0.0,0.0,0.0,0.0,0.0,0.0,0.0,0.0,0.0,0.0,0.0,0.0,0.0,0.0,0.0,0.0,0.0,0.0,0.0,0.0,0.0,0.0,0.0,0.0,0.0,0.0,0.0,0.0,0.0,0.0,0.0,0.0,0.0,0.0,0.0,0.0,0.0,0.0,0.0,0.0,0.0,0.0,0.0,0.0,0.0,0.0,0.0,0.0,0.0,0.0,0.0,0.0,0.0,0.0,0.0,0.0,0.0,0.0,0.0,0.0,0.0,0.0,0.0,0.0,0.0,0.0,0.0,0.0,0.0,0.0,0.0,0.0,0.0,0.0,0.0,0.0,0.0,0.0,0.0,0.0,0.0,0.0,0.0,0.0,0.0,0.0,0.0,0.0,0.0,0.0,0.0,0.0,0.0,0.0,0.0,0.0,0.0,0.0,0.0,0.0,0.0,0.0,0.0,0.0,0.0,0.0,0.0,0.0,0.0,0.0,0.0,0.0,0.0,0.0,0.0,0.0,0.0,0.0,0.0,0.0,0.0,0.0,0.0,0.0,0.0,0.0,0.0,0.0,0.0,0.0,0.0,0.0,0.0,0.0,0.0,0.0,0.0,0.0,0.0,0.0,0.0,0.0,0.0,0.0,0.0,0.0,0.0,0.0,0.0,0.0,0.0,0.0,0.0,0.0,0.0,0.0,0.0,0.0,0.0,0.0,0.0,0.0,0.0,0.0,0.0,0.0,0.0,0.0,0.0,0.0,0.0,0.0,0.0,0.0,0.0,0.0,0.0,0.0,0.0,0.0,0.0,0.0,0.0,0.0,0.0,0.0,0.0,0.0,0.0,0.0,0.0,0.0,0.0,0.0,0.0,0.0,0.0,0.0,0.0,0.0,0.0,0.0,0.0,0.0,0.0,0.0,0.0,0.0,0.0,0.0,0.0,0.0,0.0,0.0,0.0,0.0,0.0,0.0,0.0,0.0,0.0,0.0,0.0,0.0,0.0,0.0,0.0,0.0,0.0,0.0,0.0,0.0,0.0,0.0,0.0,0.0,0.0,0.0,0.0,0.0,0.0,0.0,0.0,0.0,0.0,0.0,0.0,0.0,0.0,0.0,0.0,0.0,0.0,0.0,0.0,0.0,0.0,0.0,0.0,0.0,0.0,0.0,0.0,0.0,0.0,0.0,0.0,0.0,0.0,0.0,0.0,0.0,0.0,0.0,0.0,0.0,0.0,0.0,0.0,0.0,0.0,0.0,0.0,0.0,0.0,0.0,0.0,0.0,0.0,0.0,0.0,0.0,0.0,0.0,0.0,0.0,0.0,0.0,0.0,0.0,0.0,0.0,0.0,0.0,0.0,0.0,0.0,0.0,0.0,0.0,0.0,0.0,0.0,0.0,0.0,0.0,-1.1447,0.0,0.0,0.0,0.0,0.0,0.0,0.0,0.0,0.0,0.0,0.0,0.0,0.0,0.0,0.0,0.0,0.0,0.0,0.0,0.0,0.0,0.0,0.0,0.0,0.0,0.0,0.0,0.0,0.0,0.0,0.0,0.0,0.0,0.0,0.0,0.0,0.0,0.0,0.0,0.0,0.0,0.0,0.0,0.0,0.0,0.0,0.0,0.0,0.0,0.0,0.0,0.0,0.0,0.0,0.0,0.0,0.0,0.0,0.0,0.0,0.0,0.0,0.0,0.0,0.0,0.0,0.0,0.0,0.0,0.0,0.0,0.0,0.0,0.0,0.0,0.0,0.0,0.0,0.0,0.0,0.0,0.0,0.0,0.0,0.0,0.0,0.0,0.0,0.0,0.0,0.0,0.0,0.0,0.0,0.0,0.0,0.0,0.0,0.0,0.0,0.0,0.0,0.0,0.0,0.0,0.0,0.0,0.0,0.0,0.0,-1.2778,-1.2312,-1.203,-1.1524,-1.08,0.0,0.0,0.0,0.0,0.0,0.0,0.0,0.0,0.0,0.0,0.0,0.0,0.0,0.0,0.0,0.0,0.0,0.0,0.0,0.0,0.0,0.0,0.0,0.0,0.0,0.0,0.0,0.0,0.0,0.0,0.0,0.0,0.0,0.0,0.0,0.0,0.0,0.0,0.0,0.0,0.0,0.0,0.0,0.0,0.0,0.0,0.0,0.0,0.0,0.0,0.0,0.0,0.0,0.0,0.0,0.0,0.0,0.0,0.0,0.0,0.0,0.0,0.0,0.0,0.0,0.0,0.0,0.0,0.0,0.0,0.0,0.0,0.0,0.0,0.0,0.0,0.0,0.0,0.0,0.0,0.0,0.0,0.0,0.0,0.0,0.0,0.0,0.0,0.0,0.0,0.0,0.0,0.0,0.0,0.0,0.0,0.0,0.0,0.0,0.0,0.0,0.0,0.0,0.0,0.0,0.0,0.0,0.0,0.0,0.0,0.0,0.0,-1.1601,-1.1472,-1.1152,0.0,0.0,0.0,0.0,0.0,0.0,0.0,0.0,0.0,0.0,0.0,0.0,0.0,0.0,0.0,0.0,0.0,0.0,0.0,0.0,0.0,0.0,0.0,0.0,0.0,0.0,0.0,0.0,0.0,0.0,0.0,0.0,0.0,0.0,0.0,0.0,0.0,0.0,0.0,0.0,0.0,0.0,0.0,0.0,0.0,0.0,0.0,0.0,0.0,0.0,0.0,0.0,0.0,0.0,0.0,0.0,0.0,0.0,0.0,0.0,0.0,0.0,0.0,0.0,0.0,0.0,0.0,0.0,0.0,0.0,0.0,0.0,0.0,0.0,0.0,0.0,0.0,0.0,0.0,0.0,0.0,0.0,0.0,0.0,0.0,0.0,0.0,0.0,0.0,0.0,0.0,0.0,0.0,0.0,0.0,0.0,0.0,0.0,0.0,0.0,0.0,0.0,0.0,0.0,0.0,0.0,0.0,0.0,0.0,0.0,-1.1743,-1.2448,-1.2567,0.0,-1.3698,0.0,0.0,0.0,0.0,0.0,0.0,0.0,0.0,0.0,0.0,0.0,0.0,0.0,0.0,0.0,0.0,0.0,0.0,0.0,0.0,0.0,0.0,0.0,0.0,0.0,0.0,0.0,0.0,0.0,0.0,0.0,0.0,0.0,0.0,0.0,0.0,0.0,0.0,0.0,0.0,0.0,0.0,0.0,0.0,0.0,0.0,0.0,0.0,0.0,0.0,0.0,0.0,0.0,0.0,0.0,0.0,0.0,0.0,0.0,0.0,0.0,0.0,0.0,0.0,0.0,0.0,0.0,0.0,0.0,0.0,0.0,0.0,0.0,0.0,0.0,0.0,0.0,0.0,0.0,0.0,0.0,0.0,0.0,0.0,0.0,0.0,0.0,0.0,0.0,0.0,0.0,0.0,0.0,0.0,0.0,0.0,0.0,0.0,0.0,0.0,0.0,0.0,0.0,0.0,0.0,0.0,0.0,0.0,0.0,0.0,-1.1522,-1.1883,-1.198,-1.2441,0.0,0.0,0.0,0.0,0.0,0.0,0.0,0.0,0.0,0.0,0.0,0.0,0.0,0.0,0.0,0.0,0.0,0.0,0.0,0.0,0.0,0.0,0.0,0.0,0.0,0.0,0.0,0.0,0.0,0.0,0.0,0.0,0.0,0.0,0.0,0.0,0.0,0.0,0.0,0.0,0.0,0.0,0.0,0.0,0.0,0.0,0.0,0.0,0.0,0.0,0.0,0.0,0.0,0.0,0.0,0.0,0.0,0.0,0.0,0.0,0.0,0.0,0.0,0.0,0.0,0.0,0.0,0.0,0.0,0.0,0.0,0.0,0.0,0.0,0.0,0.0,0.0,0.0,0.0,0.0,0.0,0.0,0.0,0.0,0.0,0.0,0.0,0.0,0.0,0.0,0.0,0.0,0.0,0.0,0.0,0.0,0.0,0.0,0.0,0.0,0.0,0.0,0.0,0.0,0.0,0.0,0.0,0.0,0.0,0.0,-1.156,-1.1546,-1.1775,-1.1835,-1.2156,-1.2764,0.0,0.0,0.0,0.0,0.0,0.0,0.0,0.0,0.0,0.0,0.0,0.0,0.0,0.0,0.0,0.0,0.0,0.0,0.0,0.0,0.0,0.0,0.0,0.0,0.0,0.0,0.0,0.0,0.0,0.0,0.0,0.0,0.0,0.0,0.0,0.0,0.0,0.0,0.0,0.0,0.0,0.0,0.0,0.0,0.0,0.0,0.0,0.0,0.0,0.0,0.0,0.0,0.0,0.0,0.0,0.0,0.0,0.0,0.0,0.0,0.0,0.0,0.0,0.0,0.0,0.0,0.0,0.0,0.0,0.0,0.0,0.0,0.0,0.0,0.0,0.0,0.0,0.0,0.0,0.0,0.0,0.0,0.0,0.0,0.0,0.0,0.0,0.0,0.0,0.0,0.0,0.0,0.0,0.0,0.0,0.0,0.0,0.0,0.0,0.0,0.0,0.0,0.0,0.0,0.0,0.0,0.0,0.0,-1.259,-1.1912,-1.1904,-1.2714,-1.2728,-1.2761,0.0,0.0,0.0,0.0,0.0,0.0,0.0,0.0,0.0,0.0,0.0,0.0,0.0,0.0,0.0,0.0,0.0,0.0,0.0,0.0,0.0,0.0,0.0,0.0,0.0,0.0,0.0,0.0,0.0,0.0,0.0,0.0,0.0,0.0,0.0,0.0,0.0,0.0,0.0,0.0,0.0,0.0,0.0,0.0,0.0,0.0,0.0,0.0,0.0,0.0,0.0,0.0,0.0,0.0,0.0,0.0,0.0,0.0,0.0,0.0,0.0,0.0,0.0,0.0,0.0,0.0,0.0,0.0,0.0,0.0,0.0,0.0,0.0,0.0,0.0,0.0,0.0,0.0,0.0,0.0,0.0,0.0,0.0,0.0,0.0,0.0,0.0,0.0,0.0,0.0,0.0,0.0,0.0,0.0,0.0,0.0,0.0,0.0,0.0,0.0,0.0,0.0,0.0,0.0,0.0,0.0,0.0,0.0,0.0,-1.1114,-1.1406,-1.2243,-1.3514,-1.2556,-1.2244,0.0,0.0,0.0,0.0,0.0,0.0,0.0,0.0,0.0,0.0,0.0,0.0,0.0,0.0,0.0,0.0,0.0,0.0,0.0,0.0,0.0,0.0,0.0,0.0,0.0,0.0,0.0,0.0,0.0,0.0,0.0,0.0,0.0,0.0,0.0,0.0,0.0,0.0,0.0,0.0,0.0,0.0,0.0,0.0,0.0,0.0,0.0,0.0,0.0,0.0,0.0,0.0,0.0,0.0,0.0,0.0,0.0,0.0,0.0,0.0,0.0,0.0,0.0,0.0,0.0,0.0,0.0,0.0,0.0,0.0,0.0,0.0,0.0,0.0,0.0,0.0,0.0,0.0,0.0,0.0,0.0,0.0,0.0,0.0,0.0,0.0,0.0,0.0,0.0,0.0,0.0,0.0,0.0,0.0,0.0,0.0,0.0,0.0,0.0,0.0,0.0,0.0,0.0,0.0,0.0,0.0,0.0,0.0,0.0,-1.0646,0.0,-1.2828,-1.3612,-1.2559,-1.1933,0.0,0.0,0.0,0.0,0.0,0.0,0.0,0.0,0.0,0.0,0.0,0.0,0.0,0.0,0.0,0.0,0.0,0.0,0.0,0.0,0.0,0.0,0.0,0.0,0.0,0.0,0.0,0.0,0.0,0.0,0.0,0.0,0.0,0.0,0.0,0.0,0.0,0.0,0.0,0.0,0.0,0.0,0.0,0.0,0.0,0.0,0.0,0.0,0.0,0.0,0.0,0.0,0.0,0.0,0.0,0.0,0.0,0.0,0.0,0.0,0.0,0.0,0.0,0.0,0.0,0.0,0.0,0.0,0.0,0.0,0.0,0.0,0.0,0.0,0.0,0.0,0.0,0.0,0.0,0.0,0.0,0.0,0.0,0.0,0.0,0.0,0.0,0.0,0.0,0.0,0.0,0.0,0.0,0.0,0.0,0.0,0.0,0.0,0.0,0.0,0.0,0.0,0.0,0.0,0.0,0.0,0.0,0.0,-0.9768,-1.1554,-1.3164,-1.3639,-1.2949,-1.285,-1.2009,0.0,0.0,0.0,0.0,0.0,0.0,0.0,0.0,0.0,0.0,0.0,0.0,0.0,0.0,0.0,0.0,0.0,0.0,0.0,0.0,0.0,0.0,0.0,0.0,0.0,0.0,0.0,0.0,0.0,0.0,0.0,0.0,0.0,0.0,0.0,0.0,0.0,0.0,0.0,0.0,0.0,0.0,0.0,0.0,0.0,0.0,0.0,0.0,0.0,0.0,0.0,0.0,0.0,0.0,0.0,0.0,0.0,0.0,0.0,0.0,0.0,0.0,0.0,0.0,0.0,0.0,0.0,0.0,0.0,0.0,0.0,0.0,0.0,0.0,0.0,0.0,0.0,0.0,0.0,0.0,0.0,0.0,0.0,0.0,0.0,0.0,0.0,0.0,0.0,0.0,0.0,0.0,0.0,0.0,0.0,0.0,0.0,0.0,0.0,0.0,0.0,0.0,0.0,0.0,0.0,0.0,0.0,0.0,0.0,-1.1466,-1.2588,-1.3369,-1.3691,-1.3163,-1.2595,0.0,0.0,0.0,0.0,0.0,0.0,0.0,0.0,0.0,0.0,0.0,0.0,0.0,0.0,0.0,0.0,0.0,0.0,0.0,0.0,0.0,0.0,0.0,0.0,0.0,0.0,0.0,0.0,0.0,0.0,0.0,0.0,0.0,0.0,0.0,0.0,0.0,0.0,0.0,0.0,0.0,0.0,0.0,0.0,0.0,0.0,0.0,0.0,0.0,0.0,0.0,0.0,0.0,0.0,0.0,0.0,0.0,0.0,0.0,0.0,0.0,0.0,0.0,0.0,0.0,0.0,0.0,0.0,0.0,0.0,0.0,0.0,0.0,0.0,0.0,0.0,0.0,0.0,0.0,0.0,0.0,0.0,0.0,0.0,0.0,0.0,0.0,0.0,0.0,0.0,0.0,0.0,0.0,0.0,0.0,0.0,0.0,0.0,0.0,0.0,0.0,0.0,0.0,0.0,0.0,0.0,0.0,0.0,0.0,-1.1745,-1.2731,-1.3345,-1.3611,-1.3123,-1.2825,-1.275,0.0,0.0,0.0,0.0,0.0,0.0,0.0,0.0,0.0,0.0,0.0,0.0,0.0,0.0,0.0,0.0,0.0,0.0,0.0,0.0,0.0,0.0,0.0,0.0,0.0,0.0,0.0,0.0,0.0,0.0,0.0,0.0,0.0,0.0,0.0,0.0,0.0,0.0,0.0,0.0,0.0,0.0,0.0,0.0,0.0,0.0,0.0,0.0,0.0,0.0,0.0,0.0,0.0,0.0,0.0,0.0,0.0,0.0,0.0,0.0,0.0,0.0,0.0,0.0,0.0,0.0,0.0,0.0,0.0,0.0,0.0,0.0,0.0,0.0,0.0,0.0,0.0,0.0,0.0,0.0,0.0,0.0,0.0,0.0,0.0,0.0,0.0,0.0,0.0,0.0,0.0,0.0,0.0,0.0,0.0,0.0,0.0,0.0,0.0,0.0,0.0,0.0,0.0,0.0,0.0,0.0,0.0,0.0,-1.2218,-1.3303,-1.3492,-1.2826,-1.2848,-1.2814,0.0,0.0,0.0,0.0,0.0,0.0,0.0,0.0,0.0,0.0,0.0,0.0,0.0,0.0,0.0,0.0,0.0,0.0,0.0,0.0,0.0,0.0,0.0,0.0,0.0,0.0,0.0,0.0,0.0,0.0,0.0,0.0,0.0,0.0,0.0,0.0,0.0,0.0,0.0,0.0,0.0,0.0,0.0,0.0,0.0,0.0,0.0,0.0,0.0,0.0,0.0,0.0,0.0,0.0,0.0,0.0,0.0,0.0,0.0,0.0,0.0,0.0,0.0,0.0,0.0,0.0,0.0,0.0,0.0,0.0,0.0,0.0,0.0,0.0,0.0,0.0,0.0,0.0,0.0,0.0,0.0,0.0,0.0,0.0,0.0,0.0,0.0,0.0,0.0,0.0,0.0,0.0,0.0,0.0,0.0,0.0,0.0,0.0,0.0,0.0,0.0,0.0,0.0,0.0,0.0,0.0,0.0,0.0,0.0,-1.169,-1.1993,-1.2367,-1.2781,-1.3437,-1.3435,0.0,0.0,0.0,0.0,0.0,0.0,0.0,0.0,0.0,0.0,0.0,0.0,0.0,0.0,0.0,0.0,0.0,0.0,0.0,0.0,0.0,0.0,0.0,0.0,0.0,0.0,0.0,0.0,0.0,0.0,0.0,0.0,0.0,0.0,0.0,0.0,0.0,0.0,0.0,0.0,0.0,0.0,0.0,0.0,0.0,0.0,0.0,0.0,0.0,0.0,0.0,0.0,0.0,0.0,0.0,0.0,0.0,0.0,0.0,0.0,0.0,0.0,0.0,0.0,0.0,0.0,0.0,0.0,0.0,0.0,0.0,0.0,0.0,0.0,0.0,0.0,0.0,0.0,0.0,0.0,0.0,0.0,0.0,0.0,0.0,0.0,0.0,0.0,0.0,0.0,0.0,0.0,0.0,0.0,0.0,0.0,0.0,0.0,0.0,0.0,0.0,0.0,0.0,0.0,0.0,0.0,0.0,0.0,-1.0833,-1.1804,-1.1218,-1.1162,-1.1684,-1.2909,-1.3476,0.0,0.0,0.0,0.0,0.0,0.0,0.0,0.0,0.0,0.0,0.0,0.0,0.0,0.0,0.0,0.0,0.0,0.0,0.0,0.0,0.0,0.0,0.0,0.0,0.0,0.0,0.0,0.0,0.0,0.0,0.0,0.0,0.0,0.0,0.0,0.0,0.0,0.0,0.0,0.0,0.0,0.0,0.0,0.0,0.0,0.0,0.0,0.0,0.0,0.0,0.0,0.0,0.0,0.0,0.0,0.0,0.0,0.0,0.0,0.0,0.0,0.0,0.0,0.0,0.0,0.0,0.0,0.0,0.0,0.0,0.0,0.0,0.0,0.0,0.0,0.0,0.0,0.0,0.0,0.0,0.0,0.0,0.0,0.0,0.0,0.0,0.0,0.0,0.0,0.0,0.0,0.0,0.0,0.0,0.0,0.0,0.0,0.0,0.0,0.0,0.0,0.0,0.0,0.0,0.0,0.0,0.0,0.0,-1.0366,-1.1927,-1.0757,-1.0129,-1.0245,-1.1893,-1.3144,0.0,0.0,0.0,0.0,0.0,0.0,0.0,0.0,0.0,0.0,0.0,0.0,0.0,0.0,0.0,0.0,0.0,0.0,0.0,0.0,0.0,0.0,0.0,0.0,0.0,0.0,0.0,0.0,0.0,0.0,0.0,0.0,0.0,0.0,0.0,0.0,0.0,0.0,0.0,0.0,0.0,0.0,0.0,0.0,0.0,0.0,0.0,0.0,0.0,0.0,0.0,0.0,0.0,0.0,0.0,0.0,0.0,0.0,0.0,0.0,0.0,0.0,0.0,0.0,0.0,0.0,0.0,0.0,0.0,0.0,0.0,0.0,0.0,0.0,0.0,0.0,0.0,0.0,0.0,0.0,0.0,0.0,0.0,0.0,0.0,0.0,0.0,0.0,0.0,0.0,0.0,0.0,0.0,0.0,0.0,0.0,0.0,0.0,0.0,0.0,0.0,0.0,0.0,0.0,0.0,0.0,0.0,0.0,-1.0106,-0.9949,-1.0103,-1.0209,-1.0265,-1.1921,-1.2885,0.0,0.0,0.0,0.0,0.0,0.0,0.0,0.0,0.0,0.0,0.0,0.0,0.0,0.0,0.0,0.0,0.0,0.0,0.0,0.0,0.0,0.0,0.0,0.0,0.0,0.0,0.0,0.0,0.0,0.0,0.0,0.0,0.0,0.0,0.0,0.0,0.0,0.0,0.0,0.0,0.0,0.0,0.0,0.0,0.0,0.0,0.0,0.0,0.8934,0.0,0.0,0.0,0.0,0.0,0.0,0.0,0.0,0.0,0.0,0.0,0.0,0.0,0.0,0.0,0.0,0.0,0.0,0.0,0.0,0.0,0.0,0.0,0.0,0.0,0.0,0.0,0.0,0.0,0.0,0.0,0.0,0.0,0.0,0.0,0.0,0.0,0.0,0.0,0.0,0.0,0.0,0.0,0.0,0.0,0.0,0.0,0.0,0.0,0.0,0.0,0.0,0.0,0.0,0.0,0.0,0.0,0.0,0.0,-0.9784,-0.9143,-0.9051,-0.9233,-0.9685,-1.0553,-1.1574,0.0,0.0,0.0,0.0,0.0,0.0,0.0,0.0,0.0,0.0,0.0,0.0,0.0,0.0,0.0,0.0,0.0,0.0,0.0,0.0,0.0,0.0,0.0,0.0,0.0,0.0,0.0,0.0,0.0,0.0,0.0,0.0,0.0,0.0,0.0,0.0,0.0,0.0,0.0,0.0,0.0,0.0,0.0,0.0,0.0,0.0,0.0,0.0,0.0,0.0,0.0,0.0,0.0,0.0,0.0,0.0,0.0,0.0,0.0,0.0,0.0,0.0,0.0,0.0,0.0,0.0,0.0,0.0,0.0,0.0,0.0,0.0,0.0,0.0,0.0,0.0,0.0,0.0,0.0,0.0,0.0,0.0,0.0,0.0,0.0,0.0,0.0,0.0,0.0,0.0,0.0,0.0,0.0,0.0,0.0,0.0,0.0,0.0,0.0,0.0,0.0,0.0,0.0,0.0,0.0,0.0,0.0,-0.9535,-0.9383,-0.8527,-0.7974,-0.8041,-0.8769,-0.9058,-1.0271,-1.2517,0.0,0.0,0.0,0.0,0.0,0.0,0.0,0.0,0.0,0.0,0.0,0.0,0.0,0.0,0.0,0.0,0.0,0.0,0.0,0.0,0.0,0.0,0.0,0.0,0.0,0.0,0.0,0.0,0.0,0.0,0.0,0.0,0.0,0.0,0.0,0.0,0.0,0.0,0.3471,0.4128,0.0,0.0,0.0,0.0,0.0,0.0,0.0,0.0,1.0585,0.0,0.0,0.0,0.0,0.0,0.0,0.0,0.0,0.0,0.0,0.0,0.0,0.0,0.0,0.0,0.0,0.0,0.0,0.0,0.0,0.0,0.0,0.0,0.0,0.0,0.0,0.0,0.0,0.0,0.0,0.0,0.0,0.0,0.0,0.0,0.0,0.0,0.0,0.0,0.0,0.0,0.0,0.0,0.0,0.0,0.0,0.0,0.0,0.0,0.0,0.0,0.0,0.0,0.0,0.0,0.0,-0.7835,-0.9114,-0.8794,-0.6793,-0.7376,-0.7756,-0.7948,-0.9334,-1.0623,-1.1698,0.0,0.0,0.0,0.0,0.0,0.0,0.0,0.0,0.0,0.0,0.0,0.0,0.0,0.0,0.0,0.0,0.0,0.0,0.0,0.0,0.0,0.0,0.0,0.0,0.0,0.0,0.0,0.0,0.0,0.0,0.0,0.0,0.0,0.0,0.0,0.0,0.0,0.0,0.0,0.3288,0.3331,0.0,0.0,0.0,0.0,0.0,0.0,0.0,0.0,1.0158,0.0,0.0,0.0,0.0,0.0,0.0,0.0,0.0,0.0,0.0,0.0,0.0,0.0,0.0,0.0,0.0,0.0,0.0,0.0,0.0,0.0,0.0,0.0,0.0,0.0,0.0,0.0,0.0,0.0,0.0,0.0,0.0,0.0,0.0,0.0,0.0,0.0,0.0,0.0,0.0,0.0,0.0,0.0,0.0,0.0,0.0,0.0,0.0,0.0,0.0,0.0,0.0,0.0,0.0,0.0,-0.7727,-0.8147,-0.7484,-0.5755,-0.6119,-0.6556,-0.7026,-0.8274,-0.9757,0.0,0.0,0.0,0.0,0.0,0.0,0.0,0.0,0.0,0.0,0.0,0.0,0.0,0.0,0.0,0.0,0.0,0.0,0.0,0.0,0.0,0.0,0.0,0.0,0.0,0.0,0.0,0.0,0.0,0.0,0.0,0.0,0.0,0.0,0.0,0.0,0.0,0.0,0.0,0.0,0.2362,0.2648,0.2905,0.0,0.0,0.0,0.0,0.0,0.0,0.9692,0.9869,0.0,0.0,0.0,0.0,0.0,0.0,0.0,0.0,0.0,0.0,0.0,0.0,0.0,0.0,0.0,0.0,0.0,0.0,0.0,0.0,0.0,0.0,0.0,0.0,0.0,0.0,0.0,0.0,0.0,0.0,0.0,0.0,0.0,0.0,0.0,0.0,0.0,0.0,0.0,0.0,0.0,0.0,0.0,0.0,0.0,0.0,0.0,0.0,0.0,0.0,0.0,0.0,0.0,0.0,0.0,-0.7834,-0.7293,-0.6377,-0.5145,-0.5098,-0.5434,-0.6139,-0.7507,-0.9186,0.0,0.0,0.0,0.0,0.0,0.0,0.0,0.0,0.0,0.0,0.0,0.0,0.0,0.0,0.0,0.0,0.0,0.0,0.0,0.0,0.0,0.0,0.0,0.0,0.0,0.0,0.0,0.0,0.0,0.0,0.0,0.0,0.0,0.0,0.0,0.0,0.0,0.0,0.0,0.0,0.0,0.205,0.2262,0.2891,0.0,0.0,0.0,0.0,0.9002,0.9295,0.0,0.0,0.0,0.0,0.0,0.0,0.0,0.0,0.0,0.0,0.0,0.0,0.0,0.0,0.0,0.0,0.0,0.0,0.0,0.0,0.0,0.0,0.0,0.0,0.0,0.0,0.0,0.0,0.0,0.0,0.0,0.0,0.0,0.0,0.0,0.0,0.0,0.0,0.0,0.0,0.0,0.0,0.0,0.0,0.0,0.0,0.0,0.0,0.0,0.0,0.0,0.0,0.0,0.0,0.0,0.0,-0.779,-0.7294,-0.6365,-0.5085,-0.507,-0.5152,-0.5297,-0.8327,-1.0141,0.0,0.0,0.0,0.0,0.0,0.0,0.0,0.0,0.0,0.0,0.0,0.0,0.0,0.0,0.0,0.0,0.0,0.0,0.0,0.0,0.0,0.0,0.0,0.0,0.0,0.0,0.0,0.0,0.0,0.0,0.0,0.0,0.0,0.0,0.0,0.0,0.0,0.0,0.0,0.0,0.0,0.1431,0.1286,0.1884,0.298,0.0,0.0,0.5087,0.8516,0.8709,0.0,0.0,0.0,0.0,0.0,0.0,0.0,0.0,0.0,0.0,0.0,0.0,0.0,0.0,0.0,0.0,0.0,0.0,0.0,0.0,0.0,0.0,0.0,0.0,0.0,0.0,0.0,0.0,0.0,0.0,0.0,0.0,0.0,0.0,0.0,0.0,0.0,0.0,0.0,0.0,0.0,0.0,0.0,0.0,0.0,0.0,0.0,0.0,0.0,0.0,0.0,0.0,0.0,0.0,0.0,-0.6739,-0.7694,-0.637,-0.5433,-0.5029,-0.5057,-0.5087,-0.5101,-0.8477,-1.0313,0.0,0.0,0.0,0.0,0.0,0.0,0.0,0.0,0.0,0.0,0.0,0.0,0.0,0.0,0.0,0.0,0.0,0.0,0.0,0.0,0.0,0.0,0.0,0.0,0.0,0.0,0.0,0.0,0.0,0.0,0.0,0.0,0.0,0.0,0.0,0.0,0.0,0.0,0.0,0.0,0.0,0.0,0.0793,0.0933,0.0,0.0,0.0,0.3847,0.6748,0.0,0.0,0.0,0.0,0.0,0.0,0.0,0.0,0.0,0.0,0.0,0.0,0.0,0.0,0.0,0.0,0.0,0.0,0.0,0.0,0.0,0.0,0.0,0.0,0.0,0.0,0.0,0.0,0.0,0.0,0.0,0.0,0.0,0.0,0.0,0.0,0.0,0.0,0.0,0.0,0.0,0.0,0.0,0.0,0.0,0.0,0.0,0.0,0.0,0.0,0.0,0.0,0.0,0.0,0.0,0.0,0.0,-0.7644,-0.5651,-0.4692,-0.4946,-0.5013,-0.5059,-0.514,-0.819,0.0,0.0,0.0,0.0,0.0,0.0,0.0,0.0,0.0,0.0,0.0,0.0,0.0,0.0,0.0,0.0,0.0,0.0,0.0,0.0,0.0,0.0,0.0,0.0,0.0,0.0,0.0,0.0443,0.0,0.0,0.0,0.0,0.0,0.0,0.0,0.0,0.0,0.0,0.0,0.0,0.0,0.0,0.0623,0.0541,0.019,0.0349,0.0,0.0,0.27,0.483,0.5507,0.6199,0.0,0.0,0.0,0.0,0.0,0.0,0.0,0.0,0.0,0.0,0.0,0.0,0.0,0.0,0.0,0.0,0.0,0.0,0.0,0.0,0.0,0.0,0.0,0.0,0.0,0.0,0.0,0.0,0.0,0.0,0.0,0.0,0.0,0.0,0.0,0.0,0.0,0.0,0.0,0.0,0.0,0.0,0.0,0.0,0.0,0.0,0.0,0.0,0.0,0.0,0.0,0.0,0.0,0.0,0.0,-0.7459,-0.5554,-0.4621,-0.4804,-0.4875,-0.494,-0.5046,-0.736,-0.9121,0.0,0.0,0.0,0.0,0.0,0.0,0.0,0.0,0.0,0.0,0.0,0.0,0.0,0.0,0.0,0.0,0.0,0.0,0.0,0.0,0.0,0.0,0.0,0.0,0.0,0.0,0.0,0.0,0.0,0.0,0.0,0.0,0.0,0.0,0.0,0.0,0.0,0.0,0.0,0.0,0.0,0.0328,0.0556,-0.0152,-0.0244,0.0,0.0,0.1565,0.3214,0.4077,0.4831,0.5648,0.0,0.0,0.0,0.0,0.0,0.0,0.0,0.0,0.0,0.0,0.0,0.0,0.0,0.0,0.0,0.0,0.0,0.0,0.0,0.0,0.0,0.0,0.0,0.0,0.0,0.0,0.0,0.0,0.0,0.0,0.0,0.0,0.0,0.0,0.0,0.0,0.0,0.0,0.0,0.0,0.0,0.0,0.0,0.0,0.0,0.0,0.0,0.0,0.0,0.0,0.0,0.0,0.0,-0.5622,-0.7606,-0.5979,-0.5031,-0.4824,-0.5353,-0.5433,-0.5015,-0.7237,-0.8976,0.0,0.0,0.0,0.0,0.0,0.0,0.0,0.0,0.0,0.0,0.0,0.0,0.0,0.0,0.0,0.0,0.0,0.0,0.0,0.0,0.0,0.0,0.0,0.0,0.0,0.0,0.0,0.0,0.2129,0.2721,0.3063,0.0,0.0,0.0,0.0,0.0,0.0,0.0,0.0,0.0,0.0,-0.0421,-0.0302,-0.0576,0.0,0.0,0.0779,0.1426,0.2352,0.2996,0.3542,0.4059,0.4998,0.0,0.0,0.0,0.0,0.0,0.0,0.0,0.0,0.0,0.0,0.0,0.0,0.0,0.0,0.0,0.0,0.0,0.0,0.0,0.0,0.0,0.0,0.0,0.0,0.0,0.0,0.0,0.0,0.0,0.0,0.0,0.0,0.0,0.0,0.0,0.0,0.0,0.0,0.0,0.0,0.0,0.0,0.0,0.0,0.0,0.0,0.0,0.0,0.0,0.0,0.0,0.0,-0.5533,-0.7607,-0.5957,-0.5116,-0.5153,-0.5742,-0.5955,-0.576,-0.6769,-0.8231,0.0,0.0,0.0,0.0,0.0,0.0,0.0,0.0,0.0,0.0,0.0,0.0,0.0,0.0,0.0,0.0,0.0,0.0,0.0,0.0,0.0,0.0,0.0,0.0,0.0,0.0,0.0,0.0,0.2214,0.2847,0.3563,0.0,0.0,0.0,0.0,0.0,0.0,0.0,0.0,0.0,0.0,-0.0872,-0.0726,-0.075,-0.07,-0.0545,0.022,0.088,0.0998,0.1488,0.1989,0.2536,0.0,0.0,0.0,0.0,0.0,0.0,0.0,0.0,0.0,0.0,0.0,0.0,0.0,0.0,0.0,0.0,0.0,0.0,0.0,0.0,0.0,0.0,0.0,0.0,0.0,0.0,0.0,0.0,0.0,0.0,-0.6712,0.0,0.0,0.0,0.0,0.0,0.0,0.0,0.0,0.0,0.0,0.0,0.0,0.0,0.0,0.0,0.0,0.0,0.0,0.0,0.0,0.0,0.0,-0.5526,-0.7444,-0.5373,-0.4775,-0.5916,-0.5993,-0.6468,-0.7238,-0.5774,-0.6561,-1.004,0.0,0.0,0.0,0.0,0.0,0.0,0.0,0.0,0.0,0.0,0.0,0.0,0.0,0.0,0.0,0.0,0.0,0.0,0.0,0.0,0.0,0.0,0.0,0.0,0.0,0.0,0.2276,0.2686,0.2689,0.0,0.0,0.0,0.0,0.0,0.0,0.0,0.0,0.0,0.0,-0.0521,-0.0805,-0.058,-0.0583,-0.0779,-0.1198,-0.0588,-0.033,-0.0955,-0.0585,0.0113,0.0,0.0,0.0,0.0,0.0,0.0,0.0,0.0,0.0,0.0,0.0,0.0,0.0,0.0,0.0,0.0,0.0,0.0,0.0,0.0,0.0,0.0,0.0,0.0,0.0,0.0,0.0,-1.025,-1.0037,0.0,0.0,0.0,0.0,0.0,0.0,0.0,0.0,0.0,0.0,0.0,-1.2071,-1.1597,0.0,0.0,0.0,0.0,0.0,0.0,0.0,0.0,0.0,0.0,0.0,0.0,-0.6505,-0.812,-0.6621,-0.603,-0.6589,-0.7299,-0.7577,-0.7359,-0.7942,-0.9358,-1.1656,0.0,0.0,0.0,0.0,0.0,0.0,0.0,0.0,0.0,0.0,0.0,0.0,0.0,0.0,0.0,0.0,0.0,0.0,0.0,0.0,0.0,0.0,0.0,0.0,0.0,-0.0201,0.0,0.0,0.0,0.0,0.0,0.0,0.0,0.0,0.0,0.0,0.0,-0.0389,-0.0739,-0.1648,-0.2128,-0.168,-0.1584,-0.1501,0.0,0.0,0.0,0.0,0.0,0.0,0.0,0.0,0.0,0.0,0.0,0.0,0.0,0.0,0.4576,0.5692,0.624,0.6569,0.6611,0.0,0.0,0.0,0.0,0.0,0.0,0.0,0.0,0.0,0.0,0.0,0.0,0.0,0.0,-1.2163,0.0,-1.1763,0.0,0.0,0.0,0.0,0.0,0.0,0.0,0.0,-1.2376,-1.3114,-1.3529,-1.3098,-1.3113,0.0,-1.2527,-1.1424,0.0,0.0,0.0,0.0,0.0,0.0,0.0,0.0,-0.7474,-0.8703,-0.7372,-0.6854,-0.7358,-0.8089,-0.8545,-0.8623,-0.9511,-1.0815,-1.2546,-1.0633,-1.0675,0.0,0.0,0.0,0.0,0.0,0.0,0.0,0.0,0.0,0.0,0.0,0.0,0.0,0.0,0.0,0.0,0.0,0.0,0.0,0.0,0.0,0.0,0.0,-0.1568,0.0,0.0,0.0,0.0,0.0,0.0,0.0,0.0,0.0,0.0098,-0.0851,-0.1708,-0.1846,-0.2649,-0.3001,-0.2406,0.0,0.0,0.0,0.0,0.0,0.0,0.0,-0.2554,-0.2764,-0.2463,-0.227,-0.2379,-0.1313,-0.0283,0.0239,0.0,0.0,0.3842,0.475,0.522,0.5505,0.6304,0.7001,0.7123,0.7211,0.7357,0.0,0.0,0.0,0.0,0.0,0.0,0.0,0.0,-1.5097,-1.44,0.0,-1.44,0.0,0.0,0.0,0.0,0.0,-1.3059,0.0,0.0,-1.4924,-1.5142,-1.4329,-1.4298,-1.4267,-1.4267,-1.4221,-1.3852,-1.306,-1.0357,0.0,0.0,0.0,0.0,0.0,0.0,-0.8304,-0.9023,-0.7529,-0.7213,-0.818,-0.8429,-0.9375,-1.1016,-1.0342,-1.0725,-1.2259,-0.9882,-0.9691,-1.2273,-1.0856,0.0,0.0,0.0,0.0,0.0,0.0,0.0,0.0,0.0,0.0,0.0,0.0,0.0,0.0,0.0,0.0,0.0,0.0,0.0,0.0,-0.0742,0.0,0.0,0.0,0.0,0.0,0.0,0.0,0.0,0.0,0.0,-0.2376,-0.2798,-0.3141,-0.3177,0.0,0.0,0.0,0.0,-0.2445,-0.3584,-0.3405,-0.3428,-0.439,-0.4194,-0.3862,-0.3565,0.0,0.0,-0.3115,-0.3234,-0.3026,-0.2197,-0.1707,-0.0658,0.2053,0.2938,0.3407,0.368,0.4477,0.5155,0.539,0.5545,0.5754,-1.8551,0.0,0.0,0.0,0.0,-1.7143,-1.7862,-1.8748,-1.8538,-1.8037,-1.7347,-1.7004,0.0,0.0,0.0,0.0,0.0,0.0,-1.4429,-1.4745,-1.5283,-1.5827,-1.6317,-1.5841,-1.561,-1.5622,-1.5134,-1.455,-1.3898,-1.3083,-1.186,-1.0331,0.0,0.0,0.0,0.0,-0.8663,-0.905,-0.7911,-0.78,-0.8809,-0.9089,-1.0066,-1.1834,-1.0007,-0.9171,-0.951,-0.9577,-0.9572,-0.9525,-0.8714,0.0,0.0,0.0,0.0,0.0,0.0,0.0,0.0,0.0,0.0,0.0,0.0,0.0,0.0,0.0,0.0,0.0,0.0,0.0,-0.1907,-0.1267,-0.1719,0.0,0.0,0.0,0.0,0.0,0.0,0.0,0.0,0.0,-0.5945,-0.4839,-0.415,0.0,0.0,-0.5016,-0.4575,-0.463,-0.4747,-0.4953,-0.5153,0.0,-0.5545,-0.5498,-0.5439,-0.5514,-0.5183,-0.4769,-0.4472,-0.3949,-0.3509,-0.3358,-0.2869,-0.2163,-0.1248,0.029,0.1445,0.2079,0.2753,0.3492,0.413,0.4394,0.4652,-2.2591,-2.1187,-1.9596,-1.9081,-1.9341,-1.9695,-2.0255,-2.0897,-2.0593,-2.0044,-1.9333,-1.9198,-1.7799,-1.5475,-1.5261,0.0,0.0,0.0,-1.602,-1.6557,-1.6678,-1.7049,-1.7546,-1.7193,-1.684,-1.6563,-1.6207,-1.5503,-1.4606,-1.4606,-1.3781,-1.224,0.0,0.0,-1.0599,-1.0076,-0.9931,-1.0129,-0.9389,-0.9332,-0.9955,-1.0231,-1.0738,-1.1378,-1.0152,-0.9561,-0.975,-0.9263,-0.9157,-0.9519,-0.8442,-0.8731,0.0,0.0,0.0,0.0,0.0,0.0,0.0,0.0,0.0,0.0,0.0,-0.3604,-0.2542,0.0,0.0,0.0,-0.2822,-0.3152,-0.2871,-0.2778,0.0,0.0,0.0,0.0,0.0,0.0,0.0,-0.621,-0.7343,-0.822,-0.8229,-0.7185,-0.6313,-0.6098,-0.6464,-0.6618,-0.6286,0.0,-0.6482,-0.6466,-0.6661,-0.6802,-0.6794,-0.6623,-0.6488,-0.6526,-0.6032,-0.5586,-0.5392,-0.4858,-0.4542,-0.4441,-0.387,-0.3319,-0.3314,-0.1992,-0.0622,0.0216,0.0801,0.1418,0.2211,0.2725,0.3179,-2.635,-2.5988,-2.2487,-2.125,-2.1591,-2.1632,-2.197,-2.2412,-2.1735,-2.0974,-2.0238,-2.0889,-1.9823,-1.7453,-1.6907,0.0,-1.7962,-1.7757,-1.7977,-1.8652,-1.8652,-1.8547,-1.8361,-1.8361,-1.8023,-1.7377,-1.7362,-1.6671,-1.5422,-1.5349,-1.495,-1.4206,-1.3575,-1.2913,-1.221,-1.187,-1.167,-1.1511,-1.1313,-1.1257,-1.1284,-1.1539,-1.1276,-1.0528,-1.0723,-1.1132,-1.1645,-0.8934,-0.847,-1.0746,-0.9333,-0.945,-1.1696,0.0,0.0,0.0,0.0,0.0,0.0,0.0,0.0,0.0,0.0,0.0,0.0,0.0,0.0,0.0,-0.3784,0.0,-0.2867,-0.4834,0.0,0.0,0.0,-0.7181,-0.7059,-0.8558,-0.9245,-0.8471,0.0,0.0,-0.954,-0.9563,-0.9183,-0.8184,-0.8163,-0.8162,-0.7887,-0.7749,-0.7799,-0.8038,-0.7936,-0.7913,-0.8073,-0.7654,-0.7247,-0.7055,-0.6349,-0.596,-0.5998,-0.5846,-0.5768,-0.5561,-0.4765,-0.4162,-0.4427,-0.369,-0.2876,-0.1724,-0.1263,-0.0813,-0.0106,0.0687,0.1425,-2.8351,-2.7782,-2.6885,-2.5549,-2.4093,-2.4505,-2.4445,-2.4041,-2.3795,-2.297,-2.1752,-2.1346,-2.036,-1.8953,-1.8371,-1.8224,-1.8395,-1.8189,-1.8455,-1.9121,-1.9137,-1.935,-1.9777,-1.9826,-1.9439,-1.884,-1.8809,-1.8084,-1.6778,-1.6717,-1.5856,-1.4267,-1.4036,-1.3375,-1.2257,-1.2122,-1.1671,-1.0849,-1.0797,-1.0941,-1.1284,-1.1373,-1.1607,-1.2043,-1.1539,-1.0846,-0.9977,-0.8643,-0.7434,-0.651,-0.8345,-0.9108,-0.842,-0.8514,0.0,0.0,0.0,0.0,0.0,0.0,0.0,0.0,0.0,-0.4755,-0.4653,0.0,-0.7188,0.0,-0.6368,-0.6058,-0.4247,-0.575,0.0,0.0,-0.7923,-0.8902,-0.982,-1.0597,-1.0743,-0.9907,-1.0465,-1.0923,-1.0923,-1.0923,-1.0978,-1.1009,-0.976,-0.8906,-0.9167,-0.889,-0.8854,-0.9337,-0.9236,-0.9127,-0.9192,-0.8627,-0.8142,-0.8185,-0.7271,-0.6682,-0.6981,-0.6235,-0.5733,-0.6035,-0.546,-0.4978,-0.5049,-0.4605,-0.4066,-0.3533,-0.2962,-0.234,-0.1782,-0.1003,-0.0299,-2.9575,-2.8868,-2.8541,-2.7457,-2.5979,-2.6219,-2.5942,-2.5343,-2.5135,-2.4371,-2.3207,-2.1984,-2.1221,-2.0695,-1.9937,-1.9657,-1.9777,-1.9335,-1.9346,-1.9734,-1.9749,-1.995,-2.0304,-2.0304,-1.995,-1.9302,-1.9287,-1.8715,-1.7685,-1.7654,-1.6916,-1.5575,-1.5518,-1.4842,-1.3559,-1.2743,-1.2042,-1.1454,-1.1953,-1.2191,-1.2114,-1.2188,-1.2466,-1.2919,-1.2258,-1.1686,-1.1234,-1.0188,-0.937,-0.8903,-0.8732,-0.8448,-0.8015,-0.9022,-0.9727,0.0,0.0,0.0,0.0,0.0,0.0,0.0,0.0,0.0,0.0,0.0,-0.9363,-0.9367,-0.9873,-0.9382,-0.7374,-0.8257,-0.8969,-0.8993,-0.9766,-1.064,-1.156,-1.191,-1.1856,-1.1385,-1.1686,-1.1942,-1.1942,-1.1942,-1.2013,-1.2283,-1.1147,-1.0331,-1.0435,-1.0259,-1.0186,-1.033,-1.0161,-0.994,-0.9761,-0.915,-0.8664,-0.8482,-0.7816,-0.7244,-0.7148,-0.6698,-0.6323,-0.629,-0.5748,-0.537,-0.5507,-0.5058,-0.4579,-0.44,-0.3945,-0.3432,-0.3032,-0.225,-0.1601,-3.0386,-2.9592,-2.8851,-2.8077,-2.7356,-2.7203,-2.6875,-2.6368,-2.5913,-2.5212,-2.4255,-2.2545,-2.1946,-2.2102,-2.1213,-2.0908,-2.1137,-2.0566,-2.0304,-2.0304,-2.0304,-2.0304,-2.0304,-2.0304,-1.9996,-1.9441,-1.9425,-1.9071,-1.8345,-1.833,-1.7946,-1.7224,-1.7208,-1.6517,-1.5191,-1.3617,-1.2738,-1.2641,-1.3635,-1.3826,-1.3213,-1.331,-1.3363,-1.3329,-1.2964,-1.2934,-1.3257,-1.2176,-1.2082,-1.3049,-0.9526,-0.7958,-0.9117,-1.1639,-1.2058,0.0,-1.0383,0.0,0.0,0.0,0.0,0.0,0.0,0.0,0.0,-0.9124,-1.1015,-1.2336,-1.307,-1.2657,-1.0715,-1.1198,-1.1497,-1.1166,-1.1859,-1.2467,-1.273,-1.28,-1.281,-1.2696,-1.2733,-1.277,-1.2817,-1.2866,-1.2914,-1.2938,-1.2537,-1.2093,-1.1889,-1.1616,-1.1209,-1.0946,-1.0818,-1.0524,-1.0064,-0.9554,-0.9133,-0.872,-0.8187,-0.7645,-0.7174,-0.7065,-0.6975,-0.6538,-0.6012,-0.5724,-0.5921,-0.5364,-0.4887,-0.4828,-0.4554,-0.4186,-0.3812,-0.3143,-0.26,-3.1162,-3.0403,-2.9627,-2.8682,-2.7675,-2.7394,-2.712,-2.6905,-2.6187,-2.5033,-2.3604,-2.2341,-2.1713,-2.1455,-2.1006,-2.0707,-2.0489,-2.0366,-2.0304,-2.0304,-2.0304,-2.0304,-2.0304,-2.0304,-2.0243,-2.0119,-2.0104,-1.9765,-1.9102,-1.9102,-1.8454,-1.7224,-1.7208,-1.6532,-1.5226,0.0,0.0,0.0,-1.3682,-1.38,-1.3654,-1.331,-1.3155,-1.3172,-1.3783,0.0,-1.177,-1.1824,-1.1271,-0.9979,-0.916,0.0,0.0,0.0,0.0,0.0,0.0,0.0,0.0,0.0,0.0,0.0,-1.4619,-1.3805,-1.2827,-1.3233,-1.3316,-1.2716,-1.2788,-1.2296,-1.0915,-1.2321,-1.2711,-1.1376,-1.3305,-1.4493,-1.3723,-1.3931,-1.3924,-1.3173,-1.3513,-1.3813,-1.3838,-1.42,-1.445,-1.4387,-1.4012,-1.3766,-1.3802,-1.2419,-1.1453,-1.1341,-1.12,-1.1052,-1.0878,-1.0391,-0.9925,-0.9801,-0.8766,-0.8074,-0.7991,-0.7164,-0.6762,-0.6911,-0.6602,-0.6183,-0.6269,-0.5953,-0.55,-0.5126,-0.4972,-0.4731,-0.4048,-0.3628,-0.3368,-3.1903,0.0,-3.042,-2.954,0.0,-2.8078,-2.7784,-2.7683,-2.6862,-2.5777,-2.4516,-2.336,-2.2849,-2.2797,-2.2086,-2.18,-2.1769,-2.1106,-2.0813,-2.0782,-2.0458,-2.0304,-2.0304,-2.0304,-2.0304,-2.0304,-2.0304,-2.0135,-1.9811,-1.978,-1.9271,-1.8223,-1.8223,-1.7805,-1.6936,-1.6503,-1.5577,-1.42,-1.4517,-1.4521,-1.4169,-1.4383,-1.4308,-1.3962,-1.4529,0.0,0.0,0.0,0.0,0.0,0.0,0.0,0.0,-1.37,0.0,-1.2558,-1.3052,-1.3425,-1.361,-1.5205,-1.6357,-1.6781,-1.7578,-1.7329,-1.5621,-1.5248,-1.5029,-1.4873,-1.4857,-1.4417,-1.35,-1.4298,-1.4501,-1.3622,-1.4734,-1.5351,-1.4867,-1.4919,-1.4849,-1.4472,-1.4606,-1.4798,-1.4798,-1.5017,-1.5184,-1.5184,-1.4978,-1.4739,-1.4511,-1.2997,-1.1729,-1.1516,-1.1384,-1.126,-1.1174,-1.0579,-1.0046,-0.9723,-0.8921,-0.814,-0.7717,-0.719,-0.6835,-0.6827,-0.6498,-0.6316,-0.6308,-0.612,-0.582,-0.5571,-0.5383,-0.5138,-0.4587,-0.4191,-0.3886,-3.2679,-3.1921,-3.1196,-3.0351,-2.9455,-2.8851,-2.8523,-2.8334,0.0,0.0,0.0,-2.4462,-2.4031,-2.4168,-2.3211,-2.292,-2.3025,-2.1978,-2.147,-2.1424,-2.0798,-2.0551,-2.0659,-2.0535,-2.0489,-2.0489,-2.0474,-2.0412,-2.0304,-2.0304,-2.0027,-1.9533,-1.9538,-1.9437,-1.911,-1.826,-1.7027,-1.5565,-1.5521,-1.5222,-1.4664,-1.5479,-1.5586,-1.4847,-1.5201,-1.5329,-1.5213,-1.508,-1.5428,-1.6298,-1.6663,-1.6753,-1.6604,-1.5945,-1.5381,-1.4956,-1.4577,-1.4419,-1.4528,-1.632,-1.7532,-1.7731,-1.93,-1.9435,-1.7383,-1.6701,-1.6621,-1.7222,-1.7188,-1.684,-1.6147,-1.6214,-1.62,-1.5975,-1.5968,-1.5968,-1.5838,-1.5731,-1.559,-1.5513,-1.5565,-1.5657,-1.5657,-1.5774,-1.58,-1.5787,-1.571,-1.5452,-1.4815,-1.3492,-1.2241,-1.1784,-1.1594,-1.1502,-1.1314,-1.0761,-1.0013,-0.9693,-0.9035,-0.8189,-0.7442,-0.7181,-0.6971,-0.655,-0.6376,-0.6323,-0.6284,-0.6153,-0.5944,-0.5882,-0.5734,-0.5491,-0.5201,-0.475,-0.4366,-3.3455,-3.2679,-3.1955,-3.0817,-2.9489,-2.9403,-2.8989,-2.8282,-2.6745,-2.6014,-2.578,-2.4494,-2.3752,-2.3525,-2.3004,-2.2655,-2.2409,-2.2224,-2.2147,-2.2101,-2.1491,-2.1476,-2.1963,-2.1409,-2.1147,-2.1168,-2.1132,-2.0875,-2.0366,-2.0304,-2.0243,-2.02,-2.0454,-2.0671,-2.0779,-1.9073,-1.8004,-1.7713,-1.6122,-1.5211,-1.5119,-1.5663,-1.5632,-1.4983,-1.572,-1.583,-1.523,-1.5408,-1.5354,-1.5152,-1.7462,-1.8346,-1.7336,-1.5185,-1.4537,-1.5978,-1.5729,-1.5527,-1.5711,-1.7991,-1.9546,-1.9811,-2.015,-2.0004,-1.9349,-1.8899,-1.8544,-1.831,-1.7944,-1.7463,-1.6844,-1.7128,-1.7153,-1.6566,-1.6886,-1.6916,-1.6324,-1.6253,-1.6073,-1.5629,-1.5957,-1.6271,-1.6297,-1.6624,-1.6859,-1.6859,-1.6441,-1.5945,-1.5093,-1.4081,-1.314,-1.234,-1.2045,-1.1843,-1.1513,-1.1228,-1.076,-1.0492,-0.9596,-0.8839,-0.8246,-0.7501,-0.6959,-0.6764,-0.6543,-0.6376,-0.6307,-0.6276,-0.6145,-0.5975,-0.5859,-0.5758,-0.5484,-0.5169,-0.4909,-3.4249,-3.3473,-3.2714,-3.1765,-3.0731,-3.0317,-2.9696,-2.8887,-2.8065,-2.7229,-2.6413,-2.5497,-2.4903,-2.4495,-2.4121,-2.3717,-2.3379,-2.2994,-2.284,-2.2778,-2.2147,-2.1993,-2.224,-2.2,-2.1824,-2.1809,-2.1476,-2.1152,-2.0844,-2.0489,-2.0304,-2.0369,-2.1225,-2.1359,-2.075,-2.0413,-1.9653,-1.8594,-1.7437,-1.6824,-1.6809,-1.7049,-1.7031,-1.6705,-1.7258,-1.7406,-1.7059,-1.6594,-1.6779,-1.7684,-1.7627,-1.7979,-1.885,-1.7273,-1.6707,-1.7509,-1.7264,-1.7277,-1.7723,-1.9202,-2.0133,-2.0289,-2.0304,-2.022,-2.0061,-1.9654,-1.9087,-1.8293,-1.8189,-1.7985,-1.7475,-1.7865,-1.7903,-1.7349,-1.7638,-1.7531,-1.6792,-1.6797,-1.6679,-1.6179,-1.6507,-1.6833,-1.682,-1.7042,-1.7199,-1.7146,-1.6741,-1.6203,-1.5774,-1.4926,-1.4047,-1.3168,-1.2534,-1.2117,-1.1817,-1.1313,-1.0882,-1.0442,-0.9681,-0.8973,-0.845,-0.7676,-0.729,-0.7047,-0.6876,-0.6755,-0.6604,-0.6573,-0.6452,-0.6183,-0.6114,-0.6021,-0.5765,-0.5515,-0.5207,-3.4904,-3.4024,-3.3421,-3.2645,-3.1731,-3.0817,-3.0144,-2.966,-2.9332,-2.8681,-2.7692,-2.6768,-2.6036,-2.5481,-2.5203,-2.4914,-2.4498,-2.3994,-2.3763,-2.3671,-2.2902,-2.2578,-2.2732,-2.2732,-2.2671,-2.2532,-2.227,-2.1901,-2.1337,-2.0936,-2.0763,-2.0892,-2.1873,-2.2052,-2.1448,-2.1696,-2.1227,-1.9891,-1.9137,-1.864,-1.8331,-1.8609,-1.8716,-1.8529,-1.8821,-1.8956,-1.8779,-1.8035,-1.8342,-1.9761,-1.8121,-1.8076,-1.9987,-1.9265,-1.874,-1.8822,-1.8424,-1.8531,-1.924,-1.9765,-2.0135,-2.0289,-2.0304,-2.027,-2.015,-1.9975,-1.942,-1.8514,-1.8514,-1.85,-1.8266,-1.8436,-1.8514,-1.8228,-1.8232,-1.7973,-1.7312,-1.733,-1.7247,-1.6864,-1.7006,-1.724,-1.724,-1.7199,-1.7133,-1.695,-1.6741,-1.6591,-1.6414,-1.5726,-1.5031,-1.4311,-1.3247,-1.2355,-1.2168,-1.1516,-1.0891,-1.0414,-0.9763,-0.9118,-0.8527,-0.8058,-0.7637,-0.7373,-0.7225,-0.7107,-0.6927,-0.6837,-0.6695,-0.646,-0.6345,-0.6183,-0.5921,-0.5734,-0.546,-3.537,-3.4162,-3.4007,-3.311,-3.1714,-3.0282,-3.0041,-3.0419,-2.9607,-2.957,-2.9753,-2.7988,-2.6529,-2.561,-2.5743,-2.5634,-2.5226,-2.5164,-2.5133,-2.4979,-2.381,-2.3533,-2.4102,-2.4117,-2.3794,-2.344,-2.4256,-2.3502,-2.1599,-2.1877,-2.2113,-2.2197,-2.2362,-2.3193,-2.4271,-2.2867,-2.2166,-2.2663,-2.1295,-1.9941,-1.8817,-1.9902,-2.0218,-1.9487,-1.989,-1.9935,-1.9548,-1.9398,-1.9332,-1.9341,-1.9694,-2.0005,-2.0173,-1.9311,-1.9007,-1.9578,-1.8781,-1.8514,-1.9225,-1.9348,-1.9688,-2.0227,-2.0304,-2.0166,-1.9869,-2.0096,-2.0045,-1.953,-1.9199,-1.9026,-1.8988,-1.9026,-1.9026,-1.8874,-1.8581,-1.8252,-1.8101,-1.776,-1.7449,-1.7422,-1.7368,-1.7404,-1.7297,-1.7136,-1.695,-1.6611,-1.6702,-1.6753,-1.658,-1.6195,-1.6044,-1.5696,-1.4362,-1.2809,-1.2253,-1.1767,-1.122,-1.0753,-1.0175,-0.952,-0.8932,-0.8268,-0.7686,-0.7715,-0.7462,-0.7285,-0.7166,-0.6978,-0.6829,-0.6695,-0.649,-0.6222,-0.5983,-0.589,-0.5742,-3.5697,-3.4749,-3.4731,-3.3852,-3.2386,-3.13,-3.0988,-3.1173,-3.0751,-3.0472,-3.0194,-2.9286,-2.8379,-2.7454,-2.7113,-2.6593,-2.5993,-2.5949,-2.6164,-2.6426,-2.5549,-2.5272,-2.5503,-2.5533,-2.5164,-2.4518,-2.4671,-2.4164,-2.3203,-2.2798,-2.267,-2.2817,-2.3536,-2.3983,-2.39,-2.4,-2.3652,-2.2649,-2.2247,-2.1632,-2.0957,-2.0996,-2.095,-2.0675,-2.0784,-2.0833,-2.0629,-2.0719,-2.0659,-2.0462,-2.0372,-2.0486,-2.0854,-1.9904,-1.9656,-2.0273,-1.9791,-1.9595,-1.9873,-1.9888,-1.9996,-2.0304,-2.0304,-2.0235,-2.008,-2.02,-2.0235,-2.0045,-1.969,-1.9384,-1.9176,-1.9325,-1.9362,-1.9139,-1.8898,-1.8641,-1.8278,-1.8096,-1.7879,-1.7525,-1.765,-1.7505,-1.697,-1.6481,-1.6271,-1.6258,-1.6362,-1.6362,-1.6675,-1.6102,-1.5663,-1.5615,-1.4332,-1.3309,-1.2912,-1.2073,-1.1369,-1.0805,-1.0037,-0.9327,-0.9126,-0.8584,-0.807,-0.8099,-0.7938,-0.7734,-0.7588,-0.7423,-0.7237,-0.6948,-0.6543,-0.6245,-0.6145,-0.6145,-0.6083,-3.599,-3.5508,-3.5283,-3.4421,-3.3197,-3.2662,-3.2383,-3.2238,-3.1948,-3.1564,-3.1147,-3.0658,-3.0089,-2.9508,-2.8621,-2.7849,-2.7191,-2.7025,-2.7303,-2.7796,-2.7072,-2.6765,-2.6919,-2.6934,-2.6565,-2.5933,-2.5656,-2.5207,-2.4678,-2.3687,-2.3304,-2.3651,-2.466,-2.4811,-2.4135,-2.4996,-2.4558,-2.3195,-2.2899,-2.262,-2.2345,-2.1869,-2.1554,-2.1554,-2.1493,-2.1462,-2.1554,-2.1622,-2.1638,-2.1554,-2.1108,-2.1075,-2.1488,-2.0791,-2.0495,-2.0715,-2.0509,-2.0304,-2.0304,-2.0304,-2.0304,-2.0304,-2.0304,-2.0304,-2.0304,-2.0304,-2.0304,-2.027,-2.001,-1.9726,-1.9545,-1.969,-1.9726,-1.9472,-1.9362,-1.9053,-1.8687,-1.845,-1.8078,-1.7712,-1.7543,-1.7413,-1.669,-1.6323,-1.631,-1.6389,-1.6232,-1.6075,-1.6675,-1.6006,-1.5453,-1.5633,-1.4588,-1.3716,-1.3391,-1.2301,-1.1331,-1.0587,-0.9798,-0.9206,-0.9066,-0.8563,-0.8308,-0.8251,-0.8317,-0.8261,-0.7997,-0.7851,-0.7607,-0.7095,-0.6665,-0.646,-0.6452,-0.6399,-0.6307,-3.6266,-3.6146,-3.5473,-3.4749,-3.4042,-3.3938,-3.3938,-3.3727,-3.2929,-3.2884,-3.3066,-3.18,-3.1254,-3.1295,-3.0131,-2.9371,-2.8917,-2.8465,-2.8688,-2.9166,-2.8027,-2.7734,-2.8288,-2.8304,-2.7965,-2.7427,-2.7734,-2.724,-2.5873,-2.4655,-2.4299,-2.5012,-2.5447,-2.5898,-2.605,-2.5221,-2.4699,-2.4622,-2.3258,-2.2541,-2.2698,-2.2421,-2.218,-2.218,-2.1945,-2.1915,-2.2152,-2.1932,-2.1932,-2.2225,-2.2141,-2.2175,-2.2209,-2.1866,-2.1383,-2.0844,-2.0509,-2.0304,-2.0304,-2.0304,-2.0304,-2.0304,-2.0304,-2.0304,-2.0304,-2.0304,-2.0304,-2.0304,-2.027,-2.0185,-2.0166,-2.015,-2.02,-2.0166,-1.9869,-1.9645,-1.9615,-1.876,-1.8194,-1.7913,-1.717,-1.6624,-1.6556,-1.7036,-1.6731,-1.6586,-1.6783,-1.6885,-1.6506,-1.6323,-1.6166,-1.5892,-1.514,-1.4085,-1.2901,-1.2059,-1.1182,-1.0431,-0.9807,-0.9066,-0.8706,-0.8404,-0.8393,-0.841,-0.8553,-0.8536,-0.8371,-0.8136,-0.7841,-0.7402,-0.6954,-0.6747,-0.6656,-0.646,-0.6345,-3.6284,-3.6215,-3.549,-3.5025,-3.4749,-3.43,-3.4076,-3.4007,-3.311,-3.2804,-3.2758,-3.1771,-3.1562,-3.2009,-3.1328,-3.0573,-2.9769,-2.9723,-3.0058,-3.052,-2.975,-2.9473,-2.9673,-2.9689,-2.9518,-2.9201,-2.9051,-2.8435,-2.7395,-2.6661,-2.636,-2.649,-2.6841,-2.6842,-2.6367,-2.6065,-2.5741,-2.5239,-2.4013,-2.3407,-2.3357,-2.2518,-2.2094,-2.2282,-2.218,-2.218,-2.2299,-2.2197,-2.218,-2.2299,-2.2327,-2.2327,-2.2282,-2.1991,-2.1509,-2.0877,-2.0695,-2.0527,-2.0339,-2.0304,-2.0304,-2.0304,-2.0304,-2.0304,-2.0304,-2.0304,-2.0304,-2.0304,-2.0304,-2.0304,-2.0304,-2.0304,-2.0304,-2.0235,-1.9955,-1.9833,-1.9909,-1.9501,-1.8969,-1.8346,-1.7004,-1.5868,-1.5894,-1.5542,-1.5432,-1.586,-1.6099,-1.6284,-1.635,-1.6101,-1.5748,-1.5251,-1.4598,-1.3826,-1.3201,-1.2273,-1.1413,-1.059,-0.9841,-0.9226,-0.8739,-0.8559,-0.8488,-0.852,-0.8662,-0.875,-0.8553,-0.8183,-0.7911,-0.7694,-0.7246,-0.6978,-0.6807,-0.6604,-0.6429,-3.6525,-3.6284,-3.6042,-3.5766,-3.5508,-3.5007,-3.48,-3.4714,-3.3888,-3.3482,-3.3208,-3.2423,-3.2292,-3.2572,-3.2302,-3.1774,-3.099,-3.0865,-3.1089,-3.1643,-3.1259,-3.1182,-3.1366,-3.1397,-3.1223,-3.0848,-3.0174,-2.9611,-2.9187,-2.8731,-2.8378,-2.8202,-2.8224,-2.7666,-2.6835,-2.6788,-2.6493,-2.5688,-2.4792,-2.4199,-2.3786,-2.2867,-2.2295,-2.2316,-2.2327,-2.2327,-2.2327,-2.2327,-2.2327,-2.2327,-2.2327,-2.2327,-2.2282,-2.1991,-2.154,-2.1039,-2.086,-2.0662,-2.0373,-2.0304,-2.0304,-2.0304,-2.0304,-2.0304,-2.0304,-2.0304,-2.0304,-2.0304,-2.0304,-2.0304,-2.0304,-2.0304,-2.0304,-2.027,-2.0061,-2.001,-2.0235,-1.9847,-1.9065,-1.8085,-1.7067,-1.6194,-1.5721,-1.5353,-1.5437,-1.5781,-1.5938,-1.6232,-1.6297,-1.5879,-1.5382,-1.4912,-1.4324,-1.3851,-1.3425,-1.2817,-1.2077,-1.1246,-1.029,-0.9566,-0.8987,-0.8805,-0.8683,-0.8676,-0.8699,-0.8784,-0.8616,-0.8253,-0.8016,-0.785,-0.7608,-0.7305,-0.7068,-0.6747,-0.6656,-3.6973,-3.6439,-3.7129,-3.6853,-3.6232,-3.6111,-3.6215,-3.6008,-3.5322,-3.4785,-3.4531,-3.3911,-3.3515,-3.3439,-3.3264,-3.3,-3.2901,-3.2237,-3.2037,-3.2461,-3.2508,-3.2786,-3.3274,-3.3284,-3.2927,-3.2338,-3.1341,-3.114,-3.1434,-3.059,-3.0106,-2.9985,-2.9377,-2.8738,-2.784,-2.7453,-2.6889,-2.6154,-2.541,-2.4663,-2.3951,-2.3502,-2.2975,-2.2462,-2.2361,-2.2327,-2.2327,-2.2327,-2.2327,-2.2327,-2.2327,-2.2327,-2.2254,-2.1974,-2.1661,-2.1308,-2.1007,-2.0695,-2.0392,-2.0339,-2.0339,-2.0339,-2.0304,-2.0304,-2.0304,-2.0304,-2.0304,-2.0304,-2.0304,-2.0304,-2.0304,-2.0304,-2.0304,-2.0304,-2.0235,-2.027,-2.0162,-1.9703,-1.8696,-1.7467,-1.7215,-1.7116,-1.655,-1.6473,-1.6628,-1.6473,-1.6713,-1.681,-1.6376,-1.5852,-1.5526,-1.516,-1.4454,-1.378,-1.3641,-1.3408,-1.2739,-1.1997,-1.0978,-1.0091,-0.9557,-0.921,-0.9131,-0.9097,-0.9244,-0.9308,-0.8958,-0.859,-0.8286,-0.808,-0.784,-0.7608,-0.7364,-0.7127,-0.7008,-3.6525,-3.6335,-3.6542,-3.6542,-3.6284,-3.6284,-3.6284,-3.6215,-3.5483,-3.515,-3.4974,-3.4643,-3.4687,-3.4986,-3.5027,-3.5268,-3.5678,-3.5065,-3.4409,-3.3889,-3.4227,-3.4423,-3.4526,-3.458,-3.4265,-3.355,-3.3078,-3.2908,-3.2862,-3.224,-3.1817,-3.1523,-3.0869,-3.0142,-2.9293,-2.8238,-2.7463,-2.7177,-2.6051,-2.5262,-2.4975,-2.3958,-2.3291,-2.3038,-2.2581,-2.2327,-2.2327,-2.2327,-2.2327,-2.2327,-2.2327,-2.2327,-2.2254,-2.1991,-2.1768,-2.1615,-2.1339,-2.1119,-2.0991,-2.0778,-2.0628,-2.0595,-2.0426,-2.0304,-2.0304,-2.032,-2.032,-2.032,-2.0304,-2.0304,-2.0304,-2.0304,-2.0304,-2.0304,-2.0304,-2.0304,-2.0243,-1.9734,-1.9146,-1.8604,-1.8074,-1.7593,-1.7344,-1.7388,-1.7228,-1.7074,-1.7205,-1.7043,-1.6175,-1.5847,-1.5181,-1.4502,-1.3991,-1.3834,-1.3708,-1.3576,-1.3172,-1.2517,-1.1622,-1.0741,-1.0159,-0.989,-0.9746,-0.9666,-0.9807,-0.9644,-0.9288,-0.8905,-0.8574,-0.8262,-0.7994,-0.7811,-0.7686,-0.7511,-0.7305,-3.6284,-3.6284,-3.6284,-3.6284,-3.6284,-3.6284,-3.6284,-3.6232,-3.5818,-3.5683,-3.5814,-3.5762,-3.6041,-3.6451,-3.6467,-3.6655,-3.7002,-3.6803,-3.6319,-3.5819,-3.5886,-3.6001,-3.5752,-3.5266,-3.5064,-3.4627,-3.4079,-3.4027,-3.4363,-3.374,-3.3268,-3.3017,-3.2104,-3.1224,-3.048,-2.933,-2.8448,-2.7791,-2.6877,-2.6184,-2.5558,-2.4695,-2.4069,-2.3748,-2.3105,-2.275,-2.2699,-2.2462,-2.2327,-2.2327,-2.2327,-2.2327,-2.2282,-2.2094,-2.1915,-2.1797,-2.1601,-2.1432,-2.1308,-2.1103,-2.0974,-2.0909,-2.0695,-2.0649,-2.0724,-2.0624,-2.0366,-2.0628,-2.0458,-2.0304,-2.0304,-2.0304,-2.0304,-2.0304,-2.0304,-2.0304,-2.0227,-1.9934,-1.9549,-1.919,-1.8755,-1.8305,-1.7966,-1.79,-1.7641,-1.7534,-1.7553,-1.736,-1.6453,-1.5982,-1.5256,-1.4602,-1.4279,-1.4066,-1.3834,-1.367,-1.35,-1.2949,-1.2303,-1.1495,-1.08,-1.0787,-1.0704,-1.0552,-1.0588,-1.0152,-0.9788,-0.9135,-0.8712,-0.8421,-0.8195,-0.808,-0.7927,-0.7656,-0.7481,-3.6422,-3.6353,-3.6318,-3.6284,-3.6284,-3.6284,-3.6284,-3.6284,-3.6249,-3.6449,-3.685,-3.6847,-3.7257,-3.7655,-3.7402,-3.7369,-3.7317,-3.7604,-3.7867,-3.7923,-3.7761,-3.7486,-3.7175,-3.6163,-3.5826,-3.5778,-3.4797,-3.4697,-3.5532,-3.4958,-3.4573,-3.4353,-3.3051,-3.2087,-3.1444,-3.0598,-2.9364,-2.845,-2.7958,-2.713,-2.5947,-2.5659,-2.527,-2.4543,-2.3799,-2.3342,-2.3207,-2.2665,-2.2327,-2.2327,-2.2327,-2.2327,-2.2327,-2.2299,-2.2077,-2.1857,-2.1827,-2.1661,-2.1432,-2.137,-2.1339,-2.1308,-2.1055,-2.1128,-2.1537,-2.1114,-2.0833,-2.1213,-2.0914,-2.0543,-2.0466,-2.0481,-2.0466,-2.0373,-2.0373,-2.0304,-2.0304,-2.0212,-1.9857,-1.9502,-1.9317,-1.9085,-1.8529,-1.8579,-1.835,-1.8086,-1.8084,-1.7861,-1.7208,-1.6578,-1.5972,-1.5367,-1.4695,-1.4259,-1.4007,-1.3795,-1.3611,-1.3115,-1.2665,-1.2201,-1.152,-1.1495,-1.1492,-1.1351,-1.1124,-1.0682,-1.0108,-0.9429,-0.8949,-0.8673,-0.8505,-0.8375,-0.8195,-0.7945,-0.7801,-3.768,-3.7129,-3.6542,-3.6284,-3.6284,-3.6284,-3.6301,-3.6284,-3.6284,-3.6414,-3.6603,-3.6908,-3.7467,-3.8091,-3.8398,-3.8756,-3.9026,-3.9243,-3.9394,-3.9564,-3.9462,-3.9008,-3.8556,-3.7936,-3.7481,-3.7261,-3.6723,-3.6666,-3.6485,-3.618,-3.5791,-3.5267,-3.3846,-3.3305,-3.3288,-3.1309,-3.0345,-3.0125,-2.9144,-2.823,-2.7317,-2.6623,-2.6048,-2.5304,-2.4272,-2.363,-2.3359,-2.2699,-2.2327,-2.2327,-2.2327,-2.2327,-2.2282,-2.2094,-2.2036,-2.2123,-2.1961,-2.1886,-2.1945,-2.1781,-2.1691,-2.1661,-2.1355,-2.1488,-2.2165,-2.2035,-2.1836,-2.1884,-2.1925,-2.1717,-2.1007,-2.107,-2.1219,-2.1021,-2.0581,-2.0292,-2.0227,-1.9873,-1.9641,-1.9903,-1.9564,-1.9364,-1.9451,-1.9523,-1.9394,-1.9081,-1.8882,-1.8716,-1.7705,-1.6973,-1.6271,-1.564,-1.5031,-1.4542,-1.4138,-1.3921,-1.3638,-1.3187,-1.2953,-1.2884,-1.2328,-1.2032,-1.1997,-1.192,-1.157,-1.1148,-1.0351,-0.9589,-0.9274,-0.8976,-0.8949,-0.8866,-0.8628,-0.8393,-0.8223,-3.8801,-3.8336,-3.7594,-3.7077,-3.6818,-3.6801,-3.6611,-3.6335,-3.6284,-3.6465,-3.6706,-3.6987,-3.7485,-3.8138,-3.873,-3.9022,-3.9225,-3.98,-3.9884,-3.9665,-3.9901,-3.9631,-3.9005,-3.8546,-3.8156,-3.7889,-3.7584,-3.7178,-3.6823,-3.6789,-3.6349,-3.5537,-3.4455,-3.4117,-3.4201,-3.2341,-3.1004,-3.0903,-2.977,-2.8738,-2.8298,-2.7232,-2.681,-2.6201,-2.5169,-2.4036,-2.3146,-2.2841,-2.2677,-2.2412,-2.2327,-2.2327,-2.2299,-2.2123,-2.2123,-2.2265,-2.2123,-2.2106,-2.2225,-2.2123,-2.217,-2.2262,-2.1953,-2.2277,-2.2965,-2.2916,-2.2328,-2.2577,-2.293,-2.2351,-2.1406,-2.1374,-2.1472,-2.123,-2.0687,-2.0363,-2.0481,-1.9803,-1.9566,-1.961,-1.9348,-1.8931,-1.9377,-1.9439,-1.9323,-1.9031,-1.8597,-1.8298,-1.7768,-1.7142,-1.6589,-1.5994,-1.5386,-1.4875,-1.4588,-1.4332,-1.4138,-1.3658,-1.3406,-1.3363,-1.309,-1.2679,-1.2569,-1.2437,-1.2049,-1.15,-1.0649,-0.9937,-0.9567,-0.9381,-0.9408,-0.9274,-0.9003,-0.885,-0.8684,-3.9888,-3.975,-3.8922,-3.8163,-3.7525,-3.7542,-3.7094,-3.6404,-3.6456,-3.6706,-3.6972,-3.7055,-3.7308,-3.7989,-3.8336,-3.8413,-3.8041,-3.914,-3.9242,-3.9276,-3.9546,-3.9698,-3.9005,-3.8684,-3.843,-3.8278,-3.7449,-3.7297,-3.7263,-3.7094,-3.6518,-3.5774,-3.4945,-3.459,-3.4353,-3.3017,-3.2002,-3.141,-3.0226,-2.9381,-2.8991,-2.8044,-2.7571,-2.73,-2.5996,-2.4567,-2.3539,-2.3187,-2.3158,-2.2508,-2.2361,-2.2327,-2.2327,-2.2282,-2.2282,-2.2282,-2.2282,-2.2282,-2.2327,-2.2299,-2.2519,-2.2798,-2.227,-2.267,-2.3802,-2.3325,-2.2736,-2.3078,-2.3437,-2.2769,-2.1711,-2.1419,-2.1315,-2.1021,-2.0429,-2.0331,-2.0385,-1.9733,-1.9134,-1.918,-1.8577,-1.8176,-1.8192,-1.8176,-1.8237,-1.8648,-1.8392,-1.8323,-1.7921,-1.7394,-1.6934,-1.6518,-1.5874,-1.5253,-1.5011,-1.4808,-1.4574,-1.4292,-1.406,-1.3912,-1.3749,-1.3441,-1.3265,-1.2972,-1.2295,-1.1638,-1.0964,-1.0409,-0.99,-0.9724,-0.9698,-0.954,-0.9354,-0.9259,-0.9124,-4.1147,-4.0526,-3.9163,-3.8163,-3.7646,-3.8077,-3.756,-3.6353,-3.6939,-3.6904,-3.6578,-3.6423,-3.6825,-3.7404,-3.7478,-3.7539,-3.7797,-3.8258,-3.8227,-3.8362,-3.9512,-3.9597,-3.9242,-3.9276,-3.9546,-3.9462,-3.9445,-3.9022,-3.8514,-3.777,-3.7263,-3.6434,-3.5267,-3.4793,-3.4996,-3.3389,-3.256,-3.2544,-3.1427,-3.0328,-2.9888,-2.9397,-2.8672,-2.7912,-2.65,-2.5589,-2.4851,-2.3977,-2.3471,-2.3198,-2.2688,-2.231,-2.231,-2.2327,-2.2327,-2.2327,-2.2327,-2.2327,-2.2327,-2.2327,-2.2395,-2.2569,-2.2461,-2.2618,-2.3523,-2.3499,-2.3095,-2.3205,-2.344,-2.3127,-2.1993,-2.1949,-2.1573,-2.08,-2.018,-1.986,-1.9621,-1.8786,-1.8369,-1.8436,-1.8035,-1.7592,-1.81,-1.8069,-1.81,-1.8176,-1.819,-1.831,-1.7927,-1.7409,-1.7194,-1.6823,-1.6524,-1.5949,-1.5549,-1.5262,-1.4918,-1.4718,-1.4529,-1.4351,-1.4189,-1.3868,-1.3565,-1.304,-1.2385,-1.1728,-1.0946,-1.0598,-1.0072,-1.0046,-0.9969,-0.9828,-0.9698,-0.9632,-0.9446,-4.2351,-4.1767,-3.9905,-3.8681,-3.8077,-3.8025,-3.7387,-3.6508,-3.6732,-3.6697,-3.6387,-3.6251,-3.6406,-3.6713,-3.6825,-3.6961,-3.6949,-3.7276,-3.7787,-3.8413,-3.9292,-3.9512,-3.9631,-3.9834,-4.0087,-4.0087,-4.0037,-3.9665,-3.8988,-3.8278,-3.7499,-3.6772,-3.5588,-3.5284,-3.5351,-3.3744,-3.3119,-3.2882,-3.163,-3.0598,-3.0581,-2.9892,-2.9,-2.7828,-2.6817,-2.623,-2.5554,-2.468,-2.4018,-2.354,-2.2858,-2.2366,-2.2338,-2.231,-2.231,-2.2327,-2.2327,-2.2327,-2.2327,-2.2344,-2.2462,-2.2767,-2.253,-2.3004,-2.3444,-2.363,-2.3334,-2.3331,-2.3639,-2.3692,-2.2658,-2.2643,-2.213,-2.1437,-2.0881,-2.0665,-2.0134,-1.886,-1.7884,-1.8095,-1.763,-1.7417,-1.7503,-1.7628,-1.7492,-1.7335,-1.7116,-1.7226,-1.7333,-1.6937,-1.7258,-1.7106,-1.7014,-1.6667,-1.6204,-1.5757,-1.5238,-1.5027,-1.4873,-1.4686,-1.4543,-1.4151,-1.3688,-1.3055,-1.2387,-1.1448,-1.0729,-1.0469,-1.0325,-1.0224,-1.0148,-1.0097,-1.0046,-0.9944,-0.9646,-4.3145,-4.2852,-4.0612,-3.9215,-3.8439,-3.8025,-3.7318,-3.6387,-3.6577,-3.6697,-3.6318,-3.6251,-3.62,-3.6216,-3.6563,-3.631,-3.6118,-3.653,-3.7445,-3.8004,-3.8868,-3.9206,-3.9495,-3.98,-4.0087,-4.0087,-4.0087,-3.9698,-3.9174,-3.843,-3.7885,-3.7005,-3.6226,-3.5802,-3.5351,-3.4261,-3.3499,-3.3431,-3.171,-3.0879,-3.1167,-3.0309,-2.9141,-2.8237,-2.7463,-2.7031,-2.6323,-2.5489,-2.4658,-2.3927,-2.305,-2.2603,-2.2422,-2.2377,-2.2338,-2.2338,-2.2338,-2.2366,-2.2349,-2.2372,-2.2575,-2.3202,-2.2699,-2.2852,-2.3562,-2.346,-2.3161,-2.3376,-2.3617,-2.3786,-2.3173,-2.297,-2.2682,-2.2124,-2.1972,-2.1718,-2.1063,-1.9518,-1.8816,-1.8022,-1.7561,-1.7183,-1.7008,-1.697,-1.6723,-1.6559,-1.6375,-1.636,-1.6576,-1.6853,-1.73,-1.7654,-1.7638,-1.7152,-1.6653,-1.6053,-1.5566,-1.5389,-1.5239,-1.5088,-1.4862,-1.4382,-1.386,-1.3065,-1.2292,-1.148,-1.0873,-1.0625,-1.0468,-1.039,-1.0287,-1.0237,-1.0212,-1.0212,-0.988,-4.2785,-4.2043,-4.0388,-3.8922,-3.7956,-3.8784,-3.806,-3.6732,-3.756,-3.7439,-3.6404,-3.6259,-3.6259,-3.6285,-3.6251,-3.6139,-3.6093,-3.6497,-3.6724,-3.7097,-3.8133,-3.8984,-3.8834,-3.9714,-4.0104,-4.0087,-4.0121,-4.0002,-3.9715,-3.9174,-3.8343,-3.7742,-3.6978,-3.6401,-3.5545,-3.4466,-3.3955,-3.3998,-3.2406,-3.1781,-3.173,-3.124,-3.0478,-2.9557,-2.868,-2.8042,-2.7577,-2.6499,-2.5485,-2.4775,-2.3904,-2.3175,-2.2679,-2.2515,-2.246,-2.2432,-2.2449,-2.2432,-2.2432,-2.246,-2.2483,-2.2558,-2.2462,-2.2383,-2.2677,-2.2649,-2.2649,-2.2767,-2.3054,-2.3071,-2.1746,-2.244,-2.2175,-2.1566,-2.1262,-2.0974,-2.1083,-2.0589,-1.981,-1.889,-1.7895,-1.7034,-1.7009,-1.6956,-1.6917,-1.6966,-1.6921,-1.7055,-1.7327,-1.7543,-1.7868,-1.8161,-1.8406,-1.7731,-1.703,-1.6408,-1.5854,-1.5799,-1.5639,-1.5477,-1.5213,-1.4703,-1.407,-1.371,-1.2918,-1.2028,-1.1441,-1.0952,-1.061,-1.044,-1.0389,-1.0312,-1.0262,-1.0199,-1.0046,-4.2337,-4.175,-3.9526,-3.8387,-3.8077,-3.7905,-3.7818,-3.7508,-3.7439,-3.7232,-3.687,-3.6508,-3.6259,-3.6233,-3.6208,-3.6105,-3.6156,-3.6256,-3.6372,-3.6701,-3.784,-3.8676,-3.8577,-3.9696,-4.0069,-4.0238,-4.0288,-4.0221,-4.0036,-3.9425,-3.8761,-3.801,-3.7296,-3.661,-3.5854,-3.4849,-3.4406,-3.4252,-3.3356,-3.2427,-3.2085,-3.1384,-3.0859,-3.0418,-2.961,-2.8851,-2.818,-2.7321,-2.6052,-2.5062,-2.4116,-2.3378,-2.2863,-2.2605,-2.2552,-2.2497,-2.2515,-2.2515,-2.2487,-2.2487,-2.2504,-2.2477,-2.2422,-2.2377,-2.2366,-2.2372,-2.2327,-2.2412,-2.2508,-2.2621,-2.1993,-2.2785,-2.2852,-2.218,-2.1976,-2.2,-2.1712,-2.1075,-2.0422,-1.9781,-1.9227,-1.8444,-1.7443,-1.7363,-1.7277,-1.7316,-1.7395,-1.7644,-1.7971,-1.839,-1.8639,-1.8781,-1.8951,-1.8253,-1.7486,-1.6739,-1.6128,-1.5998,-1.5942,-1.5812,-1.5608,-1.5124,-1.5124,-1.5067,-1.4041,-1.2728,-1.1912,-1.1357,-1.0933,-1.0528,-1.0414,-1.0324,-1.0274,-1.0199,-1.0046,-4.2123,-4.1543,-3.8991,-3.818,-3.8336,-3.7318,-3.7473,-3.818,-3.7353,-3.7129,-3.7318,-3.6697,-3.6259,-3.6191,-3.6165,-3.6122,-3.6036,-3.6129,-3.6416,-3.6735,-3.7887,-3.8687,-3.903,-3.9861,-4.0337,-4.0337,-4.0436,-4.0387,-4.0153,-3.9778,-3.901,-3.824,-3.7507,-3.6819,-3.6053,-3.5181,-3.4806,-3.4618,-3.4086,-3.3156,-3.2046,-3.1382,-3.1025,-3.0959,-3.03,-2.9673,-2.9155,-2.8328,-2.7089,-2.5868,-2.4775,-2.388,-2.3081,-2.2771,-2.2632,-2.2552,-2.2542,-2.2542,-2.2542,-2.2542,-2.2654,-2.285,-2.2545,-2.2518,-2.2564,-2.2508,-2.231,-2.2321,-2.2383,-2.2456,-2.2466,-2.3414,-2.3488,-2.3153,-2.3311,-2.3701,-2.2609,-2.1837,-2.1295,-2.0829,-2.0534,-1.9572,-1.8259,-1.7508,-1.7346,-1.7407,-1.7476,-1.7773,-1.8203,-1.9256,-1.959,-1.9562,-1.9406,-1.8718,-1.793,-1.7102,-1.6506,-1.6083,-1.6055,-1.5955,-1.5841,-1.5622,-1.5697,-1.5638,-1.4776,-1.3529,-1.2635,-1.1717,-1.1144,-1.0724,-1.0478,-1.0324,-1.0299,-1.0199,-1.0072,-4.2566,-4.0922,-3.9853,-3.9112,-3.8629,-3.8336,-3.837,-3.8577,-3.8301,-3.7974,-3.7525,-3.668,-3.6301,-3.6259,-3.6105,-3.6122,-3.6285,-3.6471,-3.6485,-3.6559,-3.8082,-3.8713,-3.8567,-3.9822,-4.04,-4.0485,-4.0534,-4.0436,-4.0184,-4.0146,-3.9559,-3.8528,-3.8031,-3.7528,-3.62,-3.553,-3.5494,-3.5658,-3.4726,-3.3645,-3.2924,-3.2838,-3.2458,-3.2072,-3.1623,-3.1105,-3.058,-2.9814,-2.8736,-2.7082,-2.6243,-2.516,-2.3874,-2.3013,-2.2771,-2.2685,-2.2685,-2.2685,-2.2659,-2.2659,-2.2856,-2.3086,-2.2973,-2.2942,-2.2875,-2.2621,-2.2321,-2.2377,-2.2405,-2.2432,-2.246,-2.2671,-2.2926,-2.3017,-2.3073,-2.3299,-2.2784,-2.2074,-2.1596,-2.1059,-2.0517,-1.9698,-1.8626,-1.7946,-1.7395,-1.7477,-1.7659,-1.8055,-1.8627,-1.9777,-2.0063,-1.9925,-1.9514,-1.884,-1.7929,-1.7161,-1.6657,-1.6154,-1.6111,-1.6067,-1.5955,-1.587,-1.5885,-1.565,-1.4935,-1.4299,-1.3357,-1.2422,-1.1463,-1.1053,-1.0999,-1.0686,-1.0312,-1.0212,-1.0225,-4.2625,-4.115,-3.9697,-3.9146,-3.9146,-3.8784,-3.9112,-3.9508,-3.8508,-3.8025,-3.7853,-3.6801,-3.6284,-3.6259,-3.6174,-3.6449,-3.6784,-3.6688,-3.6661,-3.6761,-3.8066,-3.8665,-3.8738,-3.9778,-4.0583,-4.068,-4.0611,-4.0336,-4.012,-3.9829,-3.938,-3.8534,-3.795,-3.7274,-3.6379,-3.5924,-3.6191,-3.604,-3.5133,-3.4082,-3.3713,-3.3211,-3.2738,-3.2621,-3.2392,-3.2036,-3.1533,-3.12,-2.9875,-2.8347,-2.773,-2.6658,-2.49,-2.413,-2.4103,-2.3315,-2.3059,-2.2859,-2.2738,-2.2729,-2.2995,-2.3246,-2.3281,-2.3374,-2.3044,-2.2671,-2.2405,-2.246,-2.2487,-2.2542,-2.2672,-2.2963,-2.2997,-2.301,-2.2926,-2.2819,-2.2745,-2.2214,-2.1614,-2.1073,-2.0517,-1.9807,-1.9177,-1.87,-1.825,-1.8268,-1.8799,-1.9557,-1.9975,-2.0668,-2.0596,-2.0036,-1.9465,-1.8799,-1.7784,-1.6886,-1.6563,-1.6182,-1.6194,-1.6151,-1.6067,-1.6011,-1.6039,-1.5983,-1.5604,-1.4885,-1.403,-1.3354,-1.2633,-1.2097,-1.1621,-1.1249,-1.0933,-1.0742,-1.0664,-4.2044,-4.1089,-3.9546,-3.9198,-3.9612,-3.8905,-3.9198,-3.9974,-3.856,-3.7991,-3.7853,-3.6922,-3.6284,-3.6284,-3.6293,-3.6492,-3.7051,-3.6664,-3.6689,-3.7195,-3.7882,-3.847,-3.8911,-3.9905,-4.0599,-4.0866,-4.0695,-4.0372,-3.9859,-3.9385,-3.8937,-3.8301,-3.7774,-3.712,-3.6609,-3.6291,-3.6433,-3.6742,-3.5825,-3.5065,-3.4606,-3.3793,-3.3268,-3.3019,-3.2911,-3.2745,-3.2217,-3.2092,-3.0962,-2.9762,-2.9333,-2.8269,-2.6437,-2.6092,-2.5729,-2.5033,-2.4584,-2.403,-2.3614,-2.3319,-2.3275,-2.3628,-2.368,-2.3833,-2.2723,-2.2497,-2.2515,-2.2515,-2.2569,-2.2579,-2.2708,-2.3158,-2.3017,-2.2946,-2.2959,-2.2767,-2.2558,-2.2254,-2.1984,-2.1613,-2.1025,-2.0264,-1.9748,-1.9393,-1.9174,-1.9089,-1.9807,-2.0767,-2.1167,-2.1375,-2.1062,-2.0458,-1.9871,-1.9167,-1.8084,-1.7197,-1.6707,-1.6292,-1.6277,-1.6222,-1.6151,-1.6163,-1.6191,-1.6136,-1.608,-1.5669,-1.4964,-1.4394,-1.3826,-1.2992,-1.2269,-1.1915,-1.1609,-1.1388,-1.1018,-4.0565,-4.0418,-3.9861,-3.9606,-3.964,-3.8905,-3.8708,-3.8984,-3.8622,-3.8025,-3.7473,-3.6697,-3.6284,-3.6301,-3.6268,-3.6311,-3.6449,-3.685,-3.686,-3.7014,-3.7562,-3.8545,-3.9049,-3.9614,-4.0262,-4.0996,-4.0639,-4.0237,-3.9964,-3.9059,-3.8602,-3.8105,-3.7683,-3.7265,-3.6946,-3.6719,-3.6713,-3.7058,-3.6701,-3.6167,-3.5577,-3.4942,-3.4537,-3.3581,-3.3559,-3.3542,-3.3183,-3.3074,-3.2419,-3.1063,-3.0876,-2.9868,-2.8371,-2.8139,-2.7594,-2.6712,-2.6292,-2.5758,-2.5204,-2.4584,-2.4704,-2.5213,-2.4976,-2.3943,-2.2777,-2.2542,-2.2525,-2.2579,-2.2605,-2.2649,-2.2676,-2.271,-2.277,-2.2884,-2.2936,-2.284,-2.2701,-2.2566,-2.2313,-2.2101,-2.1525,-2.0704,-2.0196,-1.9864,-1.9519,-1.9418,-1.9579,-2.0524,-2.1187,-2.1418,-2.1342,-2.0944,-2.0397,-1.9634,-1.8651,-1.7827,-1.6984,-1.6611,-1.6532,-1.6382,-1.6246,-1.6301,-1.6448,-1.6382,-1.6285,-1.6102,-1.5887,-1.5284,-1.4572,-1.3617,-1.2986,-1.2862,-1.2185,-1.1609,-1.1207,-4.0402,-4.0312,-3.9394,-3.9324,-3.9722,-3.9188,-3.8955,-3.8825,-3.8226,-3.7491,-3.6784,-3.6439,-3.6284,-3.6318,-3.6404,-3.6844,-3.7516,-3.7352,-3.7551,-3.7932,-3.8495,-3.8808,-3.9068,-3.9225,-3.9579,-4.0394,-4.0024,-3.9429,-3.9142,-3.8806,-3.8472,-3.8073,-3.7757,-3.7506,-3.7261,-3.7283,-3.7411,-3.734,-3.7291,-3.6762,-3.6363,-3.5273,-3.477,-3.4483,-3.3808,-3.3478,-3.304,-3.3359,-3.2666,-3.2083,-3.2128,-3.1048,-2.9764,-2.9718,-2.917,-2.8038,-2.7648,-2.7335,-2.7056,-2.616,-2.5525,-2.4812,-2.423,-2.333,-2.2737,-2.2632,-2.2649,-2.2659,-2.2659,-2.2712,-2.2685,-2.2685,-2.2729,-2.2825,-2.2884,-2.2892,-2.2841,-2.2756,-2.2504,-2.2245,-2.1712,-2.1011,-2.0637,-2.0313,-1.9983,-1.9722,-1.9917,-2.0204,-2.081,-2.1187,-2.1,-2.07,-2.0124,-1.9328,-1.8345,-1.7674,-1.7125,-1.6939,-1.6753,-1.6659,-1.6554,-1.6686,-1.6789,-1.6659,-1.6581,-1.6496,-1.6311,-1.5995,-1.5354,-1.4504,-1.4185,-1.4079,-1.3197,-1.2071,-1.1576,-3.9888,-3.9799,-3.8994,-3.8902,-3.9252,-3.8966,-3.8678,-3.8265,-3.7741,-3.7215,-3.6646,-3.6646,-3.6801,-3.6922,-3.7042,-3.7473,-3.8207,-3.827,-3.833,-3.845,-3.8552,-3.88,-3.8866,-3.8971,-3.9258,-3.9888,-3.9603,-3.9088,-3.8956,-3.8726,-3.8524,-3.8301,-3.8,-3.7862,-3.7739,-3.7931,-3.802,-3.7825,-3.7706,-3.7298,-3.6939,-3.5879,-3.4925,-3.4871,-3.4211,-3.344,-3.279,-3.2635,-3.2423,-3.2305,-3.236,-3.1978,-3.1133,-3.0509,-3.0394,-2.9344,-2.854,-2.8572,-2.8258,-2.7451,-2.5974,-2.5156,-2.3971,-2.3275,-2.2859,-2.2799,-2.285,-2.2943,-2.2884,-2.2799,-2.2799,-2.285,-2.2893,-2.3003,-2.313,-2.3159,-2.3124,-2.3069,-2.2695,-2.2362,-2.1925,-2.1747,-2.1182,-2.0823,-2.0226,-1.9957,-1.9942,-2.0061,-2.0306,-2.0508,-2.0363,-1.9999,-1.9503,-1.8658,-1.778,-1.7501,-1.7246,-1.7071,-1.6942,-1.6993,-1.6952,-1.7068,-1.7043,-1.6866,-1.6815,-1.6866,-1.6725,-1.6459,-1.6009,-1.5442,-1.5131,-1.4733,-1.421,-1.3147,-1.2374,-3.8786,-3.8744,-3.87,-3.8524,-3.8294,-3.8151,-3.758,-3.6967,-3.7326,-3.7508,-3.7422,-3.7474,-3.7871,-3.8269,-3.8218,-3.846,-3.8669,-3.8866,-3.8671,-3.8168,-3.8403,-3.8638,-3.8661,-3.8747,-3.8961,-3.9896,-3.9518,-3.896,-3.9064,-3.8794,-3.8674,-3.8632,-3.8483,-3.8368,-3.8101,-3.8101,-3.8047,-3.8026,-3.8355,-3.8065,-3.7491,-3.6575,-3.576,-3.5174,-3.41,-3.3201,-3.2467,-3.1751,-3.1696,-3.2192,-3.2504,-3.2331,-3.1994,-3.2049,-3.1528,-3.01,-2.9954,-2.93,-2.805,-2.711,-2.6145,-2.5262,-2.4095,-2.3528,-2.3177,-2.3102,-2.3116,-2.3177,-2.3116,-2.3077,-2.3077,-2.3077,-2.3077,-2.3212,-2.3343,-2.3458,-2.3446,-2.3379,-2.3046,-2.2841,-2.2825,-2.2659,-2.1988,-2.1353,-2.0573,-2.0174,-2.0043,-1.9984,-1.9864,-1.9874,-1.9756,-1.9444,-1.9007,-1.8682,-1.7995,-1.7647,-1.7394,-1.7216,-1.7167,-1.724,-1.7288,-1.7313,-1.724,-1.7093,-1.7117,-1.7191,-1.7093,-1.6935,-1.6479,-1.6019,-1.5503,-1.5088,-1.469,-1.4199,-1.338,-3.8707,-3.8707,-3.8707,-3.8449,-3.8133,-3.8098,-3.77,-3.7253,-3.7627,-3.7923,-3.8046,-3.8395,-3.8761,-3.8968,-3.8895,-3.8977,-3.9276,-3.8502,-3.8117,-3.8311,-3.8376,-3.8454,-3.8465,-3.8365,-3.8582,-3.9138,-3.89,-3.8707,-3.883,-3.8719,-3.8695,-3.8707,-3.8707,-3.8645,-3.8515,-3.8483,-3.8465,-3.8478,-3.859,-3.8524,-3.8157,-3.7037,-3.6119,-3.5716,-3.4082,-3.2706,-3.1935,-3.1182,-3.1256,-3.1806,-3.21,-3.2247,-3.2045,-3.21,-3.1751,-3.054,-3.0155,-2.9732,-2.8434,-2.732,-2.59,-2.5052,-2.4365,-2.3702,-2.3242,-2.3253,-2.3335,-2.3382,-2.3283,-2.323,-2.3283,-2.3133,-2.3182,-2.3518,-2.3699,-2.3819,-2.3837,-2.3696,-2.352,-2.3432,-2.3387,-2.3224,-2.274,-2.1871,-2.1063,-2.0327,-2.0148,-1.9235,-1.887,-1.9154,-1.9216,-1.8926,-1.8614,-1.85,-1.8228,-1.7809,-1.7612,-1.7519,-1.7519,-1.7612,-1.7612,-1.7549,-1.7526,-1.7432,-1.7472,-1.7496,-1.7337,-1.7191,-1.6977,-1.6562,-1.6155,-1.5723,-1.5381,-1.4888,-1.4229,-3.8707,-3.8707,-3.8707,-3.8647,-3.8479,-3.8228,-3.8005,-3.8005,-3.8486,-3.8863,-3.9234,-3.9711,-4.01,-4.0093,-3.9832,-3.9512,-3.9931,-3.9195,-3.828,-3.8546,-3.8569,-3.8524,-3.8313,-3.8168,-3.85,-3.8779,-3.8649,-3.8501,-3.8719,-3.8695,-3.8707,-3.8707,-3.8707,-3.8676,-3.8658,-3.8658,-3.8676,-3.8658,-3.8689,-3.8689,-3.8175,-3.7331,-3.6303,-3.555,-3.4082,-3.2173,-3.1476,-3.1017,-3.0723,-3.1091,-3.1403,-3.1623,-3.1366,-3.1256,-3.1109,-3.0191,-2.9714,-2.9182,-2.794,-2.7505,-2.6015,-2.4459,-2.4111,-2.3773,-2.3431,-2.3491,-2.3606,-2.3606,-2.344,-2.3445,-2.3473,-2.333,-2.3445,-2.3777,-2.3917,-2.4034,-2.4054,-2.3937,-2.3837,-2.3774,-2.3692,-2.3566,-2.333,-2.2438,-2.1547,-2.0859,-2.017,-1.9208,-1.8336,-1.8687,-1.8882,-1.8517,-1.8324,-1.8245,-1.8133,-1.7935,-1.7789,-1.7789,-1.7789,-1.7811,-1.7789,-1.7681,-1.7766,-1.7789,-1.7704,-1.7635,-1.7566,-1.7425,-1.7288,-1.7175,-1.697,-1.6547,-1.6085,-1.5644,-1.5149,-3.8726,-3.8744,-3.8726,-3.8976,-3.9148,-3.8731,-3.8615,-3.8866,-3.9616,-4.0367,-4.1024,-4.0935,-4.1203,-4.1698,-4.1167,-4.0548,-4.0099,-3.9658,-3.888,-3.8493,-3.8581,-3.8473,-3.8443,-3.8441,-3.8593,-3.8651,-3.8695,-3.8669,-3.8744,-3.8946,-3.8927,-3.8799,-3.8762,-3.8726,-3.8707,-3.8707,-3.8707,-3.8707,-3.8707,-3.8597,-3.8138,-3.711,-3.6193,-3.5202,-3.3513,-3.199,-3.1017,-3.0173,-2.9953,-3.0118,-3.0491,-3.0436,-3.032,-3.0228,-2.9714,-2.931,-2.909,-2.8319,-2.7596,-2.7432,-2.6368,-2.4846,-2.4024,-2.3754,-2.3689,-2.3753,-2.3876,-2.3878,-2.3813,-2.3774,-2.3774,-2.3753,-2.3732,-2.3917,-2.4036,-2.4113,-2.417,-2.4094,-2.4016,-2.3937,-2.3876,-2.3738,-2.3505,-2.2794,-2.2147,-2.1777,-2.112,-2.0297,-1.951,-1.8957,-1.8982,-1.8288,-1.8107,-1.8012,-1.7922,-1.79,-1.7833,-1.7811,-1.7833,-1.7833,-1.7811,-1.7811,-1.7833,-1.7833,-1.7794,-1.7772,-1.7755,-1.7749,-1.7726,-1.7612,-1.7439,-1.7174,-1.6694,-1.6652,-1.6266,-3.9019,-3.9533,-3.9551,-3.9617,-3.9863,-4.0705,-4.0857,-4.052,-4.0908,-4.1284,-4.1447,-4.1447,-4.1555,-4.1663,-4.0689,-4.0077,-3.9518,-3.8906,-3.8258,-3.8098,-3.8312,-3.8251,-3.8343,-3.8483,-3.8658,-3.8707,-3.8762,-3.8927,-3.9386,-3.9478,-3.9441,-3.9515,-3.8927,-3.8762,-3.8707,-3.8707,-3.8707,-3.8707,-3.8707,-3.845,-3.79,-3.689,-3.5917,-3.4504,-3.2897,-3.1494,-3.0503,-2.9622,-2.9494,-3.0008,-2.9703,-2.9588,-3.0228,-3.0173,-2.9861,-2.9145,-2.8998,-2.876,-2.8333,-2.7922,-2.6999,-2.5716,-2.5072,-2.4369,-2.4135,-2.3958,-2.4094,-2.4056,-2.4016,-2.3937,-2.3937,-2.3937,-2.3955,-2.4054,-2.4133,-2.417,-2.419,-2.417,-2.4094,-2.4074,-2.4016,-2.3978,-2.3731,-2.3331,-2.277,-2.2582,-2.2157,-2.1368,-2.0667,-2.0156,-1.9313,-1.8612,-1.8289,-1.8302,-1.8039,-1.7961,-1.7878,-1.7833,-1.7856,-1.7878,-1.7878,-1.7878,-1.7878,-1.7878,-1.7883,-1.7932,-1.8001,-1.7975,-1.7905,-1.791,-1.7783,-1.7555,-1.7361,-1.7224,-1.7101,-3.9643,-4.0286,-4.001,-4.023,-4.102,-4.2231,-4.2323,-4.1687,-4.1774,-4.1886,-4.1849,-4.154,-4.1412,-4.123,-4.0379,-3.9725,-3.9297,-3.8576,-3.8021,-3.7987,-3.8,-3.8204,-3.8419,-3.8564,-3.8658,-3.8707,-3.8744,-3.8872,-3.9405,-3.946,-3.9386,-3.9276,-3.8854,-3.8781,-3.8707,-3.8707,-3.8707,-3.8707,-3.8634,-3.8377,-3.7716,-3.6817,-3.5532,-3.4082,-3.2419,-3.1176,-3.0239,-2.9412,-2.9398,-2.9729,-2.9182,-2.9297,-2.9784,-2.9747,-2.9641,-2.9035,-2.8975,-2.8741,-2.8319,-2.8007,-2.7218,-2.6374,-2.5715,-2.4937,-2.4366,-2.4094,-2.417,-2.417,-2.4074,-2.4034,-2.4054,-2.4094,-2.4113,-2.417,-2.419,-2.419,-2.419,-2.419,-2.419,-2.419,-2.419,-2.417,-2.3969,-2.3621,-2.3455,-2.3397,-2.3191,-2.2676,-2.1972,-2.1372,-2.029,-1.9262,-1.8913,-1.871,-1.8435,-1.8121,-1.7988,-1.7944,-1.7922,-1.7922,-1.7927,-1.7949,-1.7949,-1.7954,-1.7975,-1.8065,-1.8229,-1.8065,-1.7975,-1.8023,-1.7997,-1.7755,-1.7589,-1.7526,-1.7432,-4.0451,-4.113,-4.0341,-4.0873,-4.2286,-4.2892,-4.2782,-4.2304,-4.2014,-4.2121,-4.1941,-4.1317,-4.0936,-4.072,-3.9978,-3.9433,-3.9016,-3.844,-3.8186,-3.8101,-3.8219,-3.8368,-3.8564,-3.8707,-3.8707,-3.8707,-3.8762,-3.8891,-3.8872,-3.9093,-3.9203,-3.8799,-3.8726,-3.8707,-3.8707,-3.8719,-3.8628,-3.837,-3.8431,-3.8313,-3.7875,-3.7011,-3.5752,-3.4366,-3.2665,-3.1096,-3.0217,-2.9558,-2.9086,-2.916,-2.9215,-2.923,-2.9226,-2.9241,-2.9118,-2.9076,-2.9021,-2.8782,-2.8378,-2.8011,-2.7166,-2.6284,-2.5458,-2.4944,-2.4483,-2.4189,-2.419,-2.419,-2.4132,-2.4113,-2.4151,-2.4151,-2.417,-2.419,-2.419,-2.419,-2.419,-2.419,-2.419,-2.419,-2.419,-2.419,-2.4171,-2.3841,-2.3804,-2.4005,-2.3931,-2.3524,-2.3173,-2.2538,-2.1435,-2.0144,-1.9565,-1.9219,-1.8801,-1.8489,-1.819,-1.8074,-1.8053,-1.8053,-1.8117,-1.8078,-1.804,-1.8086,-1.8173,-1.831,-1.8408,-1.8229,-1.8107,-1.8208,-1.8146,-1.7922,-1.7811,-1.7794,-1.7658,-4.1277,-4.1937,-4.1148,-4.1405,-4.2194,-4.1864,-4.1974,-4.2176,-4.0965,-4.0836,-4.1167,-4.0579,-4.0175,-4.0065,-3.9441,-3.8899,-3.8507,-3.8551,-3.8354,-3.8336,-3.8368,-3.8515,-3.8658,-3.8707,-3.8707,-3.8707,-3.8781,-3.8946,-3.9239,-3.9423,-3.9533,-3.946,-3.9093,-3.8689,-3.8579,-3.8621,-3.8431,-3.7956,-3.8007,-3.7692,-3.6998,-3.6417,-3.5377,-3.3442,-3.1518,-3.0761,-2.9972,-2.9344,-2.9181,-2.9218,-2.9211,-2.9144,-2.9081,-2.9089,-2.9089,-2.9067,-2.9089,-2.8901,-2.8644,-2.8165,-2.7432,-2.679,-2.6055,-2.5112,-2.4523,-2.4319,-2.419,-2.419,-2.419,-2.419,-2.419,-2.419,-2.419,-2.419,-2.419,-2.419,-2.419,-2.419,-2.419,-2.419,-2.419,-2.419,-2.419,-2.419,-2.419,-2.419,-2.4171,-2.4024,-2.3949,-2.3467,-2.2598,-2.1393,-2.0287,-1.9779,-1.9306,-1.8926,-1.865,-1.8377,-1.8287,-1.8304,-1.8322,-1.8328,-1.8333,-1.8356,-1.8434,-1.8547,-1.8528,-1.8293,-1.8252,-1.8391,-1.827,-1.8057,-1.8057,-1.804,-1.7883,-4.096,-4.2213,-4.2213,-4.1992,-4.1772,-4.1662,-4.1534,-4.1075,-4.0267,-3.9918,-3.9992,-3.9588,-3.9386,-3.9386,-3.8872,-3.8627,-3.8401,-3.8596,-3.8546,-3.8515,-3.8533,-3.8627,-3.8707,-3.8707,-3.8707,-3.8707,-3.8726,-3.8946,-3.9368,-3.9331,-3.9258,-3.9362,-3.8836,-3.8536,-3.8364,-3.8221,-3.794,-3.7285,-3.7441,-3.6931,-3.607,-3.5477,-3.4604,-3.2551,-3.1362,-3.0516,-2.9817,-2.9283,-2.931,-2.9412,-2.9492,-2.9474,-2.9415,-2.9334,-2.9272,-2.9228,-2.9203,-2.9134,-2.8894,-2.8396,-2.7659,-2.6905,-2.6205,-2.5096,-2.4469,-2.4247,-2.4228,-2.4209,-2.4209,-2.4191,-2.419,-2.4209,-2.4209,-2.4209,-2.419,-2.419,-2.419,-2.419,-2.419,-2.419,-2.419,-2.419,-2.419,-2.419,-2.419,-2.419,-2.419,-2.419,-2.419,-2.419,-2.3395,-2.2677,-2.1601,-2.0474,-1.9784,-1.9424,-1.9174,-1.8903,-1.8581,-1.8563,-1.8563,-1.8622,-1.866,-1.8661,-1.868,-1.8735,-1.8661,-1.8473,-1.8489,-1.8639,-1.8465,-1.8205,-1.8266,-1.827,-1.8125,-4.0257,-4.1992,-4.2671,-4.2231,-4.113,-4.1515,-4.1093,-4.0047,-3.9772,-3.9368,-3.8891,-3.8817,-3.8707,-3.8707,-3.8707,-3.8707,-3.8707,-3.8658,-3.8658,-3.8658,-3.8676,-3.8707,-3.8707,-3.8707,-3.8707,-3.8707,-3.8707,-3.8707,-3.8836,-3.8885,-3.8915,-3.8768,-3.8511,-3.8283,-3.779,-3.746,-3.7193,-3.6801,-3.6601,-3.6199,-3.5483,-3.4787,-3.3836,-3.2683,-3.1427,-3.0246,-2.9638,-2.9351,-2.9474,-2.9589,-2.9698,-2.9698,-2.9607,-2.9495,-2.9415,-2.9334,-2.9246,-2.9111,-2.8775,-2.8107,-2.7257,-2.6463,-2.578,-2.5153,-2.4506,-2.4303,-2.4266,-2.4247,-2.4229,-2.421,-2.4209,-2.419,-2.4209,-2.4209,-2.4209,-2.4228,-2.4228,-2.4209,-2.4209,-2.4209,-2.4209,-2.4209,-2.4209,-2.4209,-2.4209,-2.4209,-2.4209,-2.419,-2.419,-2.419,-2.3839,-2.3506,-2.2955,-2.1821,-2.0604,-2.0207,-2.0065,-1.9255,-1.8949,-1.8878,-1.8825,-1.8878,-1.8913,-1.8931,-1.8948,-1.8966,-1.8913,-1.8789,-1.8825,-1.886,-1.86,-1.8385,-1.8528,-1.8528,-1.8371,-4.0551,-4.0377,-4.0524,-4.0396,-4.0084,-3.9662,-3.957,-3.9772,-3.9166,-3.8817,-3.8701,-3.8732,-3.875,-3.8707,-3.8707,-3.8707,-3.8719,-3.8707,-3.8707,-3.8707,-3.8707,-3.8707,-3.8738,-3.875,-3.8707,-3.875,-3.8762,-3.8719,-3.8892,-3.8862,-3.8884,-3.9027,-3.8163,-3.7905,-3.7854,-3.7314,-3.6533,-3.6105,-3.58,-3.5509,-3.4728,-3.4175,-3.39,-3.2854,-3.1704,-3.0631,-2.9837,-2.9418,-2.9495,-2.9607,-2.975,-2.9784,-2.9715,-2.9607,-2.9494,-2.9319,-2.9233,-2.8783,-2.8299,-2.7673,-2.6821,-2.5615,-2.5079,-2.491,-2.4503,-2.4375,-2.4358,-2.4321,-2.4303,-2.4229,-2.4228,-2.4228,-2.4228,-2.4247,-2.4247,-2.4321,-2.4373,-2.4302,-2.421,-2.421,-2.4191,-2.4209,-2.4209,-2.4228,-2.4228,-2.4266,-2.4284,-2.4284,-2.4228,-2.4209,-2.4228,-2.406,-2.3895,-2.3015,-2.1771,-2.1407,-2.1079,-2.01,-1.9306,-1.9181,-1.9124,-1.9132,-1.9164,-1.9117,-1.9119,-1.9119,-1.9052,-1.8984,-1.8984,-1.8932,-1.8676,-1.8544,-1.8715,-1.8715,-1.8526]},{"header":{"parameterUnit":"m.s-1","parameterCategory":1,"la1":31.0,"la2":29.5877,"lo1":-88.7671,"lo2":-86.6584,"dy":0.0162,"dx":0.0185,"nx":115,"ny":88,"refTime":"2023-11-07T18:00:00:Z","depth":0,"parameterNumber":3,"parameterNumberName":"V-component_of_WINDS"},"data":[0.0,0.0,0.0,0.0,0.0,0.0,0.0,0.0,0.0,0.0,0.0,0.0,0.0,0.0,0.0,0.0,0.0,0.0,0.0,0.0,0.0,0.0,0.0,0.0,0.0,0.0,0.0,0.0,0.0,0.0,0.0,0.0,0.0,0.0,0.0,0.0,0.0,0.0,0.0,0.0,0.0,0.0,0.0,0.0,0.0,0.0,0.0,0.0,0.0,0.0,0.0,0.0,0.0,0.0,0.0,0.0,0.0,0.0,0.0,0.0,0.0,0.0,0.0,0.0,0.0,0.0,0.0,0.0,0.0,0.0,0.0,0.0,0.0,0.0,0.0,0.0,0.0,0.0,0.0,0.0,0.0,0.0,0.0,0.0,0.0,0.0,0.0,0.0,0.0,0.0,0.0,0.0,0.0,0.0,0.0,0.0,0.0,0.0,0.0,0.0,0.0,0.0,0.0,0.0,0.0,0.0,0.0,0.0,0.0,0.0,0.0,0.0,0.0,0.0,0.0,0.0,0.0,0.0,0.0,0.0,0.0,0.0,0.0,0.0,0.0,0.0,0.0,0.0,0.0,0.0,0.0,0.0,0.0,0.0,0.0,0.0,0.0,0.0,0.0,0.0,0.0,0.0,0.0,0.0,0.0,0.0,0.0,0.0,0.0,0.0,0.0,0.0,0.0,0.0,0.0,0.0,0.0,0.0,0.0,0.0,0.0,0.0,0.0,0.0,0.0,0.0,0.0,0.0,0.0,0.0,0.0,0.0,0.0,0.0,0.0,0.0,0.0,0.0,0.0,0.0,0.0,0.0,0.0,0.0,0.0,0.0,0.0,0.0,0.0,0.0,0.0,0.0,0.0,0.0,0.0,0.0,0.0,0.0,0.0,0.0,0.0,0.0,0.0,0.0,0.0,0.0,0.0,0.0,0.0,0.0,0.0,0.0,0.0,0.0,0.0,0.0,0.0,0.0,0.0,0.0,0.0,0.0,0.0,0.0,0.0,0.0,0.0,0.0,0.0,0.0,0.0,0.0,0.0,0.0,0.0,0.0,0.0,0.0,0.0,0.0,0.0,0.0,0.0,0.0,0.0,0.0,0.0,0.0,0.0,0.0,0.0,0.0,0.0,0.0,0.0,0.0,0.0,0.0,0.0,0.0,0.0,0.0,0.0,0.0,0.0,0.0,0.0,0.0,0.0,0.0,0.0,0.0,0.0,0.0,0.0,0.0,0.0,0.0,0.0,0.0,0.0,0.0,0.0,0.0,0.0,0.0,0.0,0.0,0.0,0.0,0.0,0.0,0.0,0.0,0.0,0.0,0.0,0.0,0.0,0.0,0.0,0.0,0.0,0.0,0.0,0.0,0.0,0.0,0.0,0.0,0.0,0.0,0.0,0.0,0.0,0.0,0.0,0.0,0.0,0.0,0.0,0.0,0.0,0.0,0.0,0.0,0.0,0.0,0.0,0.0,0.0,0.0,0.0,0.0,0.0,0.0,0.0,0.0,0.0,0.0,0.0,0.0,0.0,0.0,0.0,0.0,0.0,0.0,0.0,0.0,0.0,0.0,0.0,0.0,0.0,0.0,0.0,0.0,0.0,0.0,0.0,0.0,0.0,0.0,0.0,0.0,0.0,0.0,0.0,0.0,0.0,0.0,0.0,0.0,0.0,0.0,0.0,0.0,0.0,0.0,0.0,0.0,0.0,0.0,0.0,0.0,0.0,0.0,0.0,0.0,0.0,0.0,0.0,0.0,0.0,0.0,0.0,0.0,0.0,0.0,0.0,0.0,0.0,0.0,0.0,0.0,0.0,0.0,0.0,0.0,0.0,0.0,0.0,0.0,0.0,0.0,0.0,0.0,0.0,0.0,0.0,0.0,0.0,0.0,0.0,0.0,0.0,0.0,0.0,0.0,0.0,0.0,0.0,0.0,0.0,0.0,0.0,0.0,0.0,0.0,0.0,0.0,0.0,0.0,0.0,0.0,0.0,0.0,0.0,0.0,0.0,0.0,0.0,0.0,0.0,0.0,0.0,0.0,0.0,0.0,0.0,0.0,0.0,0.0,0.0,0.0,0.0,0.0,0.0,0.0,0.0,0.0,0.0,0.0,0.0,0.0,0.0,0.0,0.0,0.0,0.0,0.0,0.0,0.0,0.0,0.0,0.0,0.0,0.0,0.0,0.0,0.0,0.0,0.0,0.0,0.0,0.0,0.0,0.0,0.0,0.0,0.0,0.0,0.0,0.0,0.0,0.0,0.0,0.0,0.0,0.0,0.0,0.0,0.0,0.0,0.0,0.0,0.0,0.0,0.0,0.0,0.0,0.0,0.0,0.0,0.0,0.0,0.0,0.0,0.0,0.0,0.0,0.0,0.0,0.0,0.0,0.0,0.0,0.0,0.0,0.0,0.0,0.0,0.0,0.0,0.0,0.0,0.0,0.0,0.0,0.0,0.0,0.0,0.0,0.0,0.0,0.0,0.0,0.0,0.0,0.0,0.0,0.0,0.0,0.0,0.0,0.0,0.0,0.0,0.0,0.0,0.0,0.0,0.0,0.0,0.0,0.0,0.0,0.0,0.0,0.0,0.0,0.0,0.0,0.0,0.0,0.0,0.0,0.0,0.0,0.0,0.0,0.0,0.0,0.0,0.0,0.0,0.0,0.0,0.0,0.0,0.0,0.0,0.0,0.0,0.0,0.0,0.0,0.0,0.0,0.0,0.0,0.0,0.0,0.0,0.0,0.0,0.0,0.0,0.0,0.0,0.0,0.0,0.0,0.0,0.0,0.0,0.0,0.0,0.0,0.0,0.0,0.0,0.0,0.0,0.0,0.0,0.0,0.0,0.0,0.0,0.0,0.0,0.0,0.0,0.0,0.0,0.0,0.0,0.0,0.0,0.0,0.0,0.0,0.0,0.0,0.0,0.0,0.0,0.0,0.0,0.0,0.0,0.0,0.0,0.0,0.0,0.0,0.0,0.0,0.0,0.0,0.0,0.0,0.0,0.0,0.0,0.0,0.0,0.0,0.0,0.0,0.0,0.0,0.0,0.0,0.0,0.0,0.0,0.0,0.0,0.0,0.0,0.0,0.0,0.0,0.0,0.0,0.0,0.0,0.0,0.0,0.0,0.0,0.0,0.0,0.0,0.0,0.0,0.0,0.0,0.0,0.0,0.0,0.0,0.0,0.0,0.0,0.0,0.0,0.0,0.0,0.0,0.0,0.0,0.0,0.0,0.0,0.0,0.0,0.0,0.0,0.0,0.0,0.0,0.0,0.0,0.0,0.0,0.0,0.0,0.0,0.0,0.0,0.0,0.0,0.0,0.0,0.0,0.0,0.0,0.0,0.0,0.0,0.0,0.0,0.0,0.0,0.0,0.0,0.0,0.0,0.0,0.0,0.0,0.0,0.0,0.0,0.0,0.0,0.0,0.0,0.0,0.0,0.0,0.0,0.0,0.0,0.0,0.0,0.0,0.0,0.0,0.0,0.0,0.0,0.0,0.0,0.0,0.0,0.0,0.0,0.0,0.0,0.0,0.0,0.0,0.0,0.0,0.0,0.0,0.0,0.0,0.0,0.0,0.0,0.0,0.0,0.0,0.0,0.0,0.0,0.0,0.0,0.0,0.0,0.0,0.0,0.0,0.0,0.0,0.0,0.0,0.0,0.0,0.0,0.0,0.0,0.0,0.0,0.0,0.0,0.0,0.0,0.0,0.0,0.0,0.0,0.0,0.0,0.0,0.0,0.0,0.0,0.0,0.0,0.0,0.0,0.0,0.0,0.0,0.0,0.0,0.0,0.0,0.0,0.0,0.0,0.0,0.0,0.0,0.0,0.0,0.0,0.0,0.0,0.0,0.0,0.0,0.0,0.0,0.0,0.0,0.0,0.0,0.0,0.0,0.0,0.0,0.0,0.0,0.0,0.0,0.0,0.0,0.0,0.0,0.0,0.0,0.0,0.0,0.0,0.0,0.0,0.0,0.0,0.0,0.0,0.0,0.0,0.0,0.0,0.0,0.0,0.0,0.0,0.0,0.0,0.0,0.0,0.0,0.0,0.0,0.0,0.0,0.0,0.0,0.0,0.0,0.0,0.0,0.0,0.0,0.0,0.0,0.0,0.0,0.0,0.0,0.0,0.0,0.0,0.0,0.0,0.0,0.0,0.0,0.0,0.0,0.0,0.0,0.0,0.0,0.0,0.0,0.0,0.0,0.0,0.0,0.0,0.0,0.0,0.0,0.0,0.0,0.0,0.0,0.0,0.0,0.0,0.0,0.0,0.0,0.0,0.0,0.0,-0.1762,0.0,0.0,0.0,0.0,0.0,0.0,0.0,0.0,0.0,0.0,0.0,0.0,0.0,0.0,0.0,0.0,0.0,0.0,0.0,0.0,0.0,0.0,0.0,0.0,0.0,0.0,0.0,0.0,0.0,0.0,0.0,0.0,0.0,0.0,0.0,0.0,0.0,0.0,0.0,0.0,0.0,0.0,0.0,0.0,0.0,0.0,0.0,0.0,0.0,0.0,0.0,0.0,0.0,0.0,0.0,0.0,0.0,0.0,0.0,0.0,0.0,0.0,0.0,0.0,0.0,0.0,0.0,0.0,0.0,0.0,0.0,0.0,0.0,0.0,0.0,0.0,0.0,0.0,0.0,0.0,0.0,0.0,0.0,0.0,0.0,0.0,0.0,0.0,0.0,0.0,0.0,0.0,0.0,0.0,0.0,0.0,0.0,0.0,0.0,0.0,0.0,0.0,0.0,0.0,0.0,0.0,0.0,0.0,0.0,0.0,-0.3245,-0.3013,-0.2393,-0.1774,-0.1135,0.0,0.0,0.0,0.0,0.0,0.0,0.0,0.0,0.0,0.0,0.0,0.0,0.0,0.0,0.0,0.0,0.0,0.0,0.0,0.0,0.0,0.0,0.0,0.0,0.0,0.0,0.0,0.0,0.0,0.0,0.0,0.0,0.0,0.0,0.0,0.0,0.0,0.0,0.0,0.0,0.0,0.0,0.0,0.0,0.0,0.0,0.0,0.0,0.0,0.0,0.0,0.0,0.0,0.0,0.0,0.0,0.0,0.0,0.0,0.0,0.0,0.0,0.0,0.0,0.0,0.0,0.0,0.0,0.0,0.0,0.0,0.0,0.0,0.0,0.0,0.0,0.0,0.0,0.0,0.0,0.0,0.0,0.0,0.0,0.0,0.0,0.0,0.0,0.0,0.0,0.0,0.0,0.0,0.0,0.0,0.0,0.0,0.0,0.0,0.0,0.0,0.0,0.0,0.0,0.0,0.0,0.0,0.0,0.0,0.0,0.0,0.0,-0.1915,-0.1282,-0.0658,0.0,0.0,0.0,0.0,0.0,0.0,0.0,0.0,0.0,0.0,0.0,0.0,0.0,0.0,0.0,0.0,0.0,0.0,0.0,0.0,0.0,0.0,0.0,0.0,0.0,0.0,0.0,0.0,0.0,0.0,0.0,0.0,0.0,0.0,0.0,0.0,0.0,0.0,0.0,0.0,0.0,0.0,0.0,0.0,0.0,0.0,0.0,0.0,0.0,0.0,0.0,0.0,0.0,0.0,0.0,0.0,0.0,0.0,0.0,0.0,0.0,0.0,0.0,0.0,0.0,0.0,0.0,0.0,0.0,0.0,0.0,0.0,0.0,0.0,0.0,0.0,0.0,0.0,0.0,0.0,0.0,0.0,0.0,0.0,0.0,0.0,0.0,0.0,0.0,0.0,0.0,0.0,0.0,0.0,0.0,0.0,0.0,0.0,0.0,0.0,0.0,0.0,0.0,0.0,0.0,0.0,0.0,0.0,0.0,0.0,-0.223,-0.2391,-0.1321,0.0,-0.0598,0.0,0.0,0.0,0.0,0.0,0.0,0.0,0.0,0.0,0.0,0.0,0.0,0.0,0.0,0.0,0.0,0.0,0.0,0.0,0.0,0.0,0.0,0.0,0.0,0.0,0.0,0.0,0.0,0.0,0.0,0.0,0.0,0.0,0.0,0.0,0.0,0.0,0.0,0.0,0.0,0.0,0.0,0.0,0.0,0.0,0.0,0.0,0.0,0.0,0.0,0.0,0.0,0.0,0.0,0.0,0.0,0.0,0.0,0.0,0.0,0.0,0.0,0.0,0.0,0.0,0.0,0.0,0.0,0.0,0.0,0.0,0.0,0.0,0.0,0.0,0.0,0.0,0.0,0.0,0.0,0.0,0.0,0.0,0.0,0.0,0.0,0.0,0.0,0.0,0.0,0.0,0.0,0.0,0.0,0.0,0.0,0.0,0.0,0.0,0.0,0.0,0.0,0.0,0.0,0.0,0.0,0.0,0.0,0.0,0.0,-0.1517,-0.1617,-0.0549,0.0054,0.0,0.0,0.0,0.0,0.0,0.0,0.0,0.0,0.0,0.0,0.0,0.0,0.0,0.0,0.0,0.0,0.0,0.0,0.0,0.0,0.0,0.0,0.0,0.0,0.0,0.0,0.0,0.0,0.0,0.0,0.0,0.0,0.0,0.0,0.0,0.0,0.0,0.0,0.0,0.0,0.0,0.0,0.0,0.0,0.0,0.0,0.0,0.0,0.0,0.0,0.0,0.0,0.0,0.0,0.0,0.0,0.0,0.0,0.0,0.0,0.0,0.0,0.0,0.0,0.0,0.0,0.0,0.0,0.0,0.0,0.0,0.0,0.0,0.0,0.0,0.0,0.0,0.0,0.0,0.0,0.0,0.0,0.0,0.0,0.0,0.0,0.0,0.0,0.0,0.0,0.0,0.0,0.0,0.0,0.0,0.0,0.0,0.0,0.0,0.0,0.0,0.0,0.0,0.0,0.0,0.0,0.0,0.0,0.0,0.0,-0.119,-0.0909,-0.072,0.0103,0.0531,0.0501,0.0,0.0,0.0,0.0,0.0,0.0,0.0,0.0,0.0,0.0,0.0,0.0,0.0,0.0,0.0,0.0,0.0,0.0,0.0,0.0,0.0,0.0,0.0,0.0,0.0,0.0,0.0,0.0,0.0,0.0,0.0,0.0,0.0,0.0,0.0,0.0,0.0,0.0,0.0,0.0,0.0,0.0,0.0,0.0,0.0,0.0,0.0,0.0,0.0,0.0,0.0,0.0,0.0,0.0,0.0,0.0,0.0,0.0,0.0,0.0,0.0,0.0,0.0,0.0,0.0,0.0,0.0,0.0,0.0,0.0,0.0,0.0,0.0,0.0,0.0,0.0,0.0,0.0,0.0,0.0,0.0,0.0,0.0,0.0,0.0,0.0,0.0,0.0,0.0,0.0,0.0,0.0,0.0,0.0,0.0,0.0,0.0,0.0,0.0,0.0,0.0,0.0,0.0,0.0,0.0,0.0,0.0,0.0,-0.1295,-0.099,-0.0494,0.0111,0.0417,0.0557,0.0,0.0,0.0,0.0,0.0,0.0,0.0,0.0,0.0,0.0,0.0,0.0,0.0,0.0,0.0,0.0,0.0,0.0,0.0,0.0,0.0,0.0,0.0,0.0,0.0,0.0,0.0,0.0,0.0,0.0,0.0,0.0,0.0,0.0,0.0,0.0,0.0,0.0,0.0,0.0,0.0,0.0,0.0,0.0,0.0,0.0,0.0,0.0,0.0,0.0,0.0,0.0,0.0,0.0,0.0,0.0,0.0,0.0,0.0,0.0,0.0,0.0,0.0,0.0,0.0,0.0,0.0,0.0,0.0,0.0,0.0,0.0,0.0,0.0,0.0,0.0,0.0,0.0,0.0,0.0,0.0,0.0,0.0,0.0,0.0,0.0,0.0,0.0,0.0,0.0,0.0,0.0,0.0,0.0,0.0,0.0,0.0,0.0,0.0,0.0,0.0,0.0,0.0,0.0,0.0,0.0,0.0,0.0,0.0,-0.0924,-0.0673,-0.0294,0.0236,0.0247,0.024,0.0,0.0,0.0,0.0,0.0,0.0,0.0,0.0,0.0,0.0,0.0,0.0,0.0,0.0,0.0,0.0,0.0,0.0,0.0,0.0,0.0,0.0,0.0,0.0,0.0,0.0,0.0,0.0,0.0,0.0,0.0,0.0,0.0,0.0,0.0,0.0,0.0,0.0,0.0,0.0,0.0,0.0,0.0,0.0,0.0,0.0,0.0,0.0,0.0,0.0,0.0,0.0,0.0,0.0,0.0,0.0,0.0,0.0,0.0,0.0,0.0,0.0,0.0,0.0,0.0,0.0,0.0,0.0,0.0,0.0,0.0,0.0,0.0,0.0,0.0,0.0,0.0,0.0,0.0,0.0,0.0,0.0,0.0,0.0,0.0,0.0,0.0,0.0,0.0,0.0,0.0,0.0,0.0,0.0,0.0,0.0,0.0,0.0,0.0,0.0,0.0,0.0,0.0,0.0,0.0,0.0,0.0,0.0,0.0,-0.0628,0.0,-0.0308,0.0178,0.0,-0.0052,0.0,0.0,0.0,0.0,0.0,0.0,0.0,0.0,0.0,0.0,0.0,0.0,0.0,0.0,0.0,0.0,0.0,0.0,0.0,0.0,0.0,0.0,0.0,0.0,0.0,0.0,0.0,0.0,0.0,0.0,0.0,0.0,0.0,0.0,0.0,0.0,0.0,0.0,0.0,0.0,0.0,0.0,0.0,0.0,0.0,0.0,0.0,0.0,0.0,0.0,0.0,0.0,0.0,0.0,0.0,0.0,0.0,0.0,0.0,0.0,0.0,0.0,0.0,0.0,0.0,0.0,0.0,0.0,0.0,0.0,0.0,0.0,0.0,0.0,0.0,0.0,0.0,0.0,0.0,0.0,0.0,0.0,0.0,0.0,0.0,0.0,0.0,0.0,0.0,0.0,0.0,0.0,0.0,0.0,0.0,0.0,0.0,0.0,0.0,0.0,0.0,0.0,0.0,0.0,0.0,0.0,0.0,0.0,-0.1048,-0.0454,-0.0719,-0.0596,-0.0028,-0.0168,-0.0262,0.0,0.0,0.0,0.0,0.0,0.0,0.0,0.0,0.0,0.0,0.0,0.0,0.0,0.0,0.0,0.0,0.0,0.0,0.0,0.0,0.0,0.0,0.0,0.0,0.0,0.0,0.0,0.0,0.0,0.0,0.0,0.0,0.0,0.0,0.0,0.0,0.0,0.0,0.0,0.0,0.0,0.0,0.0,0.0,0.0,0.0,0.0,0.0,0.0,0.0,0.0,0.0,0.0,0.0,0.0,0.0,0.0,0.0,0.0,0.0,0.0,0.0,0.0,0.0,0.0,0.0,0.0,0.0,0.0,0.0,0.0,0.0,0.0,0.0,0.0,0.0,0.0,0.0,0.0,0.0,0.0,0.0,0.0,0.0,0.0,0.0,0.0,0.0,0.0,0.0,0.0,0.0,0.0,0.0,0.0,0.0,0.0,0.0,0.0,0.0,0.0,0.0,0.0,0.0,0.0,0.0,0.0,0.0,0.0,-0.0928,-0.0853,-0.0525,0.009,-0.0144,-0.0247,0.0,0.0,0.0,0.0,0.0,0.0,0.0,0.0,0.0,0.0,0.0,0.0,0.0,0.0,0.0,0.0,0.0,0.0,0.0,0.0,0.0,0.0,0.0,0.0,0.0,0.0,0.0,0.0,0.0,0.0,0.0,0.0,0.0,0.0,0.0,0.0,0.0,0.0,0.0,0.0,0.0,0.0,0.0,0.0,0.0,0.0,0.0,0.0,0.0,0.0,0.0,0.0,0.0,0.0,0.0,0.0,0.0,0.0,0.0,0.0,0.0,0.0,0.0,0.0,0.0,0.0,0.0,0.0,0.0,0.0,0.0,0.0,0.0,0.0,0.0,0.0,0.0,0.0,0.0,0.0,0.0,0.0,0.0,0.0,0.0,0.0,0.0,0.0,0.0,0.0,0.0,0.0,0.0,0.0,0.0,0.0,0.0,0.0,0.0,0.0,0.0,0.0,0.0,0.0,0.0,0.0,0.0,0.0,0.0,-0.1755,-0.1254,-0.0612,0.0267,-0.02,-0.042,-0.0334,0.0,0.0,0.0,0.0,0.0,0.0,0.0,0.0,0.0,0.0,0.0,0.0,0.0,0.0,0.0,0.0,0.0,0.0,0.0,0.0,0.0,0.0,0.0,0.0,0.0,0.0,0.0,0.0,0.0,0.0,0.0,0.0,0.0,0.0,0.0,0.0,0.0,0.0,0.0,0.0,0.0,0.0,0.0,0.0,0.0,0.0,0.0,0.0,0.0,0.0,0.0,0.0,0.0,0.0,0.0,0.0,0.0,0.0,0.0,0.0,0.0,0.0,0.0,0.0,0.0,0.0,0.0,0.0,0.0,0.0,0.0,0.0,0.0,0.0,0.0,0.0,0.0,0.0,0.0,0.0,0.0,0.0,0.0,0.0,0.0,0.0,0.0,0.0,0.0,0.0,0.0,0.0,0.0,0.0,0.0,0.0,0.0,0.0,0.0,0.0,0.0,0.0,0.0,0.0,0.0,0.0,0.0,0.0,-0.2905,-0.1899,-0.0796,0.0392,-0.028,-0.0672,0.0,0.0,0.0,0.0,0.0,0.0,0.0,0.0,0.0,0.0,0.0,0.0,0.0,0.0,0.0,0.0,0.0,0.0,0.0,0.0,0.0,0.0,0.0,0.0,0.0,0.0,0.0,0.0,0.0,0.0,0.0,0.0,0.0,0.0,0.0,0.0,0.0,0.0,0.0,0.0,0.0,0.0,0.0,0.0,0.0,0.0,0.0,0.0,0.0,0.0,0.0,0.0,0.0,0.0,0.0,0.0,0.0,0.0,0.0,0.0,0.0,0.0,0.0,0.0,0.0,0.0,0.0,0.0,0.0,0.0,0.0,0.0,0.0,0.0,0.0,0.0,0.0,0.0,0.0,0.0,0.0,0.0,0.0,0.0,0.0,0.0,0.0,0.0,0.0,0.0,0.0,0.0,0.0,0.0,0.0,0.0,0.0,0.0,0.0,0.0,0.0,0.0,0.0,0.0,0.0,0.0,0.0,0.0,0.0,-0.4025,-0.2169,-0.0621,0.0558,0.0059,-0.0264,0.0,0.0,0.0,0.0,0.0,0.0,0.0,0.0,0.0,0.0,0.0,0.0,0.0,0.0,0.0,0.0,0.0,0.0,0.0,0.0,0.0,0.0,0.0,0.0,0.0,0.0,0.0,0.0,0.0,0.0,0.0,0.0,0.0,0.0,0.0,0.0,0.0,0.0,0.0,0.0,0.0,0.0,0.0,0.0,0.0,0.0,0.0,0.0,0.0,0.0,0.0,0.0,0.0,0.0,0.0,0.0,0.0,0.0,0.0,0.0,0.0,0.0,0.0,0.0,0.0,0.0,0.0,0.0,0.0,0.0,0.0,0.0,0.0,0.0,0.0,0.0,0.0,0.0,0.0,0.0,0.0,0.0,0.0,0.0,0.0,0.0,0.0,0.0,0.0,0.0,0.0,0.0,0.0,0.0,0.0,0.0,0.0,0.0,0.0,0.0,0.0,0.0,0.0,0.0,0.0,0.0,0.0,0.0,-0.5052,-0.3807,-0.1953,-0.0463,0.0587,0.0169,-0.0147,0.0,0.0,0.0,0.0,0.0,0.0,0.0,0.0,0.0,0.0,0.0,0.0,0.0,0.0,0.0,0.0,0.0,0.0,0.0,0.0,0.0,0.0,0.0,0.0,0.0,0.0,0.0,0.0,0.0,0.0,0.0,0.0,0.0,0.0,0.0,0.0,0.0,0.0,0.0,0.0,0.0,0.0,0.0,0.0,0.0,0.0,0.0,0.0,0.0,0.0,0.0,0.0,0.0,0.0,0.0,0.0,0.0,0.0,0.0,0.0,0.0,0.0,0.0,0.0,0.0,0.0,0.0,0.0,0.0,0.0,0.0,0.0,0.0,0.0,0.0,0.0,0.0,0.0,0.0,0.0,0.0,0.0,0.0,0.0,0.0,0.0,0.0,0.0,0.0,0.0,0.0,0.0,0.0,0.0,0.0,0.0,0.0,0.0,0.0,0.0,0.0,0.0,0.0,0.0,0.0,0.0,0.0,0.0,-0.4806,-0.2863,-0.1488,-0.0398,0.0425,0.0208,-0.0057,0.0,0.0,0.0,0.0,0.0,0.0,0.0,0.0,0.0,0.0,0.0,0.0,0.0,0.0,0.0,0.0,0.0,0.0,0.0,0.0,0.0,0.0,0.0,0.0,0.0,0.0,0.0,0.0,0.0,0.0,0.0,0.0,0.0,0.0,0.0,0.0,0.0,0.0,0.0,0.0,0.0,0.0,0.0,0.0,0.0,0.0,0.0,0.0,0.0,0.0,0.0,0.0,0.0,0.0,0.0,0.0,0.0,0.0,0.0,0.0,0.0,0.0,0.0,0.0,0.0,0.0,0.0,0.0,0.0,0.0,0.0,0.0,0.0,0.0,0.0,0.0,0.0,0.0,0.0,0.0,0.0,0.0,0.0,0.0,0.0,0.0,0.0,0.0,0.0,0.0,0.0,0.0,0.0,0.0,0.0,0.0,0.0,0.0,0.0,0.0,0.0,0.0,0.0,0.0,0.0,0.0,0.0,0.0,-0.5205,-0.3065,-0.151,-0.0356,0.0403,0.0547,0.0366,0.0,0.0,0.0,0.0,0.0,0.0,0.0,0.0,0.0,0.0,0.0,0.0,0.0,0.0,0.0,0.0,0.0,0.0,0.0,0.0,0.0,0.0,0.0,0.0,0.0,0.0,0.0,0.0,0.0,0.0,0.0,0.0,0.0,0.0,0.0,0.0,0.0,0.0,0.0,0.0,0.0,0.0,0.0,0.0,0.0,0.0,0.0,0.0,-0.9292,0.0,0.0,0.0,0.0,0.0,0.0,0.0,0.0,0.0,0.0,0.0,0.0,0.0,0.0,0.0,0.0,0.0,0.0,0.0,0.0,0.0,0.0,0.0,0.0,0.0,0.0,0.0,0.0,0.0,0.0,0.0,0.0,0.0,0.0,0.0,0.0,0.0,0.0,0.0,0.0,0.0,0.0,0.0,0.0,0.0,0.0,0.0,0.0,0.0,0.0,0.0,0.0,0.0,0.0,0.0,0.0,0.0,0.0,0.0,-0.4667,-0.2322,-0.1131,-0.0302,0.0211,0.053,0.0429,0.0,0.0,0.0,0.0,0.0,0.0,0.0,0.0,0.0,0.0,0.0,0.0,0.0,0.0,0.0,0.0,0.0,0.0,0.0,0.0,0.0,0.0,0.0,0.0,0.0,0.0,0.0,0.0,0.0,0.0,0.0,0.0,0.0,0.0,0.0,0.0,0.0,0.0,0.0,0.0,0.0,0.0,0.0,0.0,0.0,0.0,0.0,0.0,0.0,0.0,0.0,0.0,0.0,0.0,0.0,0.0,0.0,0.0,0.0,0.0,0.0,0.0,0.0,0.0,0.0,0.0,0.0,0.0,0.0,0.0,0.0,0.0,0.0,0.0,0.0,0.0,0.0,0.0,0.0,0.0,0.0,0.0,0.0,0.0,0.0,0.0,0.0,0.0,0.0,0.0,0.0,0.0,0.0,0.0,0.0,0.0,0.0,0.0,0.0,0.0,0.0,0.0,0.0,0.0,0.0,0.0,0.0,-0.5477,-0.3887,-0.135,-0.0733,-0.0316,-0.0019,0.0277,0.0224,-0.0273,0.0,0.0,0.0,0.0,0.0,0.0,0.0,0.0,0.0,0.0,0.0,0.0,0.0,0.0,0.0,0.0,0.0,0.0,0.0,0.0,0.0,0.0,0.0,0.0,0.0,0.0,0.0,0.0,0.0,0.0,0.0,0.0,0.0,0.0,0.0,0.0,0.0,0.0,-1.1009,-1.2993,0.0,0.0,0.0,0.0,0.0,0.0,0.0,0.0,-0.7761,0.0,0.0,0.0,0.0,0.0,0.0,0.0,0.0,0.0,0.0,0.0,0.0,0.0,0.0,0.0,0.0,0.0,0.0,0.0,0.0,0.0,0.0,0.0,0.0,0.0,0.0,0.0,0.0,0.0,0.0,0.0,0.0,0.0,0.0,0.0,0.0,0.0,0.0,0.0,0.0,0.0,0.0,0.0,0.0,0.0,0.0,0.0,0.0,0.0,0.0,0.0,0.0,0.0,0.0,0.0,0.0,-0.6401,-0.5612,-0.3824,-0.1061,-0.0824,-0.0525,-0.0121,-0.0183,-0.0209,-0.0179,0.0,0.0,0.0,0.0,0.0,0.0,0.0,0.0,0.0,0.0,0.0,0.0,0.0,0.0,0.0,0.0,0.0,0.0,0.0,0.0,0.0,0.0,0.0,0.0,0.0,0.0,0.0,0.0,0.0,0.0,0.0,0.0,0.0,0.0,0.0,0.0,0.0,0.0,0.0,-1.3311,-1.4285,0.0,0.0,0.0,0.0,0.0,0.0,0.0,0.0,-0.6225,0.0,0.0,0.0,0.0,0.0,0.0,0.0,0.0,0.0,0.0,0.0,0.0,0.0,0.0,0.0,0.0,0.0,0.0,0.0,0.0,0.0,0.0,0.0,0.0,0.0,0.0,0.0,0.0,0.0,0.0,0.0,0.0,0.0,0.0,0.0,0.0,0.0,0.0,0.0,0.0,0.0,0.0,0.0,0.0,0.0,0.0,0.0,0.0,0.0,0.0,0.0,0.0,0.0,0.0,0.0,-0.6285,-0.4871,-0.3062,-0.0989,-0.0806,-0.0588,-0.0276,-0.0343,-0.0405,0.0,0.0,0.0,0.0,0.0,0.0,0.0,0.0,0.0,0.0,0.0,0.0,0.0,0.0,0.0,0.0,0.0,0.0,0.0,0.0,0.0,0.0,0.0,0.0,0.0,0.0,0.0,0.0,0.0,0.0,0.0,0.0,0.0,0.0,0.0,0.0,0.0,0.0,0.0,0.0,-1.3744,-1.395,-1.2459,0.0,0.0,0.0,0.0,0.0,0.0,-0.8169,-0.6847,0.0,0.0,0.0,0.0,0.0,0.0,0.0,0.0,0.0,0.0,0.0,0.0,0.0,0.0,0.0,0.0,0.0,0.0,0.0,0.0,0.0,0.0,0.0,0.0,0.0,0.0,0.0,0.0,0.0,0.0,0.0,0.0,0.0,0.0,0.0,0.0,0.0,0.0,0.0,0.0,0.0,0.0,0.0,0.0,0.0,0.0,0.0,0.0,0.0,0.0,0.0,0.0,0.0,0.0,0.0,-0.6121,-0.4126,-0.2353,-0.0965,-0.0773,-0.0619,-0.0402,-0.0426,-0.0501,0.0,0.0,0.0,0.0,0.0,0.0,0.0,0.0,0.0,0.0,0.0,0.0,0.0,0.0,0.0,0.0,0.0,0.0,0.0,0.0,0.0,0.0,0.0,0.0,0.0,0.0,0.0,0.0,0.0,0.0,0.0,0.0,0.0,0.0,0.0,0.0,0.0,0.0,0.0,0.0,0.0,-1.332,-1.2055,-1.2522,0.0,0.0,0.0,0.0,-1.0264,-0.9016,0.0,0.0,0.0,0.0,0.0,0.0,0.0,0.0,0.0,0.0,0.0,0.0,0.0,0.0,0.0,0.0,0.0,0.0,0.0,0.0,0.0,0.0,0.0,0.0,0.0,0.0,0.0,0.0,0.0,0.0,0.0,0.0,0.0,0.0,0.0,0.0,0.0,0.0,0.0,0.0,0.0,0.0,0.0,0.0,0.0,0.0,0.0,0.0,0.0,0.0,0.0,0.0,0.0,0.0,0.0,0.0,-0.6113,-0.4043,-0.227,-0.0965,-0.0826,-0.0667,-0.0405,-0.0455,-0.0554,0.0,0.0,0.0,0.0,0.0,0.0,0.0,0.0,0.0,0.0,0.0,0.0,0.0,0.0,0.0,0.0,0.0,0.0,0.0,0.0,0.0,0.0,0.0,0.0,0.0,0.0,0.0,0.0,0.0,0.0,0.0,0.0,0.0,0.0,0.0,0.0,0.0,0.0,0.0,0.0,0.0,-1.2319,-1.0665,-1.1566,-1.218,0.0,0.0,-1.0665,-1.047,-0.9504,0.0,0.0,0.0,0.0,0.0,0.0,0.0,0.0,0.0,0.0,0.0,0.0,0.0,0.0,0.0,0.0,0.0,0.0,0.0,0.0,0.0,0.0,0.0,0.0,0.0,0.0,0.0,0.0,0.0,0.0,0.0,0.0,0.0,0.0,0.0,0.0,0.0,0.0,0.0,0.0,0.0,0.0,0.0,0.0,0.0,0.0,0.0,0.0,0.0,0.0,0.0,0.0,0.0,0.0,0.0,-0.5457,-0.6203,-0.3771,-0.1977,-0.1046,-0.0903,-0.0715,-0.0401,-0.0574,-0.0631,0.0,0.0,0.0,0.0,0.0,0.0,0.0,0.0,0.0,0.0,0.0,0.0,0.0,0.0,0.0,0.0,0.0,0.0,0.0,0.0,0.0,0.0,0.0,0.0,0.0,0.0,0.0,0.0,0.0,0.0,0.0,0.0,0.0,0.0,0.0,0.0,0.0,0.0,0.0,0.0,0.0,0.0,-1.1711,-1.2191,0.0,0.0,0.0,-1.2201,-1.1688,0.0,0.0,0.0,0.0,0.0,0.0,0.0,0.0,0.0,0.0,0.0,0.0,0.0,0.0,0.0,0.0,0.0,0.0,0.0,0.0,0.0,0.0,0.0,0.0,0.0,0.0,0.0,0.0,0.0,0.0,0.0,0.0,0.0,0.0,0.0,0.0,0.0,0.0,0.0,0.0,0.0,0.0,0.0,0.0,0.0,0.0,0.0,0.0,0.0,0.0,0.0,0.0,0.0,0.0,0.0,0.0,0.0,-0.6386,-0.3635,-0.1837,-0.1233,-0.1123,-0.0892,-0.0608,-0.0735,0.0,0.0,0.0,0.0,0.0,0.0,0.0,0.0,0.0,0.0,0.0,0.0,0.0,0.0,0.0,0.0,0.0,0.0,0.0,0.0,0.0,0.0,0.0,0.0,0.0,0.0,0.0,-0.6136,0.0,0.0,0.0,0.0,0.0,0.0,0.0,0.0,0.0,0.0,0.0,0.0,0.0,0.0,-1.2406,-1.2391,-1.2459,-1.23,0.0,0.0,-1.3124,-1.2183,-1.1482,-1.1012,0.0,0.0,0.0,0.0,0.0,0.0,0.0,0.0,0.0,0.0,0.0,0.0,0.0,0.0,0.0,0.0,0.0,0.0,0.0,0.0,0.0,0.0,0.0,0.0,0.0,0.0,0.0,0.0,0.0,0.0,0.0,0.0,0.0,0.0,0.0,0.0,0.0,0.0,0.0,0.0,0.0,0.0,0.0,0.0,0.0,0.0,0.0,0.0,0.0,0.0,0.0,0.0,0.0,0.0,0.0,-0.6513,-0.3781,-0.2058,-0.1584,-0.149,-0.1335,-0.1061,-0.0953,-0.1039,0.0,0.0,0.0,0.0,0.0,0.0,0.0,0.0,0.0,0.0,0.0,0.0,0.0,0.0,0.0,0.0,0.0,0.0,0.0,0.0,0.0,0.0,0.0,0.0,0.0,0.0,0.0,0.0,0.0,0.0,0.0,0.0,0.0,0.0,0.0,0.0,0.0,0.0,0.0,0.0,0.0,-1.1577,-1.1569,-1.1581,-1.1189,0.0,0.0,-1.2303,-1.1026,-1.1278,-1.1592,-1.1391,0.0,0.0,0.0,0.0,0.0,0.0,0.0,0.0,0.0,0.0,0.0,0.0,0.0,0.0,0.0,0.0,0.0,0.0,0.0,0.0,0.0,0.0,0.0,0.0,0.0,0.0,0.0,0.0,0.0,0.0,0.0,0.0,0.0,0.0,0.0,0.0,0.0,0.0,0.0,0.0,0.0,0.0,0.0,0.0,0.0,0.0,0.0,0.0,0.0,0.0,0.0,0.0,0.0,-0.5197,-0.6641,-0.4128,-0.2427,-0.1708,-0.1727,-0.1532,-0.1112,-0.113,-0.1102,0.0,0.0,0.0,0.0,0.0,0.0,0.0,0.0,0.0,0.0,0.0,0.0,0.0,0.0,0.0,0.0,0.0,0.0,0.0,0.0,0.0,0.0,0.0,0.0,0.0,0.0,0.0,0.0,-0.9411,-1.0715,-1.1635,0.0,0.0,0.0,0.0,0.0,0.0,0.0,0.0,0.0,0.0,-1.2043,-1.1519,-1.147,0.0,0.0,-1.1889,-1.2517,-1.1958,-1.2015,-1.2252,-1.2584,-1.2851,0.0,0.0,0.0,0.0,0.0,0.0,0.0,0.0,0.0,0.0,0.0,0.0,0.0,0.0,0.0,0.0,0.0,0.0,0.0,0.0,0.0,0.0,0.0,0.0,0.0,0.0,0.0,0.0,0.0,0.0,0.0,0.0,0.0,0.0,0.0,0.0,0.0,0.0,0.0,0.0,0.0,0.0,0.0,0.0,0.0,0.0,0.0,0.0,0.0,0.0,0.0,0.0,-0.532,-0.673,-0.4328,-0.2692,-0.1888,-0.1921,-0.1764,-0.1356,-0.1408,-0.1341,0.0,0.0,0.0,0.0,0.0,0.0,0.0,0.0,0.0,0.0,0.0,0.0,0.0,0.0,0.0,0.0,0.0,0.0,0.0,0.0,0.0,0.0,0.0,0.0,0.0,0.0,0.0,0.0,-1.113,-1.2332,-1.253,0.0,0.0,0.0,0.0,0.0,0.0,0.0,0.0,0.0,0.0,-1.247,-1.1872,-1.1832,-1.1874,-1.1882,-1.2576,-1.2998,-1.2676,-1.2568,-1.2736,-1.3355,0.0,0.0,0.0,0.0,0.0,0.0,0.0,0.0,0.0,0.0,0.0,0.0,0.0,0.0,0.0,0.0,0.0,0.0,0.0,0.0,0.0,0.0,0.0,0.0,0.0,0.0,0.0,0.0,0.0,0.0,-0.3683,0.0,0.0,0.0,0.0,0.0,0.0,0.0,0.0,0.0,0.0,0.0,0.0,0.0,0.0,0.0,0.0,0.0,0.0,0.0,0.0,0.0,0.0,-0.5383,-0.6851,-0.4351,-0.2785,-0.2301,-0.2152,-0.2024,-0.1889,-0.1821,-0.1773,-0.177,0.0,0.0,0.0,0.0,0.0,0.0,0.0,0.0,0.0,0.0,0.0,0.0,0.0,0.0,0.0,0.0,0.0,0.0,0.0,0.0,0.0,0.0,0.0,0.0,0.0,0.0,-1.3422,-1.3505,-1.2926,0.0,0.0,0.0,0.0,0.0,0.0,0.0,0.0,0.0,0.0,-1.3251,-1.2709,-1.2643,-1.2721,-1.273,-1.2737,-1.3464,-1.3746,-1.2855,-1.276,-1.2968,0.0,0.0,0.0,0.0,0.0,0.0,0.0,0.0,0.0,0.0,0.0,0.0,0.0,0.0,0.0,0.0,0.0,0.0,0.0,0.0,0.0,0.0,0.0,0.0,0.0,0.0,0.0,-0.5918,-0.5621,0.0,0.0,0.0,0.0,0.0,0.0,0.0,0.0,0.0,0.0,0.0,-0.9516,-0.9266,0.0,0.0,0.0,0.0,0.0,0.0,0.0,0.0,0.0,0.0,0.0,0.0,-0.6337,-0.7152,-0.481,-0.3343,-0.2968,-0.2839,-0.2591,-0.225,-0.2203,-0.2268,-0.2371,0.0,0.0,0.0,0.0,0.0,0.0,0.0,0.0,0.0,0.0,0.0,0.0,0.0,0.0,0.0,0.0,0.0,0.0,0.0,0.0,0.0,0.0,0.0,0.0,0.0,-1.1502,0.0,0.0,0.0,0.0,0.0,0.0,0.0,0.0,0.0,0.0,0.0,-1.4858,-1.4102,-1.367,-1.3248,-1.2761,-1.2675,-1.2685,0.0,0.0,0.0,0.0,0.0,0.0,0.0,0.0,0.0,0.0,0.0,0.0,0.0,0.0,-1.2489,-1.3328,-1.3231,-1.2962,-1.2699,0.0,0.0,0.0,0.0,0.0,0.0,0.0,0.0,0.0,0.0,0.0,0.0,0.0,0.0,-0.7058,0.0,-0.6655,0.0,0.0,0.0,0.0,0.0,0.0,0.0,0.0,-0.9116,-0.9793,-1.057,-1.0233,-1.0245,0.0,-1.0009,-0.9293,0.0,0.0,0.0,0.0,0.0,0.0,0.0,0.0,-0.6819,-0.7433,-0.5067,-0.3625,-0.3353,-0.3125,-0.29,-0.2657,-0.246,-0.2472,-0.2695,-0.1899,-0.1882,0.0,0.0,0.0,0.0,0.0,0.0,0.0,0.0,0.0,0.0,0.0,0.0,0.0,0.0,0.0,0.0,0.0,0.0,0.0,0.0,0.0,0.0,0.0,-1.2323,0.0,0.0,0.0,0.0,0.0,0.0,0.0,0.0,0.0,-1.5039,-1.4995,-1.4706,-1.402,-1.3791,-1.3538,-1.3141,0.0,0.0,0.0,0.0,0.0,0.0,0.0,-1.4126,-1.4385,-1.4717,-1.4748,-1.4216,-1.3334,-1.2966,-1.3689,0.0,0.0,-1.3852,-1.3795,-1.3687,-1.3974,-1.3675,-1.3377,-1.3467,-1.342,-1.334,0.0,0.0,0.0,0.0,0.0,0.0,0.0,0.0,-0.8498,-0.8064,0.0,-0.8064,0.0,0.0,0.0,0.0,0.0,-0.9102,0.0,0.0,-1.0793,-1.1256,-1.1195,-1.1171,-1.1147,-1.1147,-1.1111,-1.0822,-1.0249,-0.85,0.0,0.0,0.0,0.0,0.0,0.0,-0.6845,-0.7538,-0.5079,-0.3655,-0.3472,-0.311,-0.3001,-0.3107,-0.2602,-0.2427,-0.2634,-0.2168,-0.2126,-0.2665,-0.2283,0.0,0.0,0.0,0.0,0.0,0.0,0.0,0.0,0.0,0.0,0.0,0.0,0.0,0.0,0.0,0.0,0.0,0.0,0.0,0.0,-1.416,0.0,0.0,0.0,0.0,0.0,0.0,0.0,0.0,0.0,0.0,-1.4791,-1.4737,-1.4468,-1.3899,0.0,0.0,0.0,0.0,-1.4047,-1.4646,-1.4749,-1.4703,-1.4588,-1.4625,-1.4413,-1.3664,0.0,0.0,-1.4813,-1.4147,-1.3793,-1.47,-1.4155,-1.3695,-1.3339,-1.3392,-1.3664,-1.436,-1.4419,-1.4357,-1.4228,-1.4168,-1.4064,-0.9916,0.0,0.0,0.0,0.0,-0.9798,-1.0312,-1.077,-1.0703,-1.0361,-0.9915,-0.9768,0.0,0.0,0.0,0.0,0.0,0.0,-1.0677,-1.1263,-1.1361,-1.1872,-1.2806,-1.2432,-1.2251,-1.2205,-1.1877,-1.1419,-1.0858,-1.0314,-0.9561,-0.8592,0.0,0.0,0.0,0.0,-0.7269,-0.7039,-0.5386,-0.4458,-0.4392,-0.3881,-0.3639,-0.3646,-0.2869,-0.2372,-0.2218,-0.2101,-0.2122,-0.2243,-0.1932,0.0,0.0,0.0,0.0,0.0,0.0,0.0,0.0,0.0,0.0,0.0,0.0,0.0,0.0,0.0,0.0,0.0,0.0,0.0,-1.4248,-1.1571,-1.0703,0.0,0.0,0.0,0.0,0.0,0.0,0.0,0.0,0.0,-1.4808,-1.4569,-1.4354,0.0,0.0,-1.3971,-1.408,-1.4041,-1.4085,-1.4283,-1.4253,0.0,-1.4168,-1.4229,-1.4168,-1.3908,-1.368,-1.3561,-1.3662,-1.2619,-1.2038,-1.287,-1.2427,-1.2113,-1.2673,-1.3298,-1.3752,-1.3908,-1.4328,-1.4688,-1.4522,-1.4485,-1.4425,-1.2012,-1.1325,-1.0695,-1.0577,-1.0832,-1.1199,-1.1635,-1.2126,-1.1949,-1.1572,-1.1162,-1.1084,-1.0537,-0.9623,-0.9958,0.0,0.0,0.0,-1.1908,-1.2591,-1.2398,-1.2847,-1.377,-1.3493,-1.3216,-1.2999,-1.2662,-1.2167,-1.1411,-1.1411,-1.0913,-0.9868,0.0,0.0,-0.8973,-0.8196,-0.7655,-0.7258,-0.5982,-0.5361,-0.5405,-0.4771,-0.4393,-0.4368,-0.357,-0.3061,-0.2911,-0.2482,-0.2347,-0.2506,-0.2066,-0.2278,0.0,0.0,0.0,0.0,0.0,0.0,0.0,0.0,0.0,0.0,0.0,-0.6777,-0.5452,0.0,0.0,0.0,-1.1011,-1.264,-1.1844,-1.074,0.0,0.0,0.0,0.0,0.0,0.0,0.0,-1.472,-1.4889,-1.4983,-1.5,-1.4814,-1.4783,-1.4999,-1.4866,-1.4777,-1.49,0.0,-1.4731,-1.4353,-1.4285,-1.4262,-1.4244,-1.4044,-1.3913,-1.3917,-1.3391,-1.316,-1.3515,-1.2822,-1.248,-1.2807,-1.2275,-1.1869,-1.27,-1.3131,-1.356,-1.4119,-1.4666,-1.507,-1.5251,-1.5068,-1.4799,-1.4011,-1.3818,-1.2083,-1.1658,-1.2091,-1.2177,-1.2493,-1.2939,-1.2549,-1.2109,-1.1743,-1.2061,-1.1794,-1.1172,-1.1949,0.0,-1.2519,-1.2842,-1.3302,-1.3802,-1.3802,-1.404,-1.441,-1.441,-1.4144,-1.3638,-1.3626,-1.3083,-1.2049,-1.2046,-1.1733,-1.1099,-1.0606,-1.0089,-0.9497,-0.8584,-0.802,-0.7837,-0.6731,-0.624,-0.6352,-0.5659,-0.5258,-0.5192,-0.4579,-0.4245,-0.4267,-0.3208,-0.2752,-0.3056,-0.2523,-0.2755,-0.3885,0.0,0.0,0.0,0.0,0.0,0.0,0.0,0.0,0.0,0.0,0.0,0.0,0.0,0.0,0.0,-1.1647,0.0,-0.8039,-1.1252,0.0,0.0,0.0,-1.5055,-1.5949,-1.56,-1.5385,-1.5602,0.0,0.0,-1.5342,-1.5305,-1.5513,-1.5975,-1.5766,-1.5679,-1.5906,-1.58,-1.5557,-1.4727,-1.4693,-1.4727,-1.464,-1.4246,-1.3997,-1.4073,-1.3461,-1.3466,-1.4046,-1.4026,-1.41,-1.4393,-1.3272,-1.253,-1.3327,-1.3083,-1.3106,-1.4842,-1.5201,-1.5506,-1.6132,-1.5727,-1.5148,-1.5074,-1.4772,-1.4295,-1.3728,-1.3218,-1.3723,-1.383,-1.3671,-1.3669,-1.3262,-1.2559,-1.2324,-1.2113,-1.2016,-1.2923,-1.3362,-1.3426,-1.3769,-1.4225,-1.4672,-1.4684,-1.4983,-1.5452,-1.542,-1.5187,-1.4653,-1.4629,-1.4129,-1.3168,-1.3119,-1.2444,-1.1147,-1.0966,-1.0449,-0.9533,-0.926,-0.8558,-0.7387,-0.7079,-0.6705,-0.6191,-0.5984,-0.5914,-0.6004,-0.5659,-0.5115,-0.4338,-0.378,-0.3079,-0.221,-0.2631,-0.2938,-0.2961,-0.3636,0.0,0.0,0.0,0.0,0.0,0.0,0.0,0.0,0.0,-0.9283,-0.6708,0.0,-1.1284,0.0,-1.0597,-1.1157,-1.0712,-1.2123,0.0,0.0,-1.4367,-1.4816,-1.4767,-1.5064,-1.52,-1.4968,-1.5298,-1.5527,-1.5527,-1.5527,-1.5751,-1.6322,-1.5319,-1.4677,-1.5181,-1.4869,-1.4663,-1.487,-1.5071,-1.5114,-1.5074,-1.5248,-1.5314,-1.5313,-1.499,-1.4748,-1.4717,-1.3922,-1.3671,-1.4751,-1.395,-1.3402,-1.4062,-1.4173,-1.4296,-1.4859,-1.5063,-1.5429,-1.627,-1.5828,-1.5251,-1.5725,-1.5349,-1.5175,-1.4676,-1.3959,-1.4459,-1.4752,-1.4854,-1.4512,-1.4,-1.3398,-1.3014,-1.3068,-1.3568,-1.409,-1.4545,-1.4971,-1.4971,-1.5115,-1.5348,-1.536,-1.5516,-1.5792,-1.5792,-1.5516,-1.5013,-1.5001,-1.4622,-1.3879,-1.3855,-1.3276,-1.2169,-1.2179,-1.1648,-1.0594,-0.9734,-0.8911,-0.8057,-0.7949,-0.7618,-0.7065,-0.6896,-0.6839,-0.6905,-0.6484,-0.6019,-0.557,-0.4997,-0.4444,-0.3917,-0.382,-0.3739,-0.3653,-0.4873,-0.573,0.0,0.0,0.0,0.0,0.0,0.0,0.0,0.0,0.0,0.0,0.0,-1.2092,-1.1989,-1.2412,-1.2738,-1.2837,-1.315,-1.3551,-1.4048,-1.4616,-1.4986,-1.5133,-1.5381,-1.5521,-1.5386,-1.5649,-1.5848,-1.5848,-1.5848,-1.6015,-1.6374,-1.5343,-1.4892,-1.5766,-1.5648,-1.5462,-1.546,-1.5572,-1.5528,-1.5249,-1.5849,-1.6209,-1.5952,-1.6115,-1.608,-1.5243,-1.4784,-1.4629,-1.4729,-1.3876,-1.3376,-1.4162,-1.4184,-1.4305,-1.5094,-1.5119,-1.5323,-1.6163,-1.5758,-1.5229,-1.6156,-1.5735,-1.534,-1.5007,-1.4699,-1.4693,-1.5128,-1.5843,-1.4961,-1.4337,-1.4004,-1.3748,-1.4116,-1.4978,-1.5061,-1.5612,-1.644,-1.5996,-1.5792,-1.5792,-1.5792,-1.5792,-1.5792,-1.5792,-1.5552,-1.5121,-1.5109,-1.4833,-1.4397,-1.4385,-1.4084,-1.3517,-1.3505,-1.2963,-1.1868,-1.0261,-0.9382,-0.9184,-0.8982,-0.8723,-0.8377,-0.7958,-0.7754,-0.7734,-0.7149,-0.6877,-0.6975,-0.6304,-0.6057,-0.6259,-0.5253,-0.4806,-0.5185,-0.6754,-0.7535,0.0,-0.7271,0.0,0.0,0.0,0.0,0.0,0.0,0.0,0.0,-1.0313,-1.2784,-1.4507,-1.5035,-1.4952,-1.4156,-1.4078,-1.4389,-1.5159,-1.5247,-1.5464,-1.6004,-1.5948,-1.589,-1.6105,-1.6225,-1.6271,-1.6258,-1.632,-1.6381,-1.6412,-1.5832,-1.5831,-1.6901,-1.6901,-1.654,-1.6152,-1.6191,-1.6128,-1.5797,-1.6382,-1.6821,-1.64,-1.6694,-1.6971,-1.5833,-1.5775,-1.5666,-1.4684,-1.3828,-1.3484,-1.4206,-1.3883,-1.3995,-1.5312,-1.513,-1.5094,-1.5877,-1.5624,-1.513,-1.6569,-1.6166,-1.5753,-1.5654,-1.5657,-1.4874,-1.4725,-1.4914,-1.4516,-1.4019,-1.3491,-1.3557,-1.39,-1.4471,-1.4914,-1.5392,-1.5936,-1.584,-1.5792,-1.5792,-1.5792,-1.5792,-1.5792,-1.5792,-1.5744,-1.5648,-1.5636,-1.5372,-1.4857,-1.4857,-1.4418,-1.3517,-1.3505,-1.2975,-1.195,0.0,0.0,0.0,-0.9403,-0.9264,-0.9166,-0.8479,-0.8101,-0.8111,-0.8079,0.0,-0.6524,-0.6588,-0.6215,-0.5278,-0.5422,0.0,0.0,0.0,0.0,0.0,0.0,0.0,0.0,0.0,0.0,0.0,-1.2051,-1.1895,-1.1702,-1.3118,-1.4155,-1.4436,-1.4582,-1.4207,-1.3124,-1.4237,-1.4752,-1.4111,-1.5374,-1.6097,-1.558,-1.5472,-1.5532,-1.5769,-1.6248,-1.6608,-1.6638,-1.6998,-1.7297,-1.7223,-1.6773,-1.6849,-1.7745,-1.6784,-1.6205,-1.6734,-1.6922,-1.7019,-1.6992,-1.7294,-1.7453,-1.7411,-1.6751,-1.6554,-1.6659,-1.5451,-1.5098,-1.5523,-1.4827,-1.4136,-1.495,-1.4552,-1.4144,-1.4678,-1.4648,-1.4892,-1.5939,-1.5559,-1.5038,-1.6963,0.0,-1.6175,-1.5956,0.0,-1.5087,-1.4851,-1.4874,-1.4585,-1.4289,-1.3941,-1.4175,-1.4697,-1.5449,-1.5754,-1.6279,-1.6931,-1.6416,-1.6188,-1.6164,-1.5912,-1.5792,-1.5792,-1.5792,-1.5792,-1.5792,-1.5792,-1.566,-1.5408,-1.5384,-1.4989,-1.4237,-1.4237,-1.3724,-1.2705,-1.2436,-1.1685,-1.046,-1.0355,-1.0215,-0.9968,-0.9656,-0.9381,-0.9197,-0.9035,0.0,0.0,0.0,0.0,0.0,0.0,0.0,0.0,-0.8812,0.0,-0.8999,-0.9483,-0.9799,-0.9843,-1.1562,-1.2722,-1.2877,-1.3857,-1.4412,-1.4377,-1.466,-1.5161,-1.588,-1.6002,-1.5664,-1.4862,-1.5535,-1.5826,-1.533,-1.5663,-1.5966,-1.6153,-1.6211,-1.6276,-1.643,-1.6728,-1.6949,-1.6949,-1.7199,-1.739,-1.739,-1.7155,-1.7181,-1.7603,-1.6861,-1.6368,-1.6993,-1.7199,-1.7257,-1.7289,-1.718,-1.7226,-1.7186,-1.6603,-1.615,-1.627,-1.5331,-1.4742,-1.5154,-1.4595,-1.427,-1.4594,-1.4419,-1.4227,-1.4326,-1.4398,-1.4611,-1.5243,-1.5113,-1.4892,-1.7376,-1.6972,-1.6587,-1.6138,-1.5661,-1.534,-1.5166,-1.5065,0.0,0.0,0.0,-1.4844,-1.5531,-1.6455,-1.6632,-1.7193,-1.7989,-1.7171,-1.6774,-1.6738,-1.6176,-1.5984,-1.6068,-1.5972,-1.5936,-1.5936,-1.5924,-1.5876,-1.5792,-1.5792,-1.5576,-1.5193,-1.506,-1.4514,-1.3569,-1.3146,-1.2484,-1.157,-1.1433,-1.1213,-1.0851,-1.0788,-1.0563,-1.0156,-0.9872,-0.9672,-0.9599,-0.9332,-0.9362,-0.9697,-0.9963,-1.0266,-1.0578,-1.0554,-1.062,-1.0816,-1.0935,-1.1014,-1.1097,-1.2866,-1.3946,-1.3915,-1.5079,-1.5879,-1.6068,-1.5711,-1.605,-1.7525,-1.7721,-1.7514,-1.7015,-1.7086,-1.7072,-1.6908,-1.632,-1.632,-1.6984,-1.7242,-1.7238,-1.7229,-1.7287,-1.7388,-1.7388,-1.7519,-1.7548,-1.7534,-1.7524,-1.7388,-1.7501,-1.7268,-1.7082,-1.7307,-1.7434,-1.7378,-1.7175,-1.6974,-1.6747,-1.7046,-1.6385,-1.5731,-1.5428,-1.5055,-1.4614,-1.4207,-1.4072,-1.4118,-1.4114,-1.415,-1.4175,-1.4201,-1.4282,-1.4399,-1.4485,-1.4619,-1.4738,-1.7789,-1.7376,-1.6991,-1.6386,-1.568,-1.5634,-1.5414,-1.5038,-1.4597,-1.4346,-1.4364,-1.479,-1.5351,-1.5942,-1.6485,-1.6994,-1.7508,-1.7364,-1.7303,-1.7267,-1.6715,-1.6703,-1.7159,-1.6726,-1.6522,-1.6464,-1.651,-1.6236,-1.584,-1.5792,-1.5744,-1.564,-1.5274,-1.4609,-1.3688,-1.3921,-1.3753,-1.3167,-1.226,-1.1778,-1.1706,-1.1069,-1.0494,-1.0059,-1.0112,-0.9939,-0.9609,-0.9911,-1.0066,-1.0124,-1.0184,-1.0915,-1.2423,-1.0932,-1.0562,-1.1931,-1.148,-1.1024,-1.0899,-1.2952,-1.4596,-1.5408,-1.5672,-1.5983,-1.638,-1.6721,-1.7142,-1.7759,-1.8101,-1.8162,-1.7673,-1.8049,-1.7918,-1.7155,-1.7794,-1.8061,-1.7277,-1.7505,-1.7617,-1.7282,-1.7722,-1.8071,-1.81,-1.8462,-1.8724,-1.8724,-1.8259,-1.7943,-1.7829,-1.8023,-1.8168,-1.8039,-1.8026,-1.7808,-1.7394,-1.7208,-1.7136,-1.7461,-1.629,-1.5465,-1.559,-1.4722,-1.4033,-1.3868,-1.3952,-1.4072,-1.4082,-1.4096,-1.4132,-1.4162,-1.4232,-1.4252,-1.438,-1.4497,-1.4566,-1.821,-1.7798,-1.7394,-1.689,-1.634,-1.612,-1.5873,-1.5603,-1.5397,-1.5093,-1.4792,-1.5396,-1.6018,-1.66,-1.7206,-1.7791,-1.8265,-1.7965,-1.7845,-1.7796,-1.7303,-1.7183,-1.7376,-1.7111,-1.7051,-1.7039,-1.6703,-1.6452,-1.6212,-1.5936,-1.5792,-1.5772,-1.5279,-1.4956,-1.4801,-1.4161,-1.4019,-1.4268,-1.3562,-1.3204,-1.3192,-1.2847,-1.2545,-1.2361,-1.2197,-1.2019,-1.1834,-1.1782,-1.1859,-1.2097,-1.1833,-1.2184,-1.326,-1.2378,-1.2194,-1.3015,-1.2951,-1.2901,-1.3054,-1.4339,-1.531,-1.578,-1.5792,-1.5869,-1.61,-1.6565,-1.7186,-1.8055,-1.8189,-1.8143,-1.8096,-1.8179,-1.806,-1.781,-1.8345,-1.8313,-1.7695,-1.8012,-1.8201,-1.7811,-1.8252,-1.8695,-1.868,-1.8927,-1.9101,-1.9043,-1.8593,-1.8314,-1.8634,-1.8849,-1.8811,-1.8461,-1.8237,-1.8048,-1.7685,-1.7011,-1.6757,-1.6874,-1.5645,-1.4933,-1.5012,-1.4212,-1.371,-1.3682,-1.3791,-1.3851,-1.3923,-1.3938,-1.3995,-1.4136,-1.4145,-1.4185,-1.427,-1.4368,-1.4504,-1.8559,-1.8091,-1.777,-1.7358,-1.6872,-1.6386,-1.6112,-1.6104,-1.6175,-1.5898,-1.5587,-1.6163,-1.6747,-1.7268,-1.7977,-1.8604,-1.9054,-1.8746,-1.8566,-1.8494,-1.7893,-1.764,-1.776,-1.776,-1.7712,-1.7604,-1.74,-1.7111,-1.6596,-1.6284,-1.5932,-1.5601,-1.5174,-1.5156,-1.537,-1.4497,-1.425,-1.4786,-1.4618,-1.4368,-1.4129,-1.4023,-1.3912,-1.3836,-1.3737,-1.3584,-1.3395,-1.3224,-1.3266,-1.3455,-1.3105,-1.3133,-1.3608,-1.3552,-1.3615,-1.3801,-1.4137,-1.4478,-1.4965,-1.5372,-1.566,-1.578,-1.5792,-1.5836,-1.5957,-1.6175,-1.6808,-1.7801,-1.7801,-1.7787,-1.8028,-1.7882,-1.7801,-1.8149,-1.8311,-1.821,-1.7927,-1.8423,-1.874,-1.8323,-1.8722,-1.9064,-1.9064,-1.9101,-1.9029,-1.8825,-1.8593,-1.8753,-1.9218,-1.9334,-1.9239,-1.8905,-1.8572,-1.8146,-1.7872,-1.6993,-1.6377,-1.6269,-1.5178,-1.4592,-1.4404,-1.3818,-1.343,-1.3509,-1.3589,-1.3652,-1.3743,-1.3789,-1.388,-1.4012,-1.4086,-1.4136,-1.4206,-1.4282,-1.4411,-1.8806,-1.8164,-1.8082,-1.7605,-1.6862,-1.6101,-1.5973,-1.6259,-1.6243,-1.6391,-1.6663,-1.69,-1.7064,-1.7356,-1.8362,-1.9142,-1.9708,-1.966,-1.9636,-1.9516,-1.8602,-1.8386,-1.8831,-1.8843,-1.859,-1.8313,-1.8951,-1.8362,-1.6799,-1.7015,-1.6512,-1.5255,-1.5012,-1.4776,-1.444,-1.5064,-1.5092,-1.4299,-1.4773,-1.4554,-1.3609,-1.3173,-1.2757,-1.2415,-1.3227,-1.3195,-1.2573,-1.3084,-1.3286,-1.2923,-1.285,-1.3053,-1.3543,-1.3522,-1.3746,-1.4224,-1.4281,-1.453,-1.4953,-1.5049,-1.5313,-1.5732,-1.5792,-1.5969,-1.6306,-1.6057,-1.6088,-1.668,-1.706,-1.7282,-1.7323,-1.7282,-1.7282,-1.7447,-1.7788,-1.8014,-1.7944,-1.8472,-1.8793,-1.8765,-1.8788,-1.8993,-1.8959,-1.8948,-1.8825,-1.8448,-1.855,-1.8688,-1.8658,-1.9045,-1.9376,-1.9383,-1.9233,-1.8379,-1.7338,-1.6962,-1.6556,-1.6093,-1.5446,-1.473,-1.4156,-1.3693,-1.3312,-1.3295,-1.3461,-1.3557,-1.362,-1.3696,-1.3771,-1.388,-1.3998,-1.4141,-1.418,-1.4219,-1.4301,-1.8981,-1.8476,-1.8467,-1.7999,-1.722,-1.6642,-1.6563,-1.6838,-1.6958,-1.6978,-1.6996,-1.7165,-1.7647,-1.8431,-1.8722,-1.9321,-2.0217,-2.0273,-2.0442,-2.0646,-1.9961,-1.9744,-1.9925,-1.9949,-1.966,-1.9155,-1.9275,-1.8879,-1.8046,-1.7258,-1.6546,-1.5903,-1.5504,-1.5353,-1.5447,-1.529,-1.5433,-1.6007,-1.5077,-1.4522,-1.4404,-1.3963,-1.3605,-1.3491,-1.3822,-1.3855,-1.3525,-1.3779,-1.3869,-1.3672,-1.342,-1.3495,-1.4,-1.4002,-1.4216,-1.4729,-1.505,-1.5241,-1.5456,-1.5468,-1.5552,-1.5792,-1.5792,-1.5881,-1.6044,-1.5925,-1.5881,-1.6088,-1.6522,-1.685,-1.7115,-1.6947,-1.6905,-1.7157,-1.7393,-1.7383,-1.697,-1.7783,-1.8193,-1.7911,-1.8198,-1.8446,-1.8358,-1.8144,-1.8071,-1.8056,-1.8172,-1.8172,-1.86,-1.8688,-1.8421,-1.8282,-1.8099,-1.8069,-1.7609,-1.677,-1.6312,-1.587,-1.5092,-1.4227,-1.3985,-1.3474,-1.3105,-1.3087,-1.3277,-1.3396,-1.3412,-1.346,-1.3539,-1.3711,-1.3952,-1.4109,-1.4132,-1.4132,-1.4159,-1.9136,-1.888,-1.876,-1.8302,-1.7651,-1.7367,-1.7309,-1.7413,-1.7618,-1.7586,-1.7532,-1.7523,-1.8258,-1.9254,-1.9214,-1.9682,-2.0677,-2.0925,-2.1332,-2.1716,-2.1151,-2.0911,-2.1031,-2.1043,-2.0754,-2.0261,-2.0045,-1.9605,-1.8851,-1.6974,-1.6092,-1.6104,-1.5635,-1.5579,-1.605,-1.5468,-1.5796,-1.6621,-1.5228,-1.462,-1.479,-1.427,-1.3931,-1.3931,-1.4025,-1.4071,-1.3931,-1.4041,-1.4052,-1.3931,-1.3577,-1.3556,-1.3888,-1.4023,-1.4418,-1.505,-1.5525,-1.5792,-1.5792,-1.5792,-1.5792,-1.5792,-1.5792,-1.5792,-1.5792,-1.5792,-1.5792,-1.5836,-1.6132,-1.6479,-1.6693,-1.6522,-1.6479,-1.6778,-1.6905,-1.6783,-1.646,-1.713,-1.7381,-1.7029,-1.7315,-1.772,-1.7898,-1.7892,-1.7956,-1.8043,-1.7948,-1.7853,-1.86,-1.8332,-1.7855,-1.7515,-1.7232,-1.7166,-1.7691,-1.6701,-1.5812,-1.5404,-1.4664,-1.3909,-1.3697,-1.3186,-1.2979,-1.3015,-1.3181,-1.3285,-1.331,-1.3328,-1.3514,-1.3702,-1.3894,-1.4012,-1.3995,-1.404,-1.4082,-1.9283,-1.9219,-1.8861,-1.8476,-1.81,-1.8045,-1.8045,-1.8027,-1.8065,-1.8228,-1.8423,-1.8083,-1.8594,-1.965,-1.9943,-2.047,-2.1106,-2.1842,-2.2414,-2.2787,-2.1897,-2.1668,-2.2101,-2.2113,-2.1849,-2.1332,-2.1668,-2.0902,-1.8884,-1.6396,-1.5183,-1.5553,-1.5215,-1.5103,-1.5575,-1.5991,-1.6116,-1.5913,-1.5322,-1.4849,-1.439,-1.3538,-1.3065,-1.3065,-1.3382,-1.343,-1.3113,-1.344,-1.344,-1.3027,-1.2977,-1.2997,-1.3017,-1.3399,-1.4086,-1.5006,-1.5525,-1.5792,-1.5792,-1.5792,-1.5792,-1.5792,-1.5792,-1.5792,-1.5792,-1.5792,-1.5792,-1.5792,-1.5836,-1.5913,-1.5969,-1.5957,-1.5925,-1.5969,-1.6306,-1.6484,-1.6459,-1.6525,-1.6454,-1.6415,-1.6437,-1.677,-1.7676,-1.851,-1.8259,-1.818,-1.8476,-1.8753,-1.8332,-1.8208,-1.8033,-1.7728,-1.7038,-1.6275,-1.6292,-1.5931,-1.5462,-1.5037,-1.4471,-1.3697,-1.3279,-1.294,-1.2924,-1.3075,-1.3425,-1.3528,-1.3332,-1.3408,-1.3718,-1.3849,-1.3796,-1.3833,-1.3877,-1.4012,-1.4086,-1.9292,-1.9256,-1.8871,-1.8623,-1.8476,-1.8238,-1.8119,-1.8082,-1.7977,-1.809,-1.8252,-1.7975,-1.8223,-1.9044,-2.054,-2.1308,-2.1728,-2.2704,-2.3484,-2.3845,-2.3244,-2.3027,-2.3183,-2.3195,-2.265,-2.1905,-2.2393,-2.172,-1.9812,-1.8068,-1.7037,-1.6393,-1.5889,-1.5733,-1.5921,-1.5816,-1.6007,-1.6469,-1.5595,-1.4912,-1.4737,-1.3867,-1.321,-1.2929,-1.3065,-1.3065,-1.2939,-1.3075,-1.3065,-1.2939,-1.2891,-1.2891,-1.2929,-1.3344,-1.4035,-1.496,-1.5244,-1.5468,-1.5748,-1.5792,-1.5792,-1.5792,-1.5792,-1.5792,-1.5792,-1.5792,-1.5792,-1.5792,-1.5792,-1.5792,-1.5792,-1.5792,-1.5792,-1.5881,-1.6231,-1.6349,-1.6194,-1.6291,-1.6344,-1.6019,-1.5787,-1.5868,-1.6173,-1.6378,-1.6694,-1.7309,-1.7646,-1.7927,-1.8078,-1.7882,-1.749,-1.6938,-1.6213,-1.5697,-1.5872,-1.5568,-1.5146,-1.471,-1.4186,-1.3614,-1.3141,-1.2932,-1.2885,-1.2934,-1.3402,-1.367,-1.3425,-1.3288,-1.3633,-1.3599,-1.3556,-1.3696,-1.3803,-1.3923,-1.4026,-1.9421,-1.9292,-1.9164,-1.9017,-1.888,-1.8614,-1.8504,-1.8458,-1.8304,-1.8274,-1.8408,-1.8251,-1.8363,-1.909,-2.0977,-2.194,-2.2207,-2.3364,-2.429,-2.4723,-2.4422,-2.4362,-2.4506,-2.453,-2.3958,-2.2931,-2.243,-2.1514,-2.0153,-1.8837,-1.7905,-1.7113,-1.6542,-1.6297,-1.6204,-1.6016,-1.6314,-1.6602,-1.5719,-1.5121,-1.4935,-1.4082,-1.333,-1.2949,-1.2891,-1.2891,-1.2891,-1.2891,-1.2891,-1.2891,-1.2891,-1.2891,-1.2929,-1.3344,-1.3988,-1.4731,-1.5017,-1.5289,-1.5703,-1.5792,-1.5792,-1.5792,-1.5792,-1.5792,-1.5792,-1.5792,-1.5792,-1.5792,-1.5792,-1.5792,-1.5792,-1.5792,-1.5792,-1.5836,-1.61,-1.6132,-1.5881,-1.5929,-1.5716,-1.5243,-1.5166,-1.5167,-1.5182,-1.5555,-1.6126,-1.685,-1.7317,-1.7948,-1.8021,-1.7635,-1.7084,-1.6561,-1.5908,-1.5519,-1.558,-1.548,-1.5251,-1.4856,-1.4034,-1.3473,-1.3138,-1.2932,-1.2873,-1.2924,-1.3143,-1.3462,-1.3524,-1.3337,-1.3275,-1.3261,-1.3379,-1.3524,-1.365,-1.3833,-1.3877,-1.9659,-1.9375,-1.9742,-1.9595,-1.9265,-1.9201,-1.9256,-1.9146,-1.8979,-1.8985,-1.9042,-1.8991,-1.9058,-1.9697,-2.1396,-2.2258,-2.2612,-2.3746,-2.4694,-2.5134,-2.517,-2.5385,-2.5648,-2.5539,-2.5266,-2.459,-2.2252,-2.0611,-1.9833,-1.8562,-1.7734,-1.7399,-1.7047,-1.6592,-1.6154,-1.6577,-1.6639,-1.6343,-1.5801,-1.5411,-1.4966,-1.4052,-1.3331,-1.2969,-1.291,-1.2891,-1.2891,-1.2891,-1.2891,-1.2891,-1.2891,-1.2891,-1.2978,-1.3334,-1.38,-1.4305,-1.4777,-1.5244,-1.5647,-1.5748,-1.5748,-1.5748,-1.5792,-1.5792,-1.5792,-1.5792,-1.5792,-1.5792,-1.5792,-1.5792,-1.5792,-1.5792,-1.5792,-1.5792,-1.5881,-1.5836,-1.5752,-1.5325,-1.4805,-1.4399,-1.4638,-1.4814,-1.5099,-1.5838,-1.6628,-1.6836,-1.7689,-1.8425,-1.8028,-1.7528,-1.7243,-1.6837,-1.6053,-1.5372,-1.5418,-1.5492,-1.5317,-1.5015,-1.4052,-1.333,-1.3094,-1.2911,-1.2919,-1.2991,-1.3577,-1.3865,-1.3534,-1.3355,-1.3132,-1.3122,-1.3244,-1.3379,-1.3492,-1.3619,-1.368,-1.9421,-1.932,-1.943,-1.943,-1.9292,-1.9292,-1.9292,-1.9256,-1.8966,-1.8887,-1.9088,-1.9203,-1.9525,-2.0301,-2.1675,-2.2576,-2.2949,-2.3875,-2.4544,-2.4962,-2.5326,-2.5125,-2.4514,-2.4438,-2.4104,-2.3492,-2.1894,-2.0864,-2.0534,-1.9757,-1.9023,-1.8291,-1.7822,-1.7402,-1.6998,-1.6634,-1.6258,-1.6088,-1.5422,-1.5029,-1.4785,-1.3972,-1.3447,-1.3301,-1.3037,-1.2891,-1.2891,-1.2891,-1.2891,-1.2891,-1.2891,-1.2891,-1.2978,-1.3344,-1.3668,-1.3836,-1.4258,-1.4582,-1.4766,-1.5096,-1.5334,-1.5379,-1.5603,-1.5792,-1.5792,-1.5804,-1.5804,-1.5804,-1.5792,-1.5792,-1.5792,-1.5792,-1.5792,-1.5792,-1.5792,-1.5792,-1.5744,-1.5348,-1.4959,-1.4732,-1.4767,-1.4828,-1.4879,-1.5657,-1.6206,-1.6705,-1.7432,-1.7726,-1.7497,-1.7294,-1.6713,-1.6036,-1.5471,-1.5297,-1.5358,-1.5345,-1.5153,-1.4917,-1.4162,-1.3443,-1.318,-1.3065,-1.3052,-1.3305,-1.3876,-1.3967,-1.3642,-1.3265,-1.3016,-1.3031,-1.3174,-1.3261,-1.3312,-1.3411,-1.3524,-1.9292,-1.9292,-1.9292,-1.9292,-1.9292,-1.9292,-1.9292,-1.9265,-1.9045,-1.9173,-1.9547,-1.9722,-2.0184,-2.1045,-2.2129,-2.2793,-2.3234,-2.4015,-2.4497,-2.4503,-2.5128,-2.4859,-2.4115,-2.3787,-2.3318,-2.2703,-2.1607,-2.0954,-2.0852,-2.0373,-1.9793,-1.9062,-1.8535,-1.8027,-1.7598,-1.6934,-1.6507,-1.6045,-1.5596,-1.5117,-1.4756,-1.4258,-1.3896,-1.3711,-1.334,-1.3135,-1.3105,-1.2969,-1.2891,-1.2891,-1.2891,-1.2891,-1.2929,-1.321,-1.343,-1.3621,-1.3894,-1.4118,-1.4305,-1.464,-1.4823,-1.4915,-1.5244,-1.5631,-1.5759,-1.5825,-1.584,-1.6044,-1.5912,-1.5792,-1.5792,-1.5792,-1.5792,-1.5792,-1.5792,-1.5792,-1.5732,-1.5504,-1.5205,-1.5061,-1.4918,-1.4823,-1.4745,-1.522,-1.5608,-1.6279,-1.7025,-1.736,-1.7263,-1.7063,-1.6432,-1.5866,-1.5447,-1.535,-1.5297,-1.5182,-1.4993,-1.47,-1.4278,-1.376,-1.3396,-1.3381,-1.3397,-1.369,-1.4178,-1.4038,-1.3722,-1.3107,-1.2735,-1.2906,-1.3051,-1.3122,-1.3192,-1.3328,-1.3428,-1.9366,-1.9329,-1.9311,-1.9292,-1.9292,-1.9292,-1.9292,-1.9292,-1.9274,-1.9687,-2.0217,-2.0424,-2.0972,-2.185,-2.2584,-2.3012,-2.3318,-2.4072,-2.424,-2.4043,-2.4405,-2.4577,-2.4373,-2.3709,-2.3044,-2.2465,-2.1638,-2.1055,-2.0722,-2.0387,-1.9961,-1.9834,-1.9082,-1.8525,-1.8154,-1.7666,-1.6953,-1.6426,-1.6223,-1.5743,-1.498,-1.4814,-1.459,-1.417,-1.374,-1.3477,-1.3398,-1.3086,-1.2891,-1.2891,-1.2891,-1.2891,-1.2891,-1.2939,-1.32,-1.3525,-1.3573,-1.38,-1.4118,-1.4212,-1.4258,-1.4305,-1.4743,-1.528,-1.5647,-1.5695,-1.5842,-1.6277,-1.6121,-1.5835,-1.5775,-1.5787,-1.5775,-1.5703,-1.5703,-1.5792,-1.5792,-1.572,-1.5444,-1.5169,-1.5025,-1.4911,-1.4607,-1.5383,-1.5535,-1.5722,-1.6863,-1.7324,-1.7208,-1.687,-1.6831,-1.6193,-1.535,-1.5224,-1.5086,-1.5254,-1.5051,-1.463,-1.4378,-1.416,-1.379,-1.376,-1.3635,-1.3955,-1.4111,-1.3984,-1.3537,-1.2801,-1.2546,-1.2738,-1.285,-1.2959,-1.3051,-1.3158,-1.3244,-2.0035,-1.9742,-1.943,-1.9292,-1.9292,-1.9292,-1.9301,-1.9292,-1.9292,-1.9463,-1.9771,-2.0353,-2.0876,-2.1441,-2.2281,-2.2829,-2.3103,-2.3463,-2.3553,-2.3305,-2.3477,-2.3438,-2.3167,-2.2682,-2.2299,-2.2058,-2.174,-2.149,-2.1064,-2.0889,-2.0664,-2.0361,-1.9541,-1.9228,-1.9219,-1.8076,-1.7519,-1.7393,-1.6826,-1.6299,-1.5771,-1.5371,-1.5039,-1.4609,-1.4014,-1.3643,-1.3486,-1.3105,-1.2891,-1.2891,-1.2891,-1.2891,-1.2929,-1.321,-1.3306,-1.3162,-1.3392,-1.3478,-1.3382,-1.361,-1.3752,-1.38,-1.4269,-1.47,-1.5163,-1.5215,-1.5432,-1.59,-1.6076,-1.5997,-1.5544,-1.5591,-1.5487,-1.4925,-1.5299,-1.5712,-1.5732,-1.5456,-1.5277,-1.548,-1.5217,-1.5061,-1.5266,-1.5459,-1.5775,-1.594,-1.6414,-1.6926,-1.6582,-1.6248,-1.5989,-1.5572,-1.4966,-1.4928,-1.4963,-1.5192,-1.508,-1.4645,-1.4513,-1.4627,-1.4308,-1.415,-1.3923,-1.3834,-1.385,-1.3767,-1.2955,-1.2163,-1.2307,-1.2526,-1.2546,-1.2604,-1.2792,-1.2924,-1.3033,-2.0631,-2.0383,-1.9989,-1.9714,-1.9577,-1.9567,-1.9467,-1.932,-1.9292,-1.9491,-1.9826,-2.0292,-2.0885,-2.1358,-2.2136,-2.2529,-2.2646,-2.2978,-2.3027,-2.29,-2.3037,-2.2881,-2.2519,-2.2142,-2.1919,-2.1875,-2.1699,-2.1465,-2.126,-2.124,-2.0986,-2.0518,-1.9893,-1.9697,-1.9746,-1.8672,-1.79,-1.7842,-1.7187,-1.6592,-1.6338,-1.5723,-1.5478,-1.5127,-1.4531,-1.3877,-1.3229,-1.3055,-1.3027,-1.2939,-1.2891,-1.2891,-1.2939,-1.3162,-1.3162,-1.292,-1.3162,-1.3152,-1.3027,-1.3162,-1.3387,-1.3575,-1.3851,-1.4467,-1.5057,-1.5167,-1.5202,-1.5735,-1.5981,-1.565,-1.5058,-1.5036,-1.4896,-1.4523,-1.4688,-1.5068,-1.5433,-1.5195,-1.515,-1.5253,-1.5049,-1.479,-1.5139,-1.5187,-1.5302,-1.548,-1.5605,-1.5836,-1.5789,-1.5434,-1.5201,-1.498,-1.4601,-1.4428,-1.4525,-1.4777,-1.4963,-1.4583,-1.463,-1.4776,-1.4731,-1.4521,-1.4332,-1.4058,-1.38,-1.3346,-1.2634,-1.2108,-1.2081,-1.2226,-1.2205,-1.2307,-1.2506,-1.2639,-1.2754,-2.1209,-2.1135,-2.0695,-2.0292,-1.9952,-1.9962,-1.9723,-1.9356,-1.9384,-1.962,-2.0074,-2.0329,-2.068,-2.1384,-2.18,-2.2178,-2.1963,-2.2598,-2.2656,-2.2676,-2.2832,-2.292,-2.2519,-2.2334,-2.2187,-2.21,-2.1621,-2.1533,-2.1514,-2.1416,-2.1084,-2.0654,-2.0176,-1.9971,-1.9834,-1.9062,-1.8477,-1.8135,-1.7451,-1.6963,-1.6738,-1.6191,-1.5918,-1.5683,-1.4934,-1.397,-1.325,-1.3118,-1.3169,-1.2929,-1.291,-1.2891,-1.2891,-1.2929,-1.2929,-1.2929,-1.2929,-1.2929,-1.2891,-1.2939,-1.3067,-1.3362,-1.3448,-1.4029,-1.4873,-1.486,-1.4907,-1.5347,-1.5512,-1.5142,-1.4439,-1.4244,-1.3975,-1.3782,-1.3651,-1.4039,-1.454,-1.4803,-1.4815,-1.4851,-1.4449,-1.4265,-1.4277,-1.4329,-1.4377,-1.4833,-1.5027,-1.5172,-1.5104,-1.479,-1.4785,-1.4872,-1.4419,-1.3854,-1.4059,-1.43,-1.4511,-1.4544,-1.4687,-1.4854,-1.5005,-1.4863,-1.4732,-1.447,-1.3897,-1.3329,-1.2725,-1.2351,-1.2063,-1.1955,-1.1976,-1.2102,-1.2246,-1.2343,-1.2443,-2.1878,-2.1548,-2.0824,-2.0292,-2.0017,-2.0246,-1.9971,-1.9329,-1.9641,-1.9622,-1.9654,-1.9776,-2.0099,-2.0627,-2.1096,-2.1347,-2.1603,-2.1977,-2.207,-2.2148,-2.2812,-2.2861,-2.2656,-2.2676,-2.2832,-2.2783,-2.2773,-2.2529,-2.2236,-2.1807,-2.1514,-2.1035,-2.0361,-2.0088,-2.0205,-1.9277,-1.8799,-1.8789,-1.8144,-1.751,-1.7256,-1.6973,-1.6471,-1.5872,-1.4917,-1.4184,-1.3704,-1.3428,-1.3212,-1.3058,-1.2968,-1.2881,-1.2881,-1.2891,-1.2891,-1.2891,-1.2891,-1.2891,-1.2891,-1.2891,-1.293,-1.3096,-1.3165,-1.3323,-1.3787,-1.3981,-1.4084,-1.45,-1.4861,-1.4734,-1.4079,-1.345,-1.3091,-1.2746,-1.2671,-1.2774,-1.2926,-1.3215,-1.3593,-1.383,-1.3777,-1.3807,-1.4141,-1.4117,-1.4141,-1.4265,-1.4405,-1.463,-1.4452,-1.4161,-1.43,-1.4496,-1.4364,-1.3864,-1.3817,-1.4047,-1.4157,-1.4337,-1.4529,-1.4732,-1.4887,-1.5002,-1.4803,-1.4356,-1.3816,-1.3198,-1.2482,-1.2085,-1.1689,-1.1711,-1.1776,-1.1869,-1.1976,-1.2054,-1.22,-2.24,-2.2208,-2.1218,-2.0567,-2.0246,-2.0218,-1.9879,-1.9412,-1.9531,-1.9512,-1.9347,-1.9478,-1.9767,-2.0141,-2.0623,-2.1018,-2.1118,-2.1413,-2.1816,-2.2178,-2.2685,-2.2812,-2.2881,-2.2998,-2.3144,-2.3144,-2.3115,-2.29,-2.251,-2.21,-2.165,-2.123,-2.0547,-2.0371,-2.041,-1.9482,-1.9121,-1.8984,-1.8262,-1.7666,-1.7656,-1.7171,-1.6408,-1.5505,-1.4789,-1.4316,-1.3802,-1.361,-1.3313,-1.3048,-1.2867,-1.2783,-1.2832,-1.2881,-1.2881,-1.2891,-1.2891,-1.2891,-1.2891,-1.29,-1.2969,-1.3145,-1.3008,-1.3281,-1.3535,-1.3643,-1.3608,-1.3881,-1.4204,-1.4306,-1.3749,-1.3471,-1.2841,-1.2439,-1.2423,-1.2478,-1.2338,-1.2483,-1.2698,-1.2907,-1.275,-1.2712,-1.2892,-1.3344,-1.3362,-1.3182,-1.3433,-1.3641,-1.3726,-1.3533,-1.3789,-1.3976,-1.4088,-1.3986,-1.3778,-1.3758,-1.3841,-1.4013,-1.4176,-1.4369,-1.4543,-1.4654,-1.4743,-1.4184,-1.3577,-1.2715,-1.2074,-1.1678,-1.1518,-1.1556,-1.1623,-1.1667,-1.1711,-1.1798,-1.2018,-2.282,-2.2665,-2.1594,-2.0851,-2.0438,-2.0218,-1.9842,-1.9347,-1.9448,-1.9512,-1.9311,-1.9478,-1.9655,-1.9869,-2.0372,-2.0543,-2.0643,-2.0985,-2.151,-2.1831,-2.2327,-2.2522,-2.2803,-2.2978,-2.3144,-2.3144,-2.3144,-2.292,-2.2617,-2.2187,-2.1763,-2.1257,-2.081,-2.0566,-2.041,-1.9681,-1.9243,-1.9204,-1.8123,-1.7649,-1.7813,-1.7148,-1.6237,-1.5491,-1.4911,-1.4601,-1.4144,-1.3839,-1.3528,-1.2991,-1.2843,-1.2723,-1.2686,-1.2725,-1.2832,-1.2832,-1.2832,-1.2783,-1.2774,-1.2852,-1.2968,-1.3328,-1.3105,-1.3193,-1.3603,-1.3545,-1.3439,-1.3496,-1.3704,-1.3802,-1.3379,-1.3262,-1.3096,-1.2773,-1.2686,-1.2539,-1.2345,-1.2256,-1.2337,-1.2156,-1.2069,-1.2032,-1.2076,-1.233,-1.2205,-1.2197,-1.2508,-1.2782,-1.2951,-1.3167,-1.3577,-1.398,-1.422,-1.4013,-1.3789,-1.3411,-1.3472,-1.3615,-1.3782,-1.3947,-1.4103,-1.401,-1.3982,-1.3828,-1.324,-1.2528,-1.2023,-1.1748,-1.1626,-1.1539,-1.1526,-1.1571,-1.1593,-1.1593,-1.1826,-2.2749,-2.2355,-2.1475,-2.0695,-2.0182,-2.0622,-2.0237,-1.9531,-1.9971,-1.9907,-1.9356,-1.9381,-1.9381,-1.9497,-1.9683,-1.9929,-2.0213,-2.0649,-2.0883,-2.1095,-2.1684,-2.2281,-2.2308,-2.2814,-2.3038,-2.3144,-2.3047,-2.2979,-2.293,-2.2617,-2.2026,-2.1462,-2.1028,-2.07,-2.011,-1.9401,-1.9113,-1.9235,-1.8241,-1.7798,-1.777,-1.7406,-1.6807,-1.6048,-1.5411,-1.4989,-1.474,-1.4313,-1.3765,-1.3312,-1.3114,-1.278,-1.2506,-1.248,-1.2578,-1.2627,-1.2637,-1.2627,-1.2627,-1.2578,-1.2656,-1.2763,-1.2773,-1.2793,-1.3027,-1.3076,-1.3076,-1.3145,-1.3311,-1.332,-1.2492,-1.289,-1.2803,-1.2451,-1.2275,-1.2109,-1.2233,-1.2188,-1.208,-1.1861,-1.1676,-1.149,-1.1527,-1.1708,-1.1901,-1.2102,-1.2464,-1.2969,-1.3416,-1.3584,-1.3835,-1.4189,-1.451,-1.4167,-1.3791,-1.3287,-1.3069,-1.3198,-1.3357,-1.3514,-1.3519,-1.3239,-1.312,-1.3356,-1.3319,-1.2899,-1.2431,-1.1899,-1.163,-1.1494,-1.1487,-1.1504,-1.1548,-1.1578,-1.1711,-2.2511,-2.2199,-2.1016,-2.0411,-2.0246,-2.0154,-2.0108,-1.9943,-1.9907,-1.9797,-1.9604,-1.9412,-1.9381,-1.9469,-1.9557,-1.9706,-1.9938,-2.0201,-2.0474,-2.0764,-2.1409,-2.1993,-2.2049,-2.2688,-2.2902,-2.2882,-2.2794,-2.2872,-2.2999,-2.2533,-2.2042,-2.1505,-2.1101,-2.0608,-2.0079,-1.9516,-1.9268,-1.9182,-1.8585,-1.7882,-1.7694,-1.7307,-1.6842,-1.6344,-1.5827,-1.534,-1.5063,-1.468,-1.4072,-1.3396,-1.3094,-1.2693,-1.2414,-1.2274,-1.2372,-1.2471,-1.248,-1.248,-1.2529,-1.2529,-1.2539,-1.2588,-1.2686,-1.2725,-1.2783,-1.2852,-1.2891,-1.2939,-1.2929,-1.2929,-1.257,-1.2957,-1.2995,-1.2677,-1.256,-1.2638,-1.2472,-1.2168,-1.197,-1.1827,-1.1724,-1.1469,-1.1006,-1.1276,-1.1653,-1.2012,-1.2408,-1.2996,-1.3604,-1.3858,-1.3982,-1.4281,-1.4541,-1.4261,-1.3847,-1.3374,-1.2887,-1.2955,-1.3025,-1.3151,-1.3272,-1.3147,-1.3205,-1.3389,-1.3266,-1.3123,-1.2444,-1.1812,-1.1623,-1.1439,-1.1465,-1.1466,-1.1511,-1.1578,-1.1711,-2.2162,-2.2089,-2.0732,-2.0301,-2.0383,-1.9842,-1.9925,-2.0301,-1.9861,-1.9742,-1.9842,-1.9512,-1.9381,-1.9548,-1.9636,-1.9715,-1.9872,-2.0027,-2.0394,-2.0784,-2.1326,-2.1777,-2.2082,-2.2438,-2.2706,-2.2706,-2.253,-2.2618,-2.2833,-2.2505,-2.1959,-2.1415,-2.1005,-2.0514,-1.9882,-1.9401,-1.9393,-1.9288,-1.8797,-1.8096,-1.7399,-1.6862,-1.641,-1.6116,-1.5689,-1.5201,-1.5097,-1.4825,-1.4328,-1.3754,-1.3312,-1.2831,-1.2337,-1.2172,-1.2224,-1.2372,-1.2431,-1.2431,-1.2431,-1.2431,-1.2429,-1.2601,-1.2626,-1.2675,-1.2831,-1.2929,-1.2881,-1.2822,-1.2793,-1.2705,-1.2646,-1.3113,-1.3221,-1.3099,-1.3256,-1.3478,-1.2988,-1.2607,-1.2295,-1.2086,-1.1855,-1.1529,-1.1135,-1.094,-1.1373,-1.1741,-1.2124,-1.2619,-1.3225,-1.3735,-1.3973,-1.4278,-1.4425,-1.4298,-1.3946,-1.3482,-1.3071,-1.285,-1.2885,-1.2978,-1.3116,-1.3225,-1.3288,-1.3297,-1.3363,-1.3122,-1.2416,-1.1871,-1.1692,-1.1551,-1.1485,-1.1466,-1.1489,-1.1578,-1.1689,-2.1689,-2.1759,-2.119,-2.0796,-2.0539,-2.0383,-2.0402,-2.0512,-2.0365,-2.0191,-1.9952,-1.9503,-1.9301,-1.9381,-1.9706,-1.9715,-1.9907,-2.0216,-2.0432,-2.0579,-2.1218,-2.1569,-2.1709,-2.2187,-2.2394,-2.2441,-2.2353,-2.253,-2.262,-2.2368,-2.1815,-2.1137,-2.0865,-2.0482,-1.9655,-1.9291,-1.9071,-1.926,-1.8561,-1.7889,-1.7414,-1.6732,-1.6272,-1.5643,-1.4999,-1.4587,-1.4915,-1.4703,-1.4327,-1.4173,-1.388,-1.3378,-1.2761,-1.23,-1.2172,-1.2126,-1.2126,-1.2126,-1.2175,-1.2175,-1.2345,-1.2535,-1.2538,-1.2717,-1.2876,-1.2929,-1.2822,-1.2725,-1.2676,-1.2627,-1.2578,-1.2761,-1.2905,-1.3022,-1.3121,-1.3316,-1.3154,-1.2938,-1.2594,-1.2158,-1.1846,-1.1661,-1.1358,-1.116,-1.1082,-1.1458,-1.1855,-1.2351,-1.2862,-1.3466,-1.4048,-1.4344,-1.4112,-1.3941,-1.3819,-1.3407,-1.3132,-1.2792,-1.2815,-1.2838,-1.2978,-1.3082,-1.3094,-1.3132,-1.3214,-1.3103,-1.251,-1.2048,-1.1819,-1.1698,-1.1641,-1.156,-1.1504,-1.1593,-1.1763,-2.056,-2.0854,-2.0775,-2.0814,-2.0814,-2.0622,-2.0796,-2.1007,-2.0475,-2.0218,-2.0127,-1.9567,-1.9292,-1.9381,-1.9539,-1.9687,-1.9765,-2.0024,-2.0113,-2.0377,-2.0884,-2.1212,-2.1363,-2.1823,-2.2264,-2.2087,-2.205,-2.1901,-2.2011,-2.1851,-2.1493,-2.0922,-2.0605,-2.0133,-1.9445,-1.9303,-1.884,-1.8364,-1.7517,-1.7086,-1.6993,-1.6468,-1.5791,-1.5125,-1.4592,-1.4431,-1.4453,-1.4383,-1.3852,-1.3521,-1.3226,-1.293,-1.2347,-1.2097,-1.2149,-1.2397,-1.1876,-1.1837,-1.2026,-1.2085,-1.2291,-1.236,-1.2379,-1.2494,-1.2774,-1.2761,-1.2676,-1.2578,-1.2529,-1.2431,-1.2438,-1.2598,-1.2617,-1.2755,-1.2905,-1.2976,-1.3066,-1.3085,-1.2795,-1.2289,-1.1846,-1.1667,-1.1466,-1.1236,-1.1075,-1.1195,-1.1747,-1.234,-1.2848,-1.3358,-1.3892,-1.4424,-1.4013,-1.3534,-1.3462,-1.3252,-1.2999,-1.2757,-1.2709,-1.2733,-1.2838,-1.2908,-1.2873,-1.2943,-1.3035,-1.2826,-1.2468,-1.2399,-1.2307,-1.2044,-1.1774,-1.17,-1.1623,-1.1878,-1.1949,-1.894,-1.9379,-2.0259,-2.0842,-2.1062,-2.0686,-2.0842,-2.1255,-2.0503,-2.02,-2.0127,-1.9632,-1.9292,-1.9292,-1.9399,-1.9608,-1.9804,-1.97,-1.9817,-2.0195,-2.0568,-2.0671,-2.0798,-2.1218,-2.1701,-2.1615,-2.1184,-2.1128,-2.0971,-2.0612,-2.0162,-2.0365,-2.0191,-1.9633,-1.9261,-1.9195,-1.8966,-1.792,-1.6896,-1.6538,-1.6413,-1.5848,-1.5073,-1.4529,-1.414,-1.3984,-1.3925,-1.3871,-1.3382,-1.3251,-1.306,-1.2808,-1.2258,-1.2167,-1.2203,-1.2209,-1.1792,-1.1591,-1.1774,-1.1882,-1.2181,-1.2432,-1.2459,-1.2672,-1.2466,-1.2471,-1.248,-1.248,-1.2382,-1.2323,-1.233,-1.2443,-1.2497,-1.2588,-1.2726,-1.275,-1.2763,-1.2783,-1.2821,-1.2604,-1.2139,-1.1699,-1.1459,-1.1253,-1.1126,-1.1077,-1.1551,-1.2232,-1.2781,-1.3227,-1.3613,-1.4061,-1.3914,-1.3421,-1.3321,-1.3136,-1.2878,-1.2615,-1.2603,-1.2674,-1.2733,-1.2685,-1.265,-1.272,-1.2791,-1.2802,-1.2612,-1.2735,-1.2781,-1.2329,-1.1952,-1.1811,-1.1813,-1.2053,-1.1971,-1.6595,-1.6949,-1.9765,-2.0948,-2.0966,-2.0686,-2.0473,-2.0619,-2.0428,-2.0218,-1.9925,-1.9512,-1.9292,-1.9301,-1.9487,-1.9613,-1.9687,-2.0217,-2.0117,-2.0202,-2.0501,-2.028,-2.0328,-2.0512,-2.0959,-2.0552,-2.0262,-2.0061,-1.96,-1.8735,-1.8515,-1.8688,-1.9097,-1.8885,-1.8521,-1.8407,-1.8505,-1.7577,-1.6725,-1.6103,-1.5747,-1.5103,-1.4306,-1.3653,-1.2966,-1.2792,-1.3491,-1.3447,-1.3346,-1.3346,-1.3186,-1.291,-1.2336,-1.2235,-1.2213,-1.2033,-1.1775,-1.1535,-1.1619,-1.1792,-1.252,-1.3195,-1.335,-1.2798,-1.2367,-1.2431,-1.2421,-1.2323,-1.2274,-1.2234,-1.2184,-1.2203,-1.2299,-1.2168,-1.2195,-1.2208,-1.2262,-1.2508,-1.256,-1.2696,-1.2365,-1.1834,-1.1543,-1.1296,-1.127,-1.1211,-1.1361,-1.2029,-1.248,-1.2933,-1.3207,-1.3472,-1.3629,-1.3431,-1.3304,-1.3011,-1.251,-1.2291,-1.2233,-1.2401,-1.2579,-1.2508,-1.2282,-1.2401,-1.2496,-1.2637,-1.2751,-1.2656,-1.2501,-1.2315,-1.2163,-1.2153,-1.1871,-1.1813,-1.1605,-1.6426,-1.6595,-1.8161,-1.8862,-1.916,-1.9539,-1.9742,-1.9782,-2.0005,-1.9934,-1.9558,-1.9375,-1.9292,-1.9311,-1.9356,-1.9694,-2.0053,-2.007,-1.9861,-1.9851,-2.0039,-1.9987,-1.9906,-1.9986,-2.0494,-1.992,-1.9521,-1.8912,-1.8148,-1.7379,-1.6928,-1.7151,-1.7606,-1.7589,-1.7375,-1.7188,-1.7049,-1.7017,-1.6215,-1.5416,-1.5155,-1.452,-1.3784,-1.3064,-1.264,-1.2351,-1.2518,-1.2722,-1.2621,-1.2557,-1.2656,-1.2465,-1.2253,-1.2158,-1.2157,-1.1974,-1.1594,-1.1533,-1.1835,-1.1784,-1.1903,-1.2303,-1.2546,-1.2536,-1.2153,-1.2224,-1.2234,-1.2175,-1.2175,-1.2076,-1.2126,-1.2126,-1.2085,-1.1819,-1.166,-1.1601,-1.1701,-1.1909,-1.2092,-1.2078,-1.2035,-1.1767,-1.1557,-1.1376,-1.1364,-1.1387,-1.1557,-1.1724,-1.2197,-1.248,-1.268,-1.2685,-1.2759,-1.2732,-1.2549,-1.2318,-1.2047,-1.1971,-1.1895,-1.1993,-1.2138,-1.1957,-1.1811,-1.1993,-1.2102,-1.2151,-1.2236,-1.2329,-1.2323,-1.2279,-1.244,-1.2677,-1.2253,-1.1708,-1.1376,-1.5712,-1.5778,-1.6152,-1.7016,-1.8096,-1.8795,-1.9074,-1.9287,-1.9752,-1.9787,-1.9485,-1.9485,-1.9567,-1.9632,-1.9696,-1.9925,-2.0208,-1.9922,-1.9635,-1.9486,-1.9326,-1.9134,-1.8956,-1.9007,-1.9042,-1.8812,-1.8362,-1.7608,-1.704,-1.6538,-1.5859,-1.5474,-1.5643,-1.5974,-1.6214,-1.5809,-1.5748,-1.5861,-1.533,-1.4505,-1.4458,-1.3952,-1.3494,-1.2864,-1.2452,-1.2171,-1.2016,-1.204,-1.1881,-1.1918,-1.1938,-1.1956,-1.1873,-1.1864,-1.2049,-1.1781,-1.1531,-1.1399,-1.1705,-1.215,-1.1769,-1.2134,-1.228,-1.2181,-1.1963,-1.1868,-1.1769,-1.1501,-1.166,-1.1868,-1.1868,-1.1769,-1.1728,-1.1469,-1.0847,-1.0738,-1.0906,-1.1065,-1.1254,-1.1394,-1.1474,-1.1685,-1.1741,-1.1543,-1.1211,-1.1291,-1.1514,-1.1582,-1.1665,-1.19,-1.1995,-1.1957,-1.1834,-1.1715,-1.1602,-1.1529,-1.1524,-1.1678,-1.159,-1.1516,-1.1542,-1.1404,-1.1442,-1.17,-1.1774,-1.17,-1.1766,-1.1903,-1.2118,-1.2338,-1.2473,-1.2583,-1.2352,-1.1786,-1.1388,-1.4213,-1.4102,-1.4277,-1.5859,-1.8163,-1.8505,-1.8737,-1.9039,-1.9534,-1.9734,-1.9689,-1.9716,-1.9925,-2.0134,-1.9895,-1.9808,-1.9916,-1.9484,-1.9175,-1.9134,-1.8523,-1.7608,-1.7415,-1.7556,-1.7653,-1.6628,-1.647,-1.6437,-1.5982,-1.5184,-1.446,-1.4348,-1.458,-1.4824,-1.5394,-1.5394,-1.5372,-1.5267,-1.4531,-1.4137,-1.3831,-1.3493,-1.3104,-1.2889,-1.2412,-1.2084,-1.1817,-1.1557,-1.1536,-1.1717,-1.183,-1.1848,-1.1803,-1.1823,-1.171,-1.1179,-1.1125,-1.0809,-1.0418,-1.1858,-1.2192,-1.2049,-1.2079,-1.2118,-1.1556,-1.1267,-1.115,-1.0931,-1.115,-1.1318,-1.1318,-1.1318,-1.1318,-1.0947,-1.0332,-1.0018,-1.0195,-1.0348,-1.0563,-1.0773,-1.1256,-1.167,-1.1814,-1.1715,-1.1228,-1.1183,-1.1456,-1.148,-1.1296,-1.1359,-1.1406,-1.1283,-1.114,-1.1115,-1.1081,-1.0974,-1.0975,-1.118,-1.1255,-1.1142,-1.1067,-1.1029,-1.1142,-1.1367,-1.133,-1.1217,-1.1367,-1.1531,-1.1809,-1.2072,-1.2167,-1.2218,-1.2056,-1.1914,-1.158,-1.4088,-1.4088,-1.4088,-1.5049,-1.6383,-1.6467,-1.6884,-1.7669,-1.8555,-1.9011,-1.9073,-1.9248,-1.9431,-1.9323,-1.8761,-1.8591,-1.8734,-1.8987,-1.8797,-1.8171,-1.7895,-1.7728,-1.7327,-1.6781,-1.6576,-1.6111,-1.5815,-1.5247,-1.4711,-1.4284,-1.4179,-1.4088,-1.4088,-1.4257,-1.4496,-1.458,-1.4573,-1.4482,-1.4237,-1.4021,-1.3888,-1.348,-1.3146,-1.2999,-1.2405,-1.1904,-1.1623,-1.1349,-1.1376,-1.1577,-1.1683,-1.1737,-1.1663,-1.1683,-1.1557,-1.1116,-1.0975,-1.0822,-1.056,-1.1108,-1.1262,-1.1483,-1.1752,-1.1817,-1.1336,-1.0905,-1.0635,-1.0533,-1.0795,-1.0956,-1.0795,-1.1158,-1.1057,-1.0226,-0.9695,-0.9503,-0.951,-0.9755,-0.9923,-1.0128,-1.0474,-1.083,-1.103,-1.1024,-1.0674,-1.0525,-1.0657,-1.0662,-1.0514,-1.0727,-1.0816,-1.0654,-1.0531,-1.0574,-1.0577,-1.0595,-1.0582,-1.0736,-1.0736,-1.0582,-1.0582,-1.0649,-1.0687,-1.084,-1.0812,-1.0774,-1.0992,-1.1217,-1.1505,-1.1759,-1.1791,-1.1848,-1.1749,-1.1842,-1.1939,-1.4088,-1.4088,-1.4088,-1.4642,-1.5449,-1.5445,-1.5937,-1.6921,-1.7844,-1.8329,-1.8504,-1.8729,-1.8912,-1.8696,-1.8048,-1.7903,-1.8303,-1.8173,-1.8464,-1.7668,-1.7476,-1.7051,-1.656,-1.6103,-1.5555,-1.5276,-1.5127,-1.4587,-1.4284,-1.4179,-1.4088,-1.4088,-1.4088,-1.4173,-1.4166,-1.4166,-1.4173,-1.4166,-1.4082,-1.4082,-1.3895,-1.3587,-1.3213,-1.2939,-1.2405,-1.171,-1.1456,-1.1289,-1.1182,-1.1316,-1.143,-1.151,-1.1416,-1.1376,-1.1323,-1.0989,-1.0815,-1.0621,-1.0377,-1.0696,-1.0842,-1.0508,-1.1052,-1.1085,-1.0802,-1.0336,-1.002,-1.002,-1.0498,-1.0438,-1.0328,-1.0694,-1.0438,-0.9607,-0.9361,-0.9166,-0.9113,-0.9309,-0.951,-0.9666,-0.9814,-1.0064,-1.0265,-1.0108,-0.999,-0.9893,-0.9838,-0.984,-0.9904,-1.0199,-1.0413,-1.0264,-1.021,-1.027,-1.0311,-1.0303,-1.0322,-1.0322,-1.0322,-1.0283,-1.0322,-1.0467,-1.0361,-1.0322,-1.0428,-1.0544,-1.0659,-1.0888,-1.1067,-1.1207,-1.1339,-1.1372,-1.142,-1.1629,-1.1889,-1.4095,-1.4102,-1.4095,-1.4767,-1.5618,-1.5452,-1.5995,-1.7,-1.7431,-1.7762,-1.8158,-1.8119,-1.8237,-1.8565,-1.8221,-1.8266,-1.8592,-1.7865,-1.7924,-1.7644,-1.6775,-1.6133,-1.5435,-1.4853,-1.4621,-1.4355,-1.4179,-1.4362,-1.4102,-1.4175,-1.4168,-1.4122,-1.4108,-1.4095,-1.4088,-1.4088,-1.4088,-1.4088,-1.4088,-1.4048,-1.3881,-1.3507,-1.3173,-1.2812,-1.2198,-1.1643,-1.1289,-1.0982,-1.0902,-1.0962,-1.1022,-1.1002,-1.1035,-1.1002,-1.0815,-1.0668,-1.0588,-1.0307,-1.0181,-1.0668,-1.0387,-1.0038,-1.0136,-1.0022,-0.9873,-0.9718,-0.9465,-0.9406,-0.9621,-0.9666,-0.9666,-0.9718,-0.9769,-0.9361,-0.9106,-0.8956,-0.8857,-0.9008,-0.9159,-0.9309,-0.9465,-0.9651,-0.9857,-0.9734,-0.9458,-0.9526,-0.9514,-0.9573,-0.9674,-1.0027,-1.0146,-1.0033,-1.0037,-1.0087,-1.0088,-1.0127,-1.0244,-1.0283,-1.0244,-1.0244,-1.0283,-1.0283,-1.0244,-1.0244,-1.0273,-1.0312,-1.0302,-1.0351,-1.039,-1.0582,-1.0791,-1.11,-1.1155,-1.1391,-1.1603,-1.4202,-1.4389,-1.4396,-1.4615,-1.4904,-1.5219,-1.5479,-1.5758,-1.6632,-1.7206,-1.7274,-1.7274,-1.7319,-1.7364,-1.613,-1.6396,-1.647,-1.6514,-1.6734,-1.6467,-1.6164,-1.5649,-1.5104,-1.458,-1.4166,-1.4088,-1.4108,-1.4168,-1.4335,-1.4369,-1.4355,-1.4382,-1.4168,-1.4108,-1.4088,-1.4088,-1.4088,-1.4088,-1.4088,-1.3995,-1.3794,-1.3427,-1.3073,-1.2559,-1.1892,-1.1463,-1.1102,-1.0782,-1.0735,-1.0922,-1.0958,-1.0989,-1.1002,-1.0982,-1.0868,-1.0608,-1.0555,-1.0468,-1.0383,-1.037,-1.0162,-0.9743,-0.9624,-0.9599,-0.9446,-0.9256,-0.9008,-0.9054,-0.9159,-0.9309,-0.9309,-0.9309,-0.9316,-0.9113,-0.8903,-0.8857,-0.8804,-0.8857,-0.9008,-0.9061,-0.9159,-0.9204,-0.9408,-0.9249,-0.8969,-0.9124,-0.9234,-0.9291,-0.9473,-0.9777,-0.9893,-0.9844,-0.9827,-0.9885,-0.9999,-1.0059,-1.0166,-1.0244,-1.0205,-1.0166,-1.0166,-1.0166,-1.0166,-1.0166,-1.0118,-0.9991,-0.9825,-0.9913,-1.0079,-1.003,-1.0215,-1.0601,-1.0954,-1.1132,-1.1319,-1.4429,-1.4663,-1.4563,-1.4643,-1.493,-1.5371,-1.5404,-1.5379,-1.6036,-1.6288,-1.6274,-1.6154,-1.6104,-1.6034,-1.5198,-1.505,-1.5877,-1.5782,-1.5846,-1.5929,-1.5643,-1.5242,-1.4748,-1.4419,-1.4166,-1.4088,-1.4102,-1.4148,-1.4342,-1.4362,-1.4335,-1.4295,-1.4142,-1.4115,-1.4088,-1.4088,-1.4088,-1.4088,-1.4062,-1.3968,-1.3728,-1.34,-1.2933,-1.2405,-1.172,-1.1193,-1.0857,-1.056,-1.0483,-1.0601,-1.0621,-1.0591,-1.062,-1.0607,-1.0788,-1.0568,-1.0618,-1.0461,-1.0307,-1.0194,-0.9907,-0.9599,-0.9296,-0.9262,-0.9171,-0.9008,-0.8857,-0.8857,-0.9061,-0.9166,-0.9113,-0.9008,-0.8956,-0.8857,-0.8804,-0.8804,-0.8804,-0.8804,-0.8804,-0.8804,-0.8804,-0.8857,-0.8783,-0.8597,-0.8595,-0.8864,-0.9018,-0.9047,-0.927,-0.9572,-0.9678,-0.9604,-0.9689,-0.974,-0.9802,-0.989,-0.9971,-1.0049,-1.0088,-1.0088,-1.004,-1.0,-1.0,-0.9952,-0.9913,-0.9707,-0.9439,-0.9707,-0.9913,-0.9785,-0.9873,-1.0302,-1.0621,-1.0687,-1.084,-1.4723,-1.497,-1.4683,-1.4877,-1.5391,-1.5611,-1.5571,-1.5398,-1.5396,-1.5331,-1.5369,-1.514,-1.5102,-1.5123,-1.465,-1.494,-1.5369,-1.5336,-1.5235,-1.5394,-1.5151,-1.4824,-1.4419,-1.4088,-1.4088,-1.4088,-1.4108,-1.4155,-1.4148,-1.4229,-1.4269,-1.4122,-1.4095,-1.4088,-1.4088,-1.3997,-1.3964,-1.3871,-1.3703,-1.3567,-1.3692,-1.338,-1.3013,-1.2423,-1.1728,-1.1012,-1.0626,-1.0322,-1.0015,-1.004,-1.006,-1.0136,-1.0206,-1.0283,-1.0454,-1.0511,-1.0491,-1.0405,-1.0259,-1.0126,-0.9821,-0.9502,-0.9203,-0.9017,-0.8911,-0.8864,-0.8804,-0.8804,-0.8962,-0.8956,-0.891,-0.891,-0.8857,-0.8804,-0.8804,-0.8804,-0.8804,-0.8804,-0.8804,-0.8804,-0.8804,-0.8804,-0.8798,-0.8677,-0.8664,-0.8797,-0.8829,-0.8913,-0.9011,-0.9335,-0.9431,-0.9393,-0.9384,-0.9426,-0.9477,-0.9573,-0.9723,-0.9813,-0.9853,-0.9853,-0.9734,-0.9765,-0.9795,-0.9667,-0.946,-0.9279,-0.9128,-0.9439,-0.9628,-0.9478,-0.9597,-1.0088,-1.0283,-1.0273,-1.0505,-1.5023,-1.5264,-1.4977,-1.507,-1.5357,-1.5237,-1.5277,-1.5351,-1.491,-1.4863,-1.4983,-1.477,-1.4623,-1.4583,-1.4355,-1.464,-1.5168,-1.4895,-1.4915,-1.4908,-1.4824,-1.4496,-1.4166,-1.4088,-1.4088,-1.4088,-1.4115,-1.4175,-1.4282,-1.4349,-1.4389,-1.4362,-1.4229,-1.4082,-1.4041,-1.3866,-1.3703,-1.3348,-1.2901,-1.2795,-1.3011,-1.2896,-1.2614,-1.176,-1.093,-1.0667,-1.032,-1.0104,-0.9977,-0.9989,-1.013,-1.0321,-1.0441,-1.0301,-1.0301,-1.0364,-1.0301,-1.0305,-1.0214,-1.0043,-0.9714,-0.9421,-0.9099,-0.8893,-0.8744,-0.8791,-0.8804,-0.8804,-0.8804,-0.8804,-0.8804,-0.8804,-0.8804,-0.8804,-0.8804,-0.8804,-0.8804,-0.8804,-0.8804,-0.8804,-0.8804,-0.8804,-0.8804,-0.8804,-0.8804,-0.8804,-0.8798,-0.8803,-0.8835,-0.9008,-0.9188,-0.9136,-0.9032,-0.9066,-0.9157,-0.918,-0.9299,-0.9364,-0.9368,-0.9377,-0.9386,-0.9288,-0.9191,-0.9102,-0.8941,-0.8797,-0.8837,-0.927,-0.935,-0.9119,-0.9359,-0.9804,-0.9804,-0.9795,-1.0118,-1.4807,-1.5364,-1.5364,-1.5284,-1.5204,-1.5164,-1.5117,-1.495,-1.4656,-1.4529,-1.4556,-1.4409,-1.4335,-1.4335,-1.4148,-1.425,-1.4741,-1.4334,-1.4412,-1.4496,-1.4503,-1.425,-1.4088,-1.4088,-1.4088,-1.4088,-1.4095,-1.4175,-1.4329,-1.4315,-1.4289,-1.423,-1.4135,-1.3931,-1.3774,-1.3535,-1.3156,-1.2475,-1.1805,-1.1733,-1.1981,-1.1784,-1.1746,-1.1049,-1.0722,-1.0359,-1.0049,-0.9798,-0.9594,-0.9274,-0.9017,-0.9011,-0.9134,-0.939,-0.9582,-0.9779,-0.9913,-1.0174,-1.009,-0.9916,-0.9659,-0.933,-0.9023,-0.8764,-0.8545,-0.8586,-0.8699,-0.8692,-0.8692,-0.8685,-0.8745,-0.8752,-0.8752,-0.8752,-0.8804,-0.8804,-0.8804,-0.8804,-0.8804,-0.8804,-0.8804,-0.8804,-0.8804,-0.8804,-0.8804,-0.8804,-0.8804,-0.8804,-0.8804,-0.8804,-0.8922,-0.899,-0.8892,-0.8849,-0.8912,-0.8903,-0.8839,-0.8865,-0.8862,-0.8854,-0.8854,-0.8683,-0.8553,-0.8504,-0.8415,-0.8341,-0.8504,-0.8861,-0.8918,-0.8692,-0.9056,-0.9527,-0.9408,-0.9359,-0.9637,-1.4454,-1.5284,-1.5531,-1.5371,-1.497,-1.511,-1.4957,-1.4576,-1.4476,-1.4329,-1.4155,-1.4128,-1.4088,-1.4088,-1.4088,-1.4088,-1.4088,-1.4166,-1.4166,-1.4166,-1.4173,-1.4088,-1.4088,-1.4088,-1.4088,-1.4088,-1.4088,-1.4088,-1.4135,-1.4057,-1.3972,-1.3919,-1.3827,-1.3651,-1.3289,-1.299,-1.2625,-1.1692,-1.1016,-1.0723,-1.0595,-1.047,-1.0831,-1.0777,-1.0592,-1.012,-0.9845,-0.9466,-0.9011,-0.8624,-0.8166,-0.8166,-0.835,-0.8737,-0.9134,-0.939,-0.9786,-0.9882,-0.9838,-0.9678,-0.9385,-0.9112,-0.8877,-0.8599,-0.8378,-0.8427,-0.8533,-0.8586,-0.858,-0.8633,-0.8692,-0.8745,-0.8752,-0.8752,-0.8752,-0.8639,-0.8639,-0.8692,-0.8752,-0.8752,-0.8752,-0.8752,-0.8752,-0.8752,-0.8752,-0.8752,-0.8752,-0.8804,-0.8804,-0.8804,-0.8854,-0.8906,-0.8869,-0.8816,-0.8693,-0.8629,-0.8465,-0.8372,-0.8387,-0.8356,-0.8283,-0.8062,-0.7979,-0.7987,-0.7946,-0.7904,-0.8028,-0.8316,-0.8283,-0.8299,-0.8822,-0.9217,-0.8837,-0.8837,-0.9159,-1.4559,-1.4696,-1.475,-1.4703,-1.4589,-1.4436,-1.4402,-1.4476,-1.4255,-1.4128,-1.399,-1.3906,-1.3913,-1.4088,-1.4088,-1.4088,-1.3997,-1.4088,-1.4088,-1.4088,-1.4088,-1.4088,-1.4004,-1.3913,-1.4088,-1.3913,-1.3822,-1.3997,-1.3392,-1.3476,-1.3294,-1.2681,-1.3048,-1.2775,-1.2117,-1.1944,-1.1694,-1.0695,-0.9844,-0.9349,-0.9468,-0.9638,-1.0364,-1.0438,-1.0378,-0.9952,-0.9551,-0.8994,-0.8667,-0.835,-0.7902,-0.7772,-0.8032,-0.835,-0.8807,-0.9244,-0.964,-0.9631,-0.9537,-0.9192,-0.8909,-0.8757,-0.8452,-0.8154,-0.808,-0.8215,-0.8268,-0.8315,-0.8368,-0.858,-0.8639,-0.8699,-0.8699,-0.8646,-0.8646,-0.8256,-0.8037,-0.8309,-0.8573,-0.8633,-0.8685,-0.8692,-0.8692,-0.8639,-0.8639,-0.8593,-0.854,-0.854,-0.8639,-0.8692,-0.8699,-0.8817,-0.8815,-0.8491,-0.8194,-0.8271,-0.8144,-0.8019,-0.7898,-0.7896,-0.7775,-0.744,-0.7356,-0.753,-0.7579,-0.7579,-0.7746,-0.7912,-0.7961,-0.8085,-0.8659,-0.8895,-0.848,-0.848,-0.8886]}]]